<?xml version="1.0" encoding="UTF-8" standalone="no" ?>
<gpx xmlns="http://www.topografix.com/GPX/1/1" xmlns:xsi="http://www.w3.org/2001/XMLSchema-instance" xsi:schemaLocation="http://www.topografix.com/GPX/1/1 http://www.topografix.com/GPX/1/1/gpx.xsd" version="1.1" creator="VisuGPX - https://www.visugpx.com">
  <metadata>
    <name>Tracé 1 Origole 2009 JPM</name>
    <desc><![CDATA[Un bout de l'Origole 2009 en mode Rando]]></desc>
  </metadata>
  <trk>
    <name><![CDATA[2009-12-05 : Origole]]></name>
    <desc><![CDATA[L'Origole 2009 courue par Christian Bouteille]]></desc>
    <trkseg>
      <trkpt lat="48.71851" lon="1.83505">
        <ele>107.32</ele>
        <time>2009-12-05T21:30:16.000Z</time>
      </trkpt>
      <trkpt lat="48.71859" lon="1.83506">
        <ele>111.65</ele>
        <time>2009-12-05T21:30:20.000Z</time>
      </trkpt>
      <trkpt lat="48.71869" lon="1.8351">
        <ele>127.51</ele>
        <time>2009-12-05T21:30:25.000Z</time>
      </trkpt>
      <trkpt lat="48.71878" lon="1.83516">
        <ele>143.85</ele>
        <time>2009-12-05T21:30:29.000Z</time>
      </trkpt>
      <trkpt lat="48.71896" lon="1.83527">
        <ele>160.68</ele>
        <time>2009-12-05T21:30:36.000Z</time>
      </trkpt>
      <trkpt lat="48.71908" lon="1.83536">
        <ele>168.37</ele>
        <time>2009-12-05T21:30:41.000Z</time>
      </trkpt>
      <trkpt lat="48.71921" lon="1.83547">
        <ele>174.14</ele>
        <time>2009-12-05T21:30:46.000Z</time>
      </trkpt>
      <trkpt lat="48.71933" lon="1.8356">
        <ele>176.54</ele>
        <time>2009-12-05T21:30:52.000Z</time>
      </trkpt>
      <trkpt lat="48.71943" lon="1.8357">
        <ele>177.98</ele>
        <time>2009-12-05T21:30:57.000Z</time>
      </trkpt>
      <trkpt lat="48.7195" lon="1.83582">
        <ele>177.98</ele>
        <time>2009-12-05T21:31:02.000Z</time>
      </trkpt>
      <trkpt lat="48.71952" lon="1.83586">
        <ele>178.46</ele>
        <time>2009-12-05T21:31:04.000Z</time>
      </trkpt>
      <trkpt lat="48.71963" lon="1.83594">
        <ele>179.42</ele>
        <time>2009-12-05T21:31:09.000Z</time>
      </trkpt>
      <trkpt lat="48.71973" lon="1.83602">
        <ele>180.38</ele>
        <time>2009-12-05T21:31:14.000Z</time>
      </trkpt>
      <trkpt lat="48.71975" lon="1.83605">
        <ele>180.87</ele>
        <time>2009-12-05T21:31:15.000Z</time>
      </trkpt>
      <trkpt lat="48.71984" lon="1.83615">
        <ele>182.31</ele>
        <time>2009-12-05T21:31:20.000Z</time>
      </trkpt>
      <trkpt lat="48.71991" lon="1.8363">
        <ele>181.35</ele>
        <time>2009-12-05T21:31:25.000Z</time>
      </trkpt>
      <trkpt lat="48.71993" lon="1.83632">
        <ele>180.87</ele>
        <time>2009-12-05T21:31:26.000Z</time>
      </trkpt>
      <trkpt lat="48.72005" lon="1.83647">
        <ele>179.9</ele>
        <time>2009-12-05T21:31:32.000Z</time>
      </trkpt>
      <trkpt lat="48.72015" lon="1.83662">
        <ele>181.83</ele>
        <time>2009-12-05T21:31:38.000Z</time>
      </trkpt>
      <trkpt lat="48.72027" lon="1.83672">
        <ele>181.83</ele>
        <time>2009-12-05T21:31:43.000Z</time>
      </trkpt>
      <trkpt lat="48.72036" lon="1.83681">
        <ele>183.27</ele>
        <time>2009-12-05T21:31:48.000Z</time>
      </trkpt>
      <trkpt lat="48.72047" lon="1.83692">
        <ele>183.75</ele>
        <time>2009-12-05T21:31:53.000Z</time>
      </trkpt>
      <trkpt lat="48.72052" lon="1.83696">
        <ele>185.19</ele>
        <time>2009-12-05T21:31:55.000Z</time>
      </trkpt>
      <trkpt lat="48.72062" lon="1.83714">
        <ele>185.19</ele>
        <time>2009-12-05T21:32:01.000Z</time>
      </trkpt>
      <trkpt lat="48.72066" lon="1.8373">
        <ele>183.27</ele>
        <time>2009-12-05T21:32:05.000Z</time>
      </trkpt>
      <trkpt lat="48.72069" lon="1.83739">
        <ele>183.27</ele>
        <time>2009-12-05T21:32:08.000Z</time>
      </trkpt>
      <trkpt lat="48.72075" lon="1.83751">
        <ele>184.23</ele>
        <time>2009-12-05T21:32:12.000Z</time>
      </trkpt>
      <trkpt lat="48.72087" lon="1.83767">
        <ele>186.15</ele>
        <time>2009-12-05T21:32:18.000Z</time>
      </trkpt>
      <trkpt lat="48.72092" lon="1.83774">
        <ele>185.67</ele>
        <time>2009-12-05T21:32:21.000Z</time>
      </trkpt>
      <trkpt lat="48.72099" lon="1.83787">
        <ele>187.11</ele>
        <time>2009-12-05T21:32:26.000Z</time>
      </trkpt>
      <trkpt lat="48.72109" lon="1.83793">
        <ele>189.52</ele>
        <time>2009-12-05T21:32:30.000Z</time>
      </trkpt>
      <trkpt lat="48.72115" lon="1.83797">
        <ele>189.04</ele>
        <time>2009-12-05T21:32:32.000Z</time>
      </trkpt>
      <trkpt lat="48.72123" lon="1.83818">
        <ele>190.48</ele>
        <time>2009-12-05T21:32:38.000Z</time>
      </trkpt>
      <trkpt lat="48.72131" lon="1.83831">
        <ele>190.48</ele>
        <time>2009-12-05T21:32:43.000Z</time>
      </trkpt>
      <trkpt lat="48.72141" lon="1.83843">
        <ele>188.56</ele>
        <time>2009-12-05T21:32:48.000Z</time>
      </trkpt>
      <trkpt lat="48.72153" lon="1.83854">
        <ele>189.04</ele>
        <time>2009-12-05T21:32:53.000Z</time>
      </trkpt>
      <trkpt lat="48.72163" lon="1.83863">
        <ele>191.92</ele>
        <time>2009-12-05T21:32:58.000Z</time>
      </trkpt>
      <trkpt lat="48.72175" lon="1.83878">
        <ele>191.92</ele>
        <time>2009-12-05T21:33:04.000Z</time>
      </trkpt>
      <trkpt lat="48.72187" lon="1.83894">
        <ele>191.44</ele>
        <time>2009-12-05T21:33:10.000Z</time>
      </trkpt>
      <trkpt lat="48.72197" lon="1.83911">
        <ele>190</ele>
        <time>2009-12-05T21:33:16.000Z</time>
      </trkpt>
      <trkpt lat="48.72208" lon="1.83921">
        <ele>191.44</ele>
        <time>2009-12-05T21:33:21.000Z</time>
      </trkpt>
      <trkpt lat="48.72212" lon="1.83925">
        <ele>192.88</ele>
        <time>2009-12-05T21:33:23.000Z</time>
      </trkpt>
      <trkpt lat="48.72219" lon="1.83936">
        <ele>194.32</ele>
        <time>2009-12-05T21:33:28.000Z</time>
      </trkpt>
      <trkpt lat="48.72234" lon="1.83954">
        <ele>192.88</ele>
        <time>2009-12-05T21:33:34.000Z</time>
      </trkpt>
      <trkpt lat="48.72242" lon="1.8396">
        <ele>194.32</ele>
        <time>2009-12-05T21:33:38.000Z</time>
      </trkpt>
      <trkpt lat="48.72247" lon="1.83966">
        <ele>194.8</ele>
        <time>2009-12-05T21:33:42.000Z</time>
      </trkpt>
      <trkpt lat="48.72258" lon="1.83975">
        <ele>194.32</ele>
        <time>2009-12-05T21:33:47.000Z</time>
      </trkpt>
      <trkpt lat="48.72263" lon="1.83982">
        <ele>193.84</ele>
        <time>2009-12-05T21:33:50.000Z</time>
      </trkpt>
      <trkpt lat="48.72271" lon="1.83986">
        <ele>189.04</ele>
        <time>2009-12-05T21:33:57.000Z</time>
      </trkpt>
      <trkpt lat="48.72281" lon="1.83989">
        <ele>190.96</ele>
        <time>2009-12-05T21:34:02.000Z</time>
      </trkpt>
      <trkpt lat="48.72284" lon="1.8399">
        <ele>189.52</ele>
        <time>2009-12-05T21:34:04.000Z</time>
      </trkpt>
      <trkpt lat="48.72298" lon="1.83989">
        <ele>191.44</ele>
        <time>2009-12-05T21:34:10.000Z</time>
      </trkpt>
      <trkpt lat="48.72311" lon="1.83995">
        <ele>191.92</ele>
        <time>2009-12-05T21:34:15.000Z</time>
      </trkpt>
      <trkpt lat="48.72318" lon="1.83989">
        <ele>189.04</ele>
        <time>2009-12-05T21:34:19.000Z</time>
      </trkpt>
      <trkpt lat="48.72318" lon="1.83987">
        <ele>189.04</ele>
        <time>2009-12-05T21:34:20.000Z</time>
      </trkpt>
      <trkpt lat="48.72331" lon="1.83985">
        <ele>187.11</ele>
        <time>2009-12-05T21:34:27.000Z</time>
      </trkpt>
      <trkpt lat="48.72344" lon="1.83985">
        <ele>181.35</ele>
        <time>2009-12-05T21:34:33.000Z</time>
      </trkpt>
      <trkpt lat="48.72353" lon="1.83984">
        <ele>184.23</ele>
        <time>2009-12-05T21:34:36.000Z</time>
      </trkpt>
      <trkpt lat="48.72356" lon="1.83983">
        <ele>181.35</ele>
        <time>2009-12-05T21:34:38.000Z</time>
      </trkpt>
      <trkpt lat="48.72361" lon="1.83984">
        <ele>181.83</ele>
        <time>2009-12-05T21:34:41.000Z</time>
      </trkpt>
      <trkpt lat="48.7237" lon="1.83983">
        <ele>184.23</ele>
        <time>2009-12-05T21:34:45.000Z</time>
      </trkpt>
      <trkpt lat="48.72385" lon="1.83981">
        <ele>188.08</ele>
        <time>2009-12-05T21:34:51.000Z</time>
      </trkpt>
      <trkpt lat="48.72396" lon="1.83976">
        <ele>185.19</ele>
        <time>2009-12-05T21:34:56.000Z</time>
      </trkpt>
      <trkpt lat="48.72397" lon="1.83975">
        <ele>184.23</ele>
        <time>2009-12-05T21:34:57.000Z</time>
      </trkpt>
      <trkpt lat="48.72412" lon="1.83976">
        <ele>178.46</ele>
        <time>2009-12-05T21:35:04.000Z</time>
      </trkpt>
      <trkpt lat="48.72425" lon="1.83974">
        <ele>183.75</ele>
        <time>2009-12-05T21:35:08.000Z</time>
      </trkpt>
      <trkpt lat="48.72435" lon="1.83973">
        <ele>187.11</ele>
        <time>2009-12-05T21:35:12.000Z</time>
      </trkpt>
      <trkpt lat="48.72453" lon="1.83977">
        <ele>195.77</ele>
        <time>2009-12-05T21:35:18.000Z</time>
      </trkpt>
      <trkpt lat="48.72465" lon="1.83984">
        <ele>201.53</ele>
        <time>2009-12-05T21:35:23.000Z</time>
      </trkpt>
      <trkpt lat="48.7248" lon="1.83993">
        <ele>198.17</ele>
        <time>2009-12-05T21:35:29.000Z</time>
      </trkpt>
      <trkpt lat="48.72488" lon="1.83993">
        <ele>197.21</ele>
        <time>2009-12-05T21:35:32.000Z</time>
      </trkpt>
      <trkpt lat="48.72495" lon="1.83998">
        <ele>196.25</ele>
        <time>2009-12-05T21:35:36.000Z</time>
      </trkpt>
      <trkpt lat="48.72504" lon="1.84001">
        <ele>200.57</ele>
        <time>2009-12-05T21:35:40.000Z</time>
      </trkpt>
      <trkpt lat="48.72517" lon="1.84011">
        <ele>202.01</ele>
        <time>2009-12-05T21:35:46.000Z</time>
      </trkpt>
      <trkpt lat="48.72531" lon="1.84016">
        <ele>195.77</ele>
        <time>2009-12-05T21:35:51.000Z</time>
      </trkpt>
      <trkpt lat="48.72538" lon="1.84026">
        <ele>192.4</ele>
        <time>2009-12-05T21:35:56.000Z</time>
      </trkpt>
      <trkpt lat="48.7254" lon="1.84033">
        <ele>192.4</ele>
        <time>2009-12-05T21:35:59.000Z</time>
      </trkpt>
      <trkpt lat="48.72546" lon="1.84042">
        <ele>190</ele>
        <time>2009-12-05T21:36:04.000Z</time>
      </trkpt>
      <trkpt lat="48.72553" lon="1.8405">
        <ele>191.92</ele>
        <time>2009-12-05T21:36:09.000Z</time>
      </trkpt>
      <trkpt lat="48.72556" lon="1.84054">
        <ele>195.28</ele>
        <time>2009-12-05T21:36:11.000Z</time>
      </trkpt>
      <trkpt lat="48.72563" lon="1.84062">
        <ele>204.42</ele>
        <time>2009-12-05T21:36:16.000Z</time>
      </trkpt>
      <trkpt lat="48.7257" lon="1.84061">
        <ele>206.82</ele>
        <time>2009-12-05T21:36:19.000Z</time>
      </trkpt>
      <trkpt lat="48.72577" lon="1.84061">
        <ele>206.82</ele>
        <time>2009-12-05T21:36:22.000Z</time>
      </trkpt>
      <trkpt lat="48.72586" lon="1.84068">
        <ele>210.19</ele>
        <time>2009-12-05T21:36:27.000Z</time>
      </trkpt>
      <trkpt lat="48.72589" lon="1.84069">
        <ele>210.19</ele>
        <time>2009-12-05T21:36:28.000Z</time>
      </trkpt>
      <trkpt lat="48.72599" lon="1.84077">
        <ele>213.55</ele>
        <time>2009-12-05T21:36:33.000Z</time>
      </trkpt>
      <trkpt lat="48.72611" lon="1.84078">
        <ele>218.36</ele>
        <time>2009-12-05T21:36:37.000Z</time>
      </trkpt>
      <trkpt lat="48.7262" lon="1.84076">
        <ele>220.28</ele>
        <time>2009-12-05T21:36:41.000Z</time>
      </trkpt>
      <trkpt lat="48.7263" lon="1.84074">
        <ele>221.24</ele>
        <time>2009-12-05T21:36:47.000Z</time>
      </trkpt>
      <trkpt lat="48.72639" lon="1.84073">
        <ele>209.7</ele>
        <time>2009-12-05T21:36:51.000Z</time>
      </trkpt>
      <trkpt lat="48.72652" lon="1.84074">
        <ele>204.42</ele>
        <time>2009-12-05T21:36:56.000Z</time>
      </trkpt>
      <trkpt lat="48.7266" lon="1.8408">
        <ele>196.73</ele>
        <time>2009-12-05T21:37:00.000Z</time>
      </trkpt>
      <trkpt lat="48.72667" lon="1.84078">
        <ele>190.96</ele>
        <time>2009-12-05T21:37:04.000Z</time>
      </trkpt>
      <trkpt lat="48.72672" lon="1.84067">
        <ele>186.15</ele>
        <time>2009-12-05T21:37:07.000Z</time>
      </trkpt>
      <trkpt lat="48.72675" lon="1.84063">
        <ele>184.23</ele>
        <time>2009-12-05T21:37:08.000Z</time>
      </trkpt>
      <trkpt lat="48.72683" lon="1.84054">
        <ele>175.1</ele>
        <time>2009-12-05T21:37:14.000Z</time>
      </trkpt>
      <trkpt lat="48.72691" lon="1.84048">
        <ele>173.66</ele>
        <time>2009-12-05T21:37:18.000Z</time>
      </trkpt>
      <trkpt lat="48.72697" lon="1.84044">
        <ele>168.37</ele>
        <time>2009-12-05T21:37:22.000Z</time>
      </trkpt>
      <trkpt lat="48.72717" lon="1.84037">
        <ele>170.77</ele>
        <time>2009-12-05T21:37:29.000Z</time>
      </trkpt>
      <trkpt lat="48.72733" lon="1.84035">
        <ele>173.66</ele>
        <time>2009-12-05T21:37:36.000Z</time>
      </trkpt>
      <trkpt lat="48.72744" lon="1.84029">
        <ele>170.77</ele>
        <time>2009-12-05T21:37:40.000Z</time>
      </trkpt>
      <trkpt lat="48.72753" lon="1.84022">
        <ele>169.33</ele>
        <time>2009-12-05T21:37:44.000Z</time>
      </trkpt>
      <trkpt lat="48.72759" lon="1.8402">
        <ele>168.37</ele>
        <time>2009-12-05T21:37:49.000Z</time>
      </trkpt>
      <trkpt lat="48.72769" lon="1.84012">
        <ele>167.89</ele>
        <time>2009-12-05T21:37:54.000Z</time>
      </trkpt>
      <trkpt lat="48.72785" lon="1.84">
        <ele>166.93</ele>
        <time>2009-12-05T21:38:01.000Z</time>
      </trkpt>
      <trkpt lat="48.72801" lon="1.83986">
        <ele>165</ele>
        <time>2009-12-05T21:38:08.000Z</time>
      </trkpt>
      <trkpt lat="48.72811" lon="1.83977">
        <ele>164.52</ele>
        <time>2009-12-05T21:38:13.000Z</time>
      </trkpt>
      <trkpt lat="48.7282" lon="1.83963">
        <ele>162.6</ele>
        <time>2009-12-05T21:38:20.000Z</time>
      </trkpt>
      <trkpt lat="48.72827" lon="1.83951">
        <ele>159.24</ele>
        <time>2009-12-05T21:38:25.000Z</time>
      </trkpt>
      <trkpt lat="48.72834" lon="1.83947">
        <ele>160.68</ele>
        <time>2009-12-05T21:38:27.000Z</time>
      </trkpt>
      <trkpt lat="48.72845" lon="1.83933">
        <ele>158.27</ele>
        <time>2009-12-05T21:38:33.000Z</time>
      </trkpt>
      <trkpt lat="48.72846" lon="1.8393">
        <ele>158.27</ele>
        <time>2009-12-05T21:38:34.000Z</time>
      </trkpt>
      <trkpt lat="48.7286" lon="1.83917">
        <ele>161.16</ele>
        <time>2009-12-05T21:38:39.000Z</time>
      </trkpt>
      <trkpt lat="48.7287" lon="1.83904">
        <ele>161.64</ele>
        <time>2009-12-05T21:38:45.000Z</time>
      </trkpt>
      <trkpt lat="48.72884" lon="1.83896">
        <ele>164.04</ele>
        <time>2009-12-05T21:38:51.000Z</time>
      </trkpt>
      <trkpt lat="48.72888" lon="1.83893">
        <ele>165</ele>
        <time>2009-12-05T21:38:53.000Z</time>
      </trkpt>
      <trkpt lat="48.72897" lon="1.83882">
        <ele>164.52</ele>
        <time>2009-12-05T21:38:59.000Z</time>
      </trkpt>
      <trkpt lat="48.72898" lon="1.8388">
        <ele>164.52</ele>
        <time>2009-12-05T21:39:00.000Z</time>
      </trkpt>
      <trkpt lat="48.72904" lon="1.83873">
        <ele>164.52</ele>
        <time>2009-12-05T21:39:03.000Z</time>
      </trkpt>
      <trkpt lat="48.72916" lon="1.83852">
        <ele>162.12</ele>
        <time>2009-12-05T21:39:10.000Z</time>
      </trkpt>
      <trkpt lat="48.72922" lon="1.83844">
        <ele>162.6</ele>
        <time>2009-12-05T21:39:13.000Z</time>
      </trkpt>
      <trkpt lat="48.72937" lon="1.83831">
        <ele>162.6</ele>
        <time>2009-12-05T21:39:19.000Z</time>
      </trkpt>
      <trkpt lat="48.72944" lon="1.83818">
        <ele>161.64</ele>
        <time>2009-12-05T21:39:24.000Z</time>
      </trkpt>
      <trkpt lat="48.72951" lon="1.83814">
        <ele>163.56</ele>
        <time>2009-12-05T21:39:27.000Z</time>
      </trkpt>
      <trkpt lat="48.7296" lon="1.83804">
        <ele>164.52</ele>
        <time>2009-12-05T21:39:32.000Z</time>
      </trkpt>
      <trkpt lat="48.72971" lon="1.83796">
        <ele>168.37</ele>
        <time>2009-12-05T21:39:37.000Z</time>
      </trkpt>
      <trkpt lat="48.72973" lon="1.83794">
        <ele>167.89</ele>
        <time>2009-12-05T21:39:38.000Z</time>
      </trkpt>
      <trkpt lat="48.72981" lon="1.83784">
        <ele>170.77</ele>
        <time>2009-12-05T21:39:42.000Z</time>
      </trkpt>
      <trkpt lat="48.72992" lon="1.83782">
        <ele>175.1</ele>
        <time>2009-12-05T21:39:48.000Z</time>
      </trkpt>
      <trkpt lat="48.72992" lon="1.83783">
        <ele>174.62</ele>
        <time>2009-12-05T21:39:49.000Z</time>
      </trkpt>
      <trkpt lat="48.72994" lon="1.83783">
        <ele>175.1</ele>
        <time>2009-12-05T21:39:51.000Z</time>
      </trkpt>
      <trkpt lat="48.73006" lon="1.83776">
        <ele>172.69</ele>
        <time>2009-12-05T21:39:58.000Z</time>
      </trkpt>
      <trkpt lat="48.73014" lon="1.83772">
        <ele>169.81</ele>
        <time>2009-12-05T21:40:02.000Z</time>
      </trkpt>
      <trkpt lat="48.73022" lon="1.8377">
        <ele>168.37</ele>
        <time>2009-12-05T21:40:07.000Z</time>
      </trkpt>
      <trkpt lat="48.7303" lon="1.83765">
        <ele>165.48</ele>
        <time>2009-12-05T21:40:12.000Z</time>
      </trkpt>
      <trkpt lat="48.7304" lon="1.83761">
        <ele>163.08</ele>
        <time>2009-12-05T21:40:17.000Z</time>
      </trkpt>
      <trkpt lat="48.73048" lon="1.83757">
        <ele>162.6</ele>
        <time>2009-12-05T21:40:20.000Z</time>
      </trkpt>
      <trkpt lat="48.73056" lon="1.8375">
        <ele>160.2</ele>
        <time>2009-12-05T21:40:24.000Z</time>
      </trkpt>
      <trkpt lat="48.73074" lon="1.83744">
        <ele>161.64</ele>
        <time>2009-12-05T21:40:31.000Z</time>
      </trkpt>
      <trkpt lat="48.73086" lon="1.83735">
        <ele>161.16</ele>
        <time>2009-12-05T21:40:37.000Z</time>
      </trkpt>
      <trkpt lat="48.73087" lon="1.83734">
        <ele>161.16</ele>
        <time>2009-12-05T21:40:38.000Z</time>
      </trkpt>
      <trkpt lat="48.73097" lon="1.83723">
        <ele>162.12</ele>
        <time>2009-12-05T21:40:45.000Z</time>
      </trkpt>
      <trkpt lat="48.731" lon="1.83721">
        <ele>161.64</ele>
        <time>2009-12-05T21:40:46.000Z</time>
      </trkpt>
      <trkpt lat="48.73119" lon="1.83721">
        <ele>160.68</ele>
        <time>2009-12-05T21:40:52.000Z</time>
      </trkpt>
      <trkpt lat="48.73138" lon="1.83729">
        <ele>162.6</ele>
        <time>2009-12-05T21:40:57.000Z</time>
      </trkpt>
      <trkpt lat="48.73148" lon="1.83729">
        <ele>163.56</ele>
        <time>2009-12-05T21:41:01.000Z</time>
      </trkpt>
      <trkpt lat="48.73159" lon="1.83723">
        <ele>164.04</ele>
        <time>2009-12-05T21:41:05.000Z</time>
      </trkpt>
      <trkpt lat="48.7317" lon="1.83722">
        <ele>169.81</ele>
        <time>2009-12-05T21:41:10.000Z</time>
      </trkpt>
      <trkpt lat="48.73185" lon="1.83727">
        <ele>180.87</ele>
        <time>2009-12-05T21:41:17.000Z</time>
      </trkpt>
      <trkpt lat="48.73192" lon="1.83728">
        <ele>178.46</ele>
        <time>2009-12-05T21:41:20.000Z</time>
      </trkpt>
      <trkpt lat="48.73207" lon="1.83733">
        <ele>180.87</ele>
        <time>2009-12-05T21:41:26.000Z</time>
      </trkpt>
      <trkpt lat="48.73218" lon="1.83733">
        <ele>182.31</ele>
        <time>2009-12-05T21:41:29.000Z</time>
      </trkpt>
      <trkpt lat="48.7323" lon="1.8374">
        <ele>187.59</ele>
        <time>2009-12-05T21:41:34.000Z</time>
      </trkpt>
      <trkpt lat="48.73235" lon="1.83746">
        <ele>190.96</ele>
        <time>2009-12-05T21:41:38.000Z</time>
      </trkpt>
      <trkpt lat="48.73239" lon="1.83751">
        <ele>192.88</ele>
        <time>2009-12-05T21:41:40.000Z</time>
      </trkpt>
      <trkpt lat="48.7325" lon="1.83764">
        <ele>194.8</ele>
        <time>2009-12-05T21:41:46.000Z</time>
      </trkpt>
      <trkpt lat="48.73261" lon="1.83777">
        <ele>196.25</ele>
        <time>2009-12-05T21:41:52.000Z</time>
      </trkpt>
      <trkpt lat="48.7327" lon="1.83787">
        <ele>203.94</ele>
        <time>2009-12-05T21:41:57.000Z</time>
      </trkpt>
      <trkpt lat="48.7328" lon="1.83794">
        <ele>207.78</ele>
        <time>2009-12-05T21:42:02.000Z</time>
      </trkpt>
      <trkpt lat="48.73291" lon="1.83798">
        <ele>211.15</ele>
        <time>2009-12-05T21:42:06.000Z</time>
      </trkpt>
      <trkpt lat="48.73295" lon="1.83801">
        <ele>211.63</ele>
        <time>2009-12-05T21:42:08.000Z</time>
      </trkpt>
      <trkpt lat="48.73305" lon="1.83812">
        <ele>209.22</ele>
        <time>2009-12-05T21:42:13.000Z</time>
      </trkpt>
      <trkpt lat="48.73312" lon="1.83821">
        <ele>205.86</ele>
        <time>2009-12-05T21:42:17.000Z</time>
      </trkpt>
      <trkpt lat="48.73317" lon="1.83828">
        <ele>204.9</ele>
        <time>2009-12-05T21:42:20.000Z</time>
      </trkpt>
      <trkpt lat="48.73328" lon="1.83835">
        <ele>211.63</ele>
        <time>2009-12-05T21:42:24.000Z</time>
      </trkpt>
      <trkpt lat="48.73332" lon="1.83843">
        <ele>211.15</ele>
        <time>2009-12-05T21:42:27.000Z</time>
      </trkpt>
      <trkpt lat="48.73339" lon="1.83863">
        <ele>209.22</ele>
        <time>2009-12-05T21:42:34.000Z</time>
      </trkpt>
      <trkpt lat="48.73348" lon="1.83878">
        <ele>208.26</ele>
        <time>2009-12-05T21:42:39.000Z</time>
      </trkpt>
      <trkpt lat="48.73355" lon="1.83885">
        <ele>210.67</ele>
        <time>2009-12-05T21:42:43.000Z</time>
      </trkpt>
      <trkpt lat="48.73357" lon="1.83888">
        <ele>209.22</ele>
        <time>2009-12-05T21:42:44.000Z</time>
      </trkpt>
      <trkpt lat="48.73364" lon="1.83896">
        <ele>213.55</ele>
        <time>2009-12-05T21:42:48.000Z</time>
      </trkpt>
      <trkpt lat="48.73372" lon="1.83911">
        <ele>214.51</ele>
        <time>2009-12-05T21:42:54.000Z</time>
      </trkpt>
      <trkpt lat="48.73374" lon="1.83917">
        <ele>214.03</ele>
        <time>2009-12-05T21:42:56.000Z</time>
      </trkpt>
      <trkpt lat="48.73375" lon="1.83926">
        <ele>209.7</ele>
        <time>2009-12-05T21:42:58.000Z</time>
      </trkpt>
      <trkpt lat="48.73382" lon="1.83935">
        <ele>203.46</ele>
        <time>2009-12-05T21:43:02.000Z</time>
      </trkpt>
      <trkpt lat="48.73386" lon="1.83938">
        <ele>206.82</ele>
        <time>2009-12-05T21:43:04.000Z</time>
      </trkpt>
      <trkpt lat="48.73395" lon="1.83945">
        <ele>213.55</ele>
        <time>2009-12-05T21:43:08.000Z</time>
      </trkpt>
      <trkpt lat="48.73403" lon="1.83959">
        <ele>219.8</ele>
        <time>2009-12-05T21:43:14.000Z</time>
      </trkpt>
      <trkpt lat="48.73407" lon="1.83966">
        <ele>219.8</ele>
        <time>2009-12-05T21:43:17.000Z</time>
      </trkpt>
      <trkpt lat="48.73416" lon="1.83985">
        <ele>231.81</ele>
        <time>2009-12-05T21:43:24.000Z</time>
      </trkpt>
      <trkpt lat="48.73423" lon="1.83997">
        <ele>235.18</ele>
        <time>2009-12-05T21:43:30.000Z</time>
      </trkpt>
      <trkpt lat="48.73425" lon="1.84004">
        <ele>236.14</ele>
        <time>2009-12-05T21:43:32.000Z</time>
      </trkpt>
      <trkpt lat="48.73432" lon="1.84026">
        <ele>238.54</ele>
        <time>2009-12-05T21:43:39.000Z</time>
      </trkpt>
      <trkpt lat="48.73439" lon="1.84041">
        <ele>239.51</ele>
        <time>2009-12-05T21:43:44.000Z</time>
      </trkpt>
      <trkpt lat="48.73442" lon="1.84046">
        <ele>240.47</ele>
        <time>2009-12-05T21:43:46.000Z</time>
      </trkpt>
      <trkpt lat="48.73451" lon="1.8406">
        <ele>239.99</ele>
        <time>2009-12-05T21:43:51.000Z</time>
      </trkpt>
      <trkpt lat="48.73454" lon="1.84065">
        <ele>241.91</ele>
        <time>2009-12-05T21:43:54.000Z</time>
      </trkpt>
      <trkpt lat="48.73466" lon="1.84082">
        <ele>244.79</ele>
        <time>2009-12-05T21:44:00.000Z</time>
      </trkpt>
      <trkpt lat="48.73476" lon="1.84091">
        <ele>245.27</ele>
        <time>2009-12-05T21:44:05.000Z</time>
      </trkpt>
      <trkpt lat="48.73483" lon="1.84099">
        <ele>243.83</ele>
        <time>2009-12-05T21:44:09.000Z</time>
      </trkpt>
      <trkpt lat="48.73486" lon="1.84108">
        <ele>243.35</ele>
        <time>2009-12-05T21:44:13.000Z</time>
      </trkpt>
      <trkpt lat="48.7349" lon="1.84118">
        <ele>245.75</ele>
        <time>2009-12-05T21:44:17.000Z</time>
      </trkpt>
      <trkpt lat="48.73492" lon="1.84143">
        <ele>239.51</ele>
        <time>2009-12-05T21:44:24.000Z</time>
      </trkpt>
      <trkpt lat="48.73492" lon="1.84169">
        <ele>231.81</ele>
        <time>2009-12-05T21:44:29.000Z</time>
      </trkpt>
      <trkpt lat="48.73495" lon="1.84183">
        <ele>224.61</ele>
        <time>2009-12-05T21:44:33.000Z</time>
      </trkpt>
      <trkpt lat="48.73496" lon="1.84186">
        <ele>225.09</ele>
        <time>2009-12-05T21:44:34.000Z</time>
      </trkpt>
      <trkpt lat="48.73501" lon="1.842">
        <ele>219.8</ele>
        <time>2009-12-05T21:44:39.000Z</time>
      </trkpt>
      <trkpt lat="48.73507" lon="1.84218">
        <ele>218.84</ele>
        <time>2009-12-05T21:44:44.000Z</time>
      </trkpt>
      <trkpt lat="48.73512" lon="1.84227">
        <ele>222.2</ele>
        <time>2009-12-05T21:44:47.000Z</time>
      </trkpt>
      <trkpt lat="48.73517" lon="1.8424">
        <ele>223.16</ele>
        <time>2009-12-05T21:44:52.000Z</time>
      </trkpt>
      <trkpt lat="48.73519" lon="1.84241">
        <ele>223.64</ele>
        <time>2009-12-05T21:44:53.000Z</time>
      </trkpt>
      <trkpt lat="48.73525" lon="1.84251">
        <ele>226.05</ele>
        <time>2009-12-05T21:44:57.000Z</time>
      </trkpt>
      <trkpt lat="48.73531" lon="1.84264">
        <ele>230.37</ele>
        <time>2009-12-05T21:45:01.000Z</time>
      </trkpt>
      <trkpt lat="48.73533" lon="1.84276">
        <ele>228.93</ele>
        <time>2009-12-05T21:45:04.000Z</time>
      </trkpt>
      <trkpt lat="48.73543" lon="1.84291">
        <ele>230.85</ele>
        <time>2009-12-05T21:45:10.000Z</time>
      </trkpt>
      <trkpt lat="48.73553" lon="1.84305">
        <ele>230.37</ele>
        <time>2009-12-05T21:45:15.000Z</time>
      </trkpt>
      <trkpt lat="48.73553" lon="1.84309">
        <ele>230.37</ele>
        <time>2009-12-05T21:45:16.000Z</time>
      </trkpt>
      <trkpt lat="48.7356" lon="1.84321">
        <ele>232.78</ele>
        <time>2009-12-05T21:45:20.000Z</time>
      </trkpt>
      <trkpt lat="48.73562" lon="1.8433">
        <ele>228.93</ele>
        <time>2009-12-05T21:45:23.000Z</time>
      </trkpt>
      <trkpt lat="48.73568" lon="1.84343">
        <ele>227.01</ele>
        <time>2009-12-05T21:45:28.000Z</time>
      </trkpt>
      <trkpt lat="48.73575" lon="1.84347">
        <ele>219.32</ele>
        <time>2009-12-05T21:45:32.000Z</time>
      </trkpt>
      <trkpt lat="48.73576" lon="1.84348">
        <ele>215.95</ele>
        <time>2009-12-05T21:45:33.000Z</time>
      </trkpt>
      <trkpt lat="48.73574" lon="1.84376">
        <ele>198.65</ele>
        <time>2009-12-05T21:45:40.000Z</time>
      </trkpt>
      <trkpt lat="48.73573" lon="1.84383">
        <ele>197.69</ele>
        <time>2009-12-05T21:45:42.000Z</time>
      </trkpt>
      <trkpt lat="48.73575" lon="1.84388">
        <ele>197.21</ele>
        <time>2009-12-05T21:45:44.000Z</time>
      </trkpt>
      <trkpt lat="48.73576" lon="1.84413">
        <ele>193.36</ele>
        <time>2009-12-05T21:45:50.000Z</time>
      </trkpt>
      <trkpt lat="48.73574" lon="1.84423">
        <ele>187.11</ele>
        <time>2009-12-05T21:45:54.000Z</time>
      </trkpt>
      <trkpt lat="48.73571" lon="1.84441">
        <ele>184.23</ele>
        <time>2009-12-05T21:45:59.000Z</time>
      </trkpt>
      <trkpt lat="48.73569" lon="1.84448">
        <ele>180.87</ele>
        <time>2009-12-05T21:46:02.000Z</time>
      </trkpt>
      <trkpt lat="48.73571" lon="1.84463">
        <ele>181.35</ele>
        <time>2009-12-05T21:46:08.000Z</time>
      </trkpt>
      <trkpt lat="48.73572" lon="1.84473">
        <ele>182.31</ele>
        <time>2009-12-05T21:46:12.000Z</time>
      </trkpt>
      <trkpt lat="48.73564" lon="1.84506">
        <ele>179.9</ele>
        <time>2009-12-05T21:46:18.000Z</time>
      </trkpt>
      <trkpt lat="48.73565" lon="1.84517">
        <ele>176.54</ele>
        <time>2009-12-05T21:46:22.000Z</time>
      </trkpt>
      <trkpt lat="48.73566" lon="1.84519">
        <ele>175.58</ele>
        <time>2009-12-05T21:46:23.000Z</time>
      </trkpt>
      <trkpt lat="48.73569" lon="1.84537">
        <ele>172.21</ele>
        <time>2009-12-05T21:46:29.000Z</time>
      </trkpt>
      <trkpt lat="48.73571" lon="1.84554">
        <ele>167.89</ele>
        <time>2009-12-05T21:46:33.000Z</time>
      </trkpt>
      <trkpt lat="48.73571" lon="1.84559">
        <ele>166.45</ele>
        <time>2009-12-05T21:46:34.000Z</time>
      </trkpt>
      <trkpt lat="48.73571" lon="1.84582">
        <ele>163.08</ele>
        <time>2009-12-05T21:46:39.000Z</time>
      </trkpt>
      <trkpt lat="48.7357" lon="1.84593">
        <ele>163.08</ele>
        <time>2009-12-05T21:46:41.000Z</time>
      </trkpt>
      <trkpt lat="48.73573" lon="1.84616">
        <ele>161.64</ele>
        <time>2009-12-05T21:46:46.000Z</time>
      </trkpt>
      <trkpt lat="48.73576" lon="1.84641">
        <ele>161.64</ele>
        <time>2009-12-05T21:46:51.000Z</time>
      </trkpt>
      <trkpt lat="48.73573" lon="1.84672">
        <ele>163.56</ele>
        <time>2009-12-05T21:46:56.000Z</time>
      </trkpt>
      <trkpt lat="48.73571" lon="1.84686">
        <ele>164.04</ele>
        <time>2009-12-05T21:46:59.000Z</time>
      </trkpt>
      <trkpt lat="48.73566" lon="1.84722">
        <ele>165</ele>
        <time>2009-12-05T21:47:06.000Z</time>
      </trkpt>
      <trkpt lat="48.73566" lon="1.84735">
        <ele>165</ele>
        <time>2009-12-05T21:47:10.000Z</time>
      </trkpt>
      <trkpt lat="48.73567" lon="1.84748">
        <ele>164.04</ele>
        <time>2009-12-05T21:47:14.000Z</time>
      </trkpt>
      <trkpt lat="48.73568" lon="1.84754">
        <ele>164.04</ele>
        <time>2009-12-05T21:47:16.000Z</time>
      </trkpt>
      <trkpt lat="48.7357" lon="1.84764">
        <ele>164.52</ele>
        <time>2009-12-05T21:47:21.000Z</time>
      </trkpt>
      <trkpt lat="48.73568" lon="1.84783">
        <ele>162.6</ele>
        <time>2009-12-05T21:47:26.000Z</time>
      </trkpt>
      <trkpt lat="48.73563" lon="1.84805">
        <ele>163.08</ele>
        <time>2009-12-05T21:47:31.000Z</time>
      </trkpt>
      <trkpt lat="48.7356" lon="1.84814">
        <ele>162.6</ele>
        <time>2009-12-05T21:47:33.000Z</time>
      </trkpt>
      <trkpt lat="48.73552" lon="1.8483">
        <ele>162.6</ele>
        <time>2009-12-05T21:47:38.000Z</time>
      </trkpt>
      <trkpt lat="48.73545" lon="1.84847">
        <ele>163.08</ele>
        <time>2009-12-05T21:47:42.000Z</time>
      </trkpt>
      <trkpt lat="48.73539" lon="1.84858">
        <ele>162.12</ele>
        <time>2009-12-05T21:47:45.000Z</time>
      </trkpt>
      <trkpt lat="48.73527" lon="1.84882">
        <ele>164.52</ele>
        <time>2009-12-05T21:47:51.000Z</time>
      </trkpt>
      <trkpt lat="48.73518" lon="1.84899">
        <ele>162.12</ele>
        <time>2009-12-05T21:47:56.000Z</time>
      </trkpt>
      <trkpt lat="48.73512" lon="1.84911">
        <ele>162.12</ele>
        <time>2009-12-05T21:48:00.000Z</time>
      </trkpt>
      <trkpt lat="48.73503" lon="1.84927">
        <ele>160.68</ele>
        <time>2009-12-05T21:48:05.000Z</time>
      </trkpt>
      <trkpt lat="48.73492" lon="1.84945">
        <ele>164.52</ele>
        <time>2009-12-05T21:48:11.000Z</time>
      </trkpt>
      <trkpt lat="48.73484" lon="1.8496">
        <ele>166.45</ele>
        <time>2009-12-05T21:48:16.000Z</time>
      </trkpt>
      <trkpt lat="48.73475" lon="1.84973">
        <ele>168.85</ele>
        <time>2009-12-05T21:48:21.000Z</time>
      </trkpt>
      <trkpt lat="48.73465" lon="1.8499">
        <ele>170.29</ele>
        <time>2009-12-05T21:48:26.000Z</time>
      </trkpt>
      <trkpt lat="48.73457" lon="1.85003">
        <ele>173.17</ele>
        <time>2009-12-05T21:48:31.000Z</time>
      </trkpt>
      <trkpt lat="48.7345" lon="1.85015">
        <ele>171.73</ele>
        <time>2009-12-05T21:48:35.000Z</time>
      </trkpt>
      <trkpt lat="48.73442" lon="1.85033">
        <ele>171.73</ele>
        <time>2009-12-05T21:48:41.000Z</time>
      </trkpt>
      <trkpt lat="48.73433" lon="1.85048">
        <ele>171.73</ele>
        <time>2009-12-05T21:48:45.000Z</time>
      </trkpt>
      <trkpt lat="48.73425" lon="1.85064">
        <ele>169.81</ele>
        <time>2009-12-05T21:48:50.000Z</time>
      </trkpt>
      <trkpt lat="48.73419" lon="1.85079">
        <ele>169.33</ele>
        <time>2009-12-05T21:48:54.000Z</time>
      </trkpt>
      <trkpt lat="48.73413" lon="1.85092">
        <ele>170.77</ele>
        <time>2009-12-05T21:48:58.000Z</time>
      </trkpt>
      <trkpt lat="48.73416" lon="1.85117">
        <ele>169.33</ele>
        <time>2009-12-05T21:49:04.000Z</time>
      </trkpt>
      <trkpt lat="48.7342" lon="1.85132">
        <ele>165.48</ele>
        <time>2009-12-05T21:49:08.000Z</time>
      </trkpt>
      <trkpt lat="48.73427" lon="1.85156">
        <ele>169.81</ele>
        <time>2009-12-05T21:49:15.000Z</time>
      </trkpt>
      <trkpt lat="48.73428" lon="1.85164">
        <ele>170.77</ele>
        <time>2009-12-05T21:49:17.000Z</time>
      </trkpt>
      <trkpt lat="48.73434" lon="1.8518">
        <ele>171.25</ele>
        <time>2009-12-05T21:49:23.000Z</time>
      </trkpt>
      <trkpt lat="48.73437" lon="1.85186">
        <ele>173.66</ele>
        <time>2009-12-05T21:49:25.000Z</time>
      </trkpt>
      <trkpt lat="48.73441" lon="1.85201">
        <ele>177.5</ele>
        <time>2009-12-05T21:49:32.000Z</time>
      </trkpt>
      <trkpt lat="48.73441" lon="1.85212">
        <ele>176.06</ele>
        <time>2009-12-05T21:49:36.000Z</time>
      </trkpt>
      <trkpt lat="48.73441" lon="1.85218">
        <ele>174.14</ele>
        <time>2009-12-05T21:49:38.000Z</time>
      </trkpt>
      <trkpt lat="48.73441" lon="1.85236">
        <ele>169.81</ele>
        <time>2009-12-05T21:49:46.000Z</time>
      </trkpt>
      <trkpt lat="48.73443" lon="1.85244">
        <ele>166.93</ele>
        <time>2009-12-05T21:49:49.000Z</time>
      </trkpt>
      <trkpt lat="48.73444" lon="1.8525">
        <ele>167.89</ele>
        <time>2009-12-05T21:49:52.000Z</time>
      </trkpt>
      <trkpt lat="48.73446" lon="1.85259">
        <ele>166.93</ele>
        <time>2009-12-05T21:49:58.000Z</time>
      </trkpt>
      <trkpt lat="48.73448" lon="1.85268">
        <ele>169.81</ele>
        <time>2009-12-05T21:50:03.000Z</time>
      </trkpt>
      <trkpt lat="48.73449" lon="1.85271">
        <ele>172.21</ele>
        <time>2009-12-05T21:50:06.000Z</time>
      </trkpt>
      <trkpt lat="48.73452" lon="1.85285">
        <ele>178.46</ele>
        <time>2009-12-05T21:50:14.000Z</time>
      </trkpt>
      <trkpt lat="48.73453" lon="1.85289">
        <ele>177.98</ele>
        <time>2009-12-05T21:50:17.000Z</time>
      </trkpt>
      <trkpt lat="48.73457" lon="1.85298">
        <ele>180.87</ele>
        <time>2009-12-05T21:50:22.000Z</time>
      </trkpt>
      <trkpt lat="48.7346" lon="1.85306">
        <ele>179.42</ele>
        <time>2009-12-05T21:50:25.000Z</time>
      </trkpt>
      <trkpt lat="48.73462" lon="1.85312">
        <ele>177.5</ele>
        <time>2009-12-05T21:50:30.000Z</time>
      </trkpt>
      <trkpt lat="48.73469" lon="1.85317">
        <ele>173.17</ele>
        <time>2009-12-05T21:50:38.000Z</time>
      </trkpt>
      <trkpt lat="48.73477" lon="1.85315">
        <ele>170.29</ele>
        <time>2009-12-05T21:50:44.000Z</time>
      </trkpt>
      <trkpt lat="48.73481" lon="1.85315">
        <ele>165</ele>
        <time>2009-12-05T21:50:50.000Z</time>
      </trkpt>
      <trkpt lat="48.73487" lon="1.85312">
        <ele>159.72</ele>
        <time>2009-12-05T21:50:57.000Z</time>
      </trkpt>
      <trkpt lat="48.73488" lon="1.8531">
        <ele>155.87</ele>
        <time>2009-12-05T21:50:59.000Z</time>
      </trkpt>
      <trkpt lat="48.73498" lon="1.85305">
        <ele>154.91</ele>
        <time>2009-12-05T21:51:04.000Z</time>
      </trkpt>
      <trkpt lat="48.73499" lon="1.85304">
        <ele>155.87</ele>
        <time>2009-12-05T21:51:05.000Z</time>
      </trkpt>
      <trkpt lat="48.73506" lon="1.85304">
        <ele>152.03</ele>
        <time>2009-12-05T21:51:09.000Z</time>
      </trkpt>
      <trkpt lat="48.73512" lon="1.85312">
        <ele>150.1</ele>
        <time>2009-12-05T21:51:14.000Z</time>
      </trkpt>
      <trkpt lat="48.7352" lon="1.85317">
        <ele>152.03</ele>
        <time>2009-12-05T21:51:18.000Z</time>
      </trkpt>
      <trkpt lat="48.73521" lon="1.85319">
        <ele>152.51</ele>
        <time>2009-12-05T21:51:19.000Z</time>
      </trkpt>
      <trkpt lat="48.73527" lon="1.85322">
        <ele>155.87</ele>
        <time>2009-12-05T21:51:21.000Z</time>
      </trkpt>
      <trkpt lat="48.7354" lon="1.85333">
        <ele>160.2</ele>
        <time>2009-12-05T21:51:27.000Z</time>
      </trkpt>
      <trkpt lat="48.73556" lon="1.85339">
        <ele>166.93</ele>
        <time>2009-12-05T21:51:34.000Z</time>
      </trkpt>
      <trkpt lat="48.73566" lon="1.85349">
        <ele>170.77</ele>
        <time>2009-12-05T21:51:40.000Z</time>
      </trkpt>
      <trkpt lat="48.73569" lon="1.85354">
        <ele>171.73</ele>
        <time>2009-12-05T21:51:42.000Z</time>
      </trkpt>
      <trkpt lat="48.73576" lon="1.85362">
        <ele>174.14</ele>
        <time>2009-12-05T21:51:45.000Z</time>
      </trkpt>
      <trkpt lat="48.73588" lon="1.85369">
        <ele>174.14</ele>
        <time>2009-12-05T21:51:50.000Z</time>
      </trkpt>
      <trkpt lat="48.73604" lon="1.85377">
        <ele>174.14</ele>
        <time>2009-12-05T21:51:57.000Z</time>
      </trkpt>
      <trkpt lat="48.73615" lon="1.85378">
        <ele>170.77</ele>
        <time>2009-12-05T21:52:02.000Z</time>
      </trkpt>
      <trkpt lat="48.73619" lon="1.85386">
        <ele>171.25</ele>
        <time>2009-12-05T21:52:07.000Z</time>
      </trkpt>
      <trkpt lat="48.73619" lon="1.85388">
        <ele>170.29</ele>
        <time>2009-12-05T21:52:08.000Z</time>
      </trkpt>
      <trkpt lat="48.7362" lon="1.854">
        <ele>163.08</ele>
        <time>2009-12-05T21:52:15.000Z</time>
      </trkpt>
      <trkpt lat="48.73619" lon="1.85402">
        <ele>161.64</ele>
        <time>2009-12-05T21:52:21.000Z</time>
      </trkpt>
      <trkpt lat="48.73614" lon="1.85404">
        <ele>162.6</ele>
        <time>2009-12-05T21:52:28.000Z</time>
      </trkpt>
      <trkpt lat="48.73613" lon="1.85403">
        <ele>163.56</ele>
        <time>2009-12-05T21:52:31.000Z</time>
      </trkpt>
      <trkpt lat="48.7361" lon="1.85406">
        <ele>165</ele>
        <time>2009-12-05T21:52:34.000Z</time>
      </trkpt>
      <trkpt lat="48.73607" lon="1.85409">
        <ele>165</ele>
        <time>2009-12-05T21:52:39.000Z</time>
      </trkpt>
      <trkpt lat="48.73601" lon="1.8541">
        <ele>161.16</ele>
        <time>2009-12-05T21:52:46.000Z</time>
      </trkpt>
      <trkpt lat="48.73598" lon="1.85412">
        <ele>159.24</ele>
        <time>2009-12-05T21:52:49.000Z</time>
      </trkpt>
      <trkpt lat="48.73592" lon="1.85416">
        <ele>161.16</ele>
        <time>2009-12-05T21:52:55.000Z</time>
      </trkpt>
      <trkpt lat="48.73589" lon="1.8542">
        <ele>164.04</ele>
        <time>2009-12-05T21:53:01.000Z</time>
      </trkpt>
      <trkpt lat="48.73588" lon="1.85423">
        <ele>168.37</ele>
        <time>2009-12-05T21:53:04.000Z</time>
      </trkpt>
      <trkpt lat="48.73582" lon="1.85436">
        <ele>168.37</ele>
        <time>2009-12-05T21:53:09.000Z</time>
      </trkpt>
      <trkpt lat="48.73578" lon="1.85442">
        <ele>172.21</ele>
        <time>2009-12-05T21:53:12.000Z</time>
      </trkpt>
      <trkpt lat="48.73565" lon="1.8546">
        <ele>174.62</ele>
        <time>2009-12-05T21:53:18.000Z</time>
      </trkpt>
      <trkpt lat="48.73558" lon="1.85474">
        <ele>175.1</ele>
        <time>2009-12-05T21:53:22.000Z</time>
      </trkpt>
      <trkpt lat="48.73554" lon="1.85481">
        <ele>173.66</ele>
        <time>2009-12-05T21:53:27.000Z</time>
      </trkpt>
      <trkpt lat="48.73552" lon="1.85487">
        <ele>172.21</ele>
        <time>2009-12-05T21:53:35.000Z</time>
      </trkpt>
      <trkpt lat="48.73551" lon="1.85486">
        <ele>167.89</ele>
        <time>2009-12-05T21:53:41.000Z</time>
      </trkpt>
      <trkpt lat="48.73551" lon="1.85486">
        <ele>170.29</ele>
        <time>2009-12-05T21:53:44.000Z</time>
      </trkpt>
      <trkpt lat="48.73544" lon="1.85489">
        <ele>165</ele>
        <time>2009-12-05T21:53:50.000Z</time>
      </trkpt>
      <trkpt lat="48.73543" lon="1.85497">
        <ele>170.77</ele>
        <time>2009-12-05T21:53:56.000Z</time>
      </trkpt>
      <trkpt lat="48.73542" lon="1.85504">
        <ele>172.69</ele>
        <time>2009-12-05T21:54:00.000Z</time>
      </trkpt>
      <trkpt lat="48.73549" lon="1.85514">
        <ele>176.06</ele>
        <time>2009-12-05T21:54:05.000Z</time>
      </trkpt>
      <trkpt lat="48.73552" lon="1.85518">
        <ele>177.5</ele>
        <time>2009-12-05T21:54:07.000Z</time>
      </trkpt>
      <trkpt lat="48.73556" lon="1.85538">
        <ele>184.23</ele>
        <time>2009-12-05T21:54:13.000Z</time>
      </trkpt>
      <trkpt lat="48.73556" lon="1.85541">
        <ele>185.67</ele>
        <time>2009-12-05T21:54:14.000Z</time>
      </trkpt>
      <trkpt lat="48.7355" lon="1.85564">
        <ele>185.67</ele>
        <time>2009-12-05T21:54:21.000Z</time>
      </trkpt>
      <trkpt lat="48.7355" lon="1.85577">
        <ele>186.15</ele>
        <time>2009-12-05T21:54:25.000Z</time>
      </trkpt>
      <trkpt lat="48.73552" lon="1.85592">
        <ele>186.63</ele>
        <time>2009-12-05T21:54:30.000Z</time>
      </trkpt>
      <trkpt lat="48.73552" lon="1.85605">
        <ele>184.71</ele>
        <time>2009-12-05T21:54:36.000Z</time>
      </trkpt>
      <trkpt lat="48.73558" lon="1.85611">
        <ele>184.71</ele>
        <time>2009-12-05T21:54:44.000Z</time>
      </trkpt>
      <trkpt lat="48.73561" lon="1.85609">
        <ele>184.23</ele>
        <time>2009-12-05T21:54:49.000Z</time>
      </trkpt>
      <trkpt lat="48.73566" lon="1.85618">
        <ele>180.87</ele>
        <time>2009-12-05T21:54:54.000Z</time>
      </trkpt>
      <trkpt lat="48.73575" lon="1.8562">
        <ele>176.54</ele>
        <time>2009-12-05T21:54:58.000Z</time>
      </trkpt>
      <trkpt lat="48.73586" lon="1.85616">
        <ele>170.29</ele>
        <time>2009-12-05T21:55:04.000Z</time>
      </trkpt>
      <trkpt lat="48.73588" lon="1.85614">
        <ele>166.45</ele>
        <time>2009-12-05T21:55:06.000Z</time>
      </trkpt>
      <trkpt lat="48.73596" lon="1.85608">
        <ele>159.24</ele>
        <time>2009-12-05T21:55:12.000Z</time>
      </trkpt>
      <trkpt lat="48.73604" lon="1.85613">
        <ele>157.31</ele>
        <time>2009-12-05T21:55:17.000Z</time>
      </trkpt>
      <trkpt lat="48.73611" lon="1.85618">
        <ele>156.83</ele>
        <time>2009-12-05T21:55:20.000Z</time>
      </trkpt>
      <trkpt lat="48.7362" lon="1.85621">
        <ele>156.35</ele>
        <time>2009-12-05T21:55:25.000Z</time>
      </trkpt>
      <trkpt lat="48.73632" lon="1.85629">
        <ele>156.83</ele>
        <time>2009-12-05T21:55:30.000Z</time>
      </trkpt>
      <trkpt lat="48.73642" lon="1.85637">
        <ele>158.75</ele>
        <time>2009-12-05T21:55:35.000Z</time>
      </trkpt>
      <trkpt lat="48.73649" lon="1.85642">
        <ele>159.72</ele>
        <time>2009-12-05T21:55:40.000Z</time>
      </trkpt>
      <trkpt lat="48.73653" lon="1.85644">
        <ele>162.12</ele>
        <time>2009-12-05T21:55:42.000Z</time>
      </trkpt>
      <trkpt lat="48.7366" lon="1.85657">
        <ele>169.81</ele>
        <time>2009-12-05T21:55:48.000Z</time>
      </trkpt>
      <trkpt lat="48.7366" lon="1.85661">
        <ele>170.29</ele>
        <time>2009-12-05T21:55:50.000Z</time>
      </trkpt>
      <trkpt lat="48.73663" lon="1.85674">
        <ele>168.85</ele>
        <time>2009-12-05T21:55:57.000Z</time>
      </trkpt>
      <trkpt lat="48.73663" lon="1.85677">
        <ele>167.89</ele>
        <time>2009-12-05T21:55:59.000Z</time>
      </trkpt>
      <trkpt lat="48.73662" lon="1.85681">
        <ele>167.41</ele>
        <time>2009-12-05T21:56:02.000Z</time>
      </trkpt>
      <trkpt lat="48.73662" lon="1.85689">
        <ele>164.52</ele>
        <time>2009-12-05T21:56:10.000Z</time>
      </trkpt>
      <trkpt lat="48.73661" lon="1.85691">
        <ele>163.56</ele>
        <time>2009-12-05T21:56:11.000Z</time>
      </trkpt>
      <trkpt lat="48.73659" lon="1.85697">
        <ele>164.52</ele>
        <time>2009-12-05T21:56:17.000Z</time>
      </trkpt>
      <trkpt lat="48.73658" lon="1.85699">
        <ele>165</ele>
        <time>2009-12-05T21:56:18.000Z</time>
      </trkpt>
      <trkpt lat="48.73656" lon="1.85708">
        <ele>164.52</ele>
        <time>2009-12-05T21:56:22.000Z</time>
      </trkpt>
      <trkpt lat="48.73655" lon="1.8572">
        <ele>166.93</ele>
        <time>2009-12-05T21:56:28.000Z</time>
      </trkpt>
      <trkpt lat="48.73656" lon="1.85734">
        <ele>166.93</ele>
        <time>2009-12-05T21:56:34.000Z</time>
      </trkpt>
      <trkpt lat="48.73658" lon="1.85741">
        <ele>165</ele>
        <time>2009-12-05T21:56:38.000Z</time>
      </trkpt>
      <trkpt lat="48.73662" lon="1.85756">
        <ele>166.93</ele>
        <time>2009-12-05T21:56:43.000Z</time>
      </trkpt>
      <trkpt lat="48.73674" lon="1.85755">
        <ele>166.93</ele>
        <time>2009-12-05T21:56:47.000Z</time>
      </trkpt>
      <trkpt lat="48.73675" lon="1.85762">
        <ele>164.52</ele>
        <time>2009-12-05T21:56:49.000Z</time>
      </trkpt>
      <trkpt lat="48.7368" lon="1.85769">
        <ele>166.45</ele>
        <time>2009-12-05T21:56:52.000Z</time>
      </trkpt>
      <trkpt lat="48.73689" lon="1.85782">
        <ele>165.48</ele>
        <time>2009-12-05T21:56:58.000Z</time>
      </trkpt>
      <trkpt lat="48.73691" lon="1.85794">
        <ele>168.85</ele>
        <time>2009-12-05T21:57:02.000Z</time>
      </trkpt>
      <trkpt lat="48.73686" lon="1.85807">
        <ele>165.96</ele>
        <time>2009-12-05T21:57:07.000Z</time>
      </trkpt>
      <trkpt lat="48.7368" lon="1.85819">
        <ele>169.81</ele>
        <time>2009-12-05T21:57:12.000Z</time>
      </trkpt>
      <trkpt lat="48.7368" lon="1.85822">
        <ele>170.29</ele>
        <time>2009-12-05T21:57:13.000Z</time>
      </trkpt>
      <trkpt lat="48.7368" lon="1.85829">
        <ele>172.21</ele>
        <time>2009-12-05T21:57:16.000Z</time>
      </trkpt>
      <trkpt lat="48.73688" lon="1.85836">
        <ele>175.58</ele>
        <time>2009-12-05T21:57:21.000Z</time>
      </trkpt>
      <trkpt lat="48.7369" lon="1.85842">
        <ele>175.58</ele>
        <time>2009-12-05T21:57:24.000Z</time>
      </trkpt>
      <trkpt lat="48.73698" lon="1.8585">
        <ele>174.62</ele>
        <time>2009-12-05T21:57:29.000Z</time>
      </trkpt>
      <trkpt lat="48.73704" lon="1.85857">
        <ele>171.73</ele>
        <time>2009-12-05T21:57:33.000Z</time>
      </trkpt>
      <trkpt lat="48.73709" lon="1.8586">
        <ele>169.33</ele>
        <time>2009-12-05T21:57:36.000Z</time>
      </trkpt>
      <trkpt lat="48.73715" lon="1.85868">
        <ele>168.85</ele>
        <time>2009-12-05T21:57:42.000Z</time>
      </trkpt>
      <trkpt lat="48.73716" lon="1.8587">
        <ele>166.93</ele>
        <time>2009-12-05T21:57:43.000Z</time>
      </trkpt>
      <trkpt lat="48.73721" lon="1.85887">
        <ele>166.93</ele>
        <time>2009-12-05T21:57:50.000Z</time>
      </trkpt>
      <trkpt lat="48.73728" lon="1.85897">
        <ele>169.33</ele>
        <time>2009-12-05T21:57:55.000Z</time>
      </trkpt>
      <trkpt lat="48.7373" lon="1.85901">
        <ele>168.37</ele>
        <time>2009-12-05T21:57:57.000Z</time>
      </trkpt>
      <trkpt lat="48.73738" lon="1.85916">
        <ele>169.81</ele>
        <time>2009-12-05T21:58:03.000Z</time>
      </trkpt>
      <trkpt lat="48.73744" lon="1.85924">
        <ele>169.33</ele>
        <time>2009-12-05T21:58:08.000Z</time>
      </trkpt>
      <trkpt lat="48.73747" lon="1.85939">
        <ele>167.89</ele>
        <time>2009-12-05T21:58:13.000Z</time>
      </trkpt>
      <trkpt lat="48.7375" lon="1.85946">
        <ele>164.52</ele>
        <time>2009-12-05T21:58:19.000Z</time>
      </trkpt>
      <trkpt lat="48.73754" lon="1.85948">
        <ele>160.68</ele>
        <time>2009-12-05T21:58:26.000Z</time>
      </trkpt>
      <trkpt lat="48.7376" lon="1.8595">
        <ele>158.27</ele>
        <time>2009-12-05T21:58:32.000Z</time>
      </trkpt>
      <trkpt lat="48.73762" lon="1.85957">
        <ele>156.83</ele>
        <time>2009-12-05T21:58:39.000Z</time>
      </trkpt>
      <trkpt lat="48.73765" lon="1.85957">
        <ele>154.91</ele>
        <time>2009-12-05T21:58:45.000Z</time>
      </trkpt>
      <trkpt lat="48.73769" lon="1.85957">
        <ele>159.72</ele>
        <time>2009-12-05T21:58:51.000Z</time>
      </trkpt>
      <trkpt lat="48.73769" lon="1.85961">
        <ele>163.56</ele>
        <time>2009-12-05T21:58:57.000Z</time>
      </trkpt>
      <trkpt lat="48.73774" lon="1.85963">
        <ele>172.21</ele>
        <time>2009-12-05T21:59:02.000Z</time>
      </trkpt>
      <trkpt lat="48.73776" lon="1.85967">
        <ele>173.66</ele>
        <time>2009-12-05T21:59:07.000Z</time>
      </trkpt>
      <trkpt lat="48.73782" lon="1.85976">
        <ele>171.73</ele>
        <time>2009-12-05T21:59:19.000Z</time>
      </trkpt>
      <trkpt lat="48.73789" lon="1.85977">
        <ele>172.21</ele>
        <time>2009-12-05T21:59:25.000Z</time>
      </trkpt>
      <trkpt lat="48.73795" lon="1.85978">
        <ele>169.81</ele>
        <time>2009-12-05T21:59:33.000Z</time>
      </trkpt>
      <trkpt lat="48.73798" lon="1.85977">
        <ele>168.37</ele>
        <time>2009-12-05T21:59:35.000Z</time>
      </trkpt>
      <trkpt lat="48.73803" lon="1.85975">
        <ele>167.41</ele>
        <time>2009-12-05T21:59:38.000Z</time>
      </trkpt>
      <trkpt lat="48.73808" lon="1.8597">
        <ele>165.48</ele>
        <time>2009-12-05T21:59:44.000Z</time>
      </trkpt>
      <trkpt lat="48.73809" lon="1.85969">
        <ele>165.48</ele>
        <time>2009-12-05T21:59:45.000Z</time>
      </trkpt>
      <trkpt lat="48.73814" lon="1.85959">
        <ele>160.68</ele>
        <time>2009-12-05T21:59:50.000Z</time>
      </trkpt>
      <trkpt lat="48.7382" lon="1.85948">
        <ele>159.24</ele>
        <time>2009-12-05T21:59:55.000Z</time>
      </trkpt>
      <trkpt lat="48.73822" lon="1.85941">
        <ele>160.2</ele>
        <time>2009-12-05T21:59:59.000Z</time>
      </trkpt>
      <trkpt lat="48.73824" lon="1.8594">
        <ele>161.16</ele>
        <time>2009-12-05T22:00:02.000Z</time>
      </trkpt>
      <trkpt lat="48.73826" lon="1.85931">
        <ele>154.43</ele>
        <time>2009-12-05T22:00:07.000Z</time>
      </trkpt>
      <trkpt lat="48.73828" lon="1.85927">
        <ele>153.47</ele>
        <time>2009-12-05T22:00:09.000Z</time>
      </trkpt>
      <trkpt lat="48.73828" lon="1.85915">
        <ele>149.62</ele>
        <time>2009-12-05T22:00:15.000Z</time>
      </trkpt>
      <trkpt lat="48.73828" lon="1.85911">
        <ele>148.18</ele>
        <time>2009-12-05T22:00:17.000Z</time>
      </trkpt>
      <trkpt lat="48.73829" lon="1.85897">
        <ele>144.82</ele>
        <time>2009-12-05T22:00:23.000Z</time>
      </trkpt>
      <trkpt lat="48.73829" lon="1.85888">
        <ele>140.01</ele>
        <time>2009-12-05T22:00:28.000Z</time>
      </trkpt>
      <trkpt lat="48.73829" lon="1.85886">
        <ele>139.05</ele>
        <time>2009-12-05T22:00:29.000Z</time>
      </trkpt>
      <trkpt lat="48.73825" lon="1.85875">
        <ele>135.68</ele>
        <time>2009-12-05T22:00:34.000Z</time>
      </trkpt>
      <trkpt lat="48.73822" lon="1.85866">
        <ele>134.72</ele>
        <time>2009-12-05T22:00:39.000Z</time>
      </trkpt>
      <trkpt lat="48.7382" lon="1.85848">
        <ele>134.72</ele>
        <time>2009-12-05T22:00:45.000Z</time>
      </trkpt>
      <trkpt lat="48.73822" lon="1.85836">
        <ele>131.84</ele>
        <time>2009-12-05T22:00:49.000Z</time>
      </trkpt>
      <trkpt lat="48.73822" lon="1.85825">
        <ele>129.92</ele>
        <time>2009-12-05T22:00:52.000Z</time>
      </trkpt>
      <trkpt lat="48.73822" lon="1.85804">
        <ele>128.47</ele>
        <time>2009-12-05T22:00:58.000Z</time>
      </trkpt>
      <trkpt lat="48.73823" lon="1.85802">
        <ele>126.07</ele>
        <time>2009-12-05T22:00:59.000Z</time>
      </trkpt>
      <trkpt lat="48.73833" lon="1.8579">
        <ele>122.22</ele>
        <time>2009-12-05T22:01:05.000Z</time>
      </trkpt>
      <trkpt lat="48.73838" lon="1.85788">
        <ele>117.9</ele>
        <time>2009-12-05T22:01:10.000Z</time>
      </trkpt>
      <trkpt lat="48.73846" lon="1.8579">
        <ele>112.13</ele>
        <time>2009-12-05T22:01:15.000Z</time>
      </trkpt>
      <trkpt lat="48.73857" lon="1.85793">
        <ele>114.53</ele>
        <time>2009-12-05T22:01:19.000Z</time>
      </trkpt>
      <trkpt lat="48.73864" lon="1.85798">
        <ele>121.26</ele>
        <time>2009-12-05T22:01:24.000Z</time>
      </trkpt>
      <trkpt lat="48.73868" lon="1.85805">
        <ele>133.76</ele>
        <time>2009-12-05T22:01:30.000Z</time>
      </trkpt>
      <trkpt lat="48.73867" lon="1.85816">
        <ele>140.49</ele>
        <time>2009-12-05T22:01:37.000Z</time>
      </trkpt>
      <trkpt lat="48.73869" lon="1.85819">
        <ele>141.45</ele>
        <time>2009-12-05T22:01:40.000Z</time>
      </trkpt>
      <trkpt lat="48.73869" lon="1.85827">
        <ele>139.05</ele>
        <time>2009-12-05T22:01:44.000Z</time>
      </trkpt>
      <trkpt lat="48.73869" lon="1.85828">
        <ele>139.05</ele>
        <time>2009-12-05T22:01:46.000Z</time>
      </trkpt>
      <trkpt lat="48.73867" lon="1.85832">
        <ele>142.89</ele>
        <time>2009-12-05T22:01:52.000Z</time>
      </trkpt>
      <trkpt lat="48.73866" lon="1.85835">
        <ele>143.37</ele>
        <time>2009-12-05T22:01:55.000Z</time>
      </trkpt>
      <trkpt lat="48.73864" lon="1.8584">
        <ele>146.74</ele>
        <time>2009-12-05T22:02:01.000Z</time>
      </trkpt>
      <trkpt lat="48.73866" lon="1.85846">
        <ele>148.18</ele>
        <time>2009-12-05T22:02:04.000Z</time>
      </trkpt>
      <trkpt lat="48.73864" lon="1.85853">
        <ele>151.06</ele>
        <time>2009-12-05T22:02:11.000Z</time>
      </trkpt>
      <trkpt lat="48.73859" lon="1.8586">
        <ele>155.39</ele>
        <time>2009-12-05T22:02:16.000Z</time>
      </trkpt>
      <trkpt lat="48.73864" lon="1.85873">
        <ele>157.31</ele>
        <time>2009-12-05T22:02:26.000Z</time>
      </trkpt>
      <trkpt lat="48.73863" lon="1.85874">
        <ele>157.31</ele>
        <time>2009-12-05T22:02:27.000Z</time>
      </trkpt>
      <trkpt lat="48.73857" lon="1.85887">
        <ele>156.83</ele>
        <time>2009-12-05T22:02:34.000Z</time>
      </trkpt>
      <trkpt lat="48.73855" lon="1.85892">
        <ele>157.31</ele>
        <time>2009-12-05T22:02:36.000Z</time>
      </trkpt>
      <trkpt lat="48.73852" lon="1.85898">
        <ele>159.24</ele>
        <time>2009-12-05T22:02:43.000Z</time>
      </trkpt>
      <trkpt lat="48.73848" lon="1.85908">
        <ele>161.16</ele>
        <time>2009-12-05T22:02:50.000Z</time>
      </trkpt>
      <trkpt lat="48.73846" lon="1.85916">
        <ele>164.04</ele>
        <time>2009-12-05T22:02:56.000Z</time>
      </trkpt>
      <trkpt lat="48.73846" lon="1.85919">
        <ele>167.41</ele>
        <time>2009-12-05T22:03:02.000Z</time>
      </trkpt>
      <trkpt lat="48.73846" lon="1.85926">
        <ele>169.81</ele>
        <time>2009-12-05T22:03:09.000Z</time>
      </trkpt>
      <trkpt lat="48.73849" lon="1.85935">
        <ele>168.85</ele>
        <time>2009-12-05T22:03:15.000Z</time>
      </trkpt>
      <trkpt lat="48.73855" lon="1.85935">
        <ele>169.33</ele>
        <time>2009-12-05T22:03:19.000Z</time>
      </trkpt>
      <trkpt lat="48.73867" lon="1.85938">
        <ele>165.96</ele>
        <time>2009-12-05T22:03:26.000Z</time>
      </trkpt>
      <trkpt lat="48.73874" lon="1.85943">
        <ele>163.08</ele>
        <time>2009-12-05T22:03:31.000Z</time>
      </trkpt>
      <trkpt lat="48.73876" lon="1.85946">
        <ele>162.12</ele>
        <time>2009-12-05T22:03:33.000Z</time>
      </trkpt>
      <trkpt lat="48.73876" lon="1.85949">
        <ele>162.12</ele>
        <time>2009-12-05T22:03:36.000Z</time>
      </trkpt>
      <trkpt lat="48.73879" lon="1.85958">
        <ele>156.83</ele>
        <time>2009-12-05T22:03:45.000Z</time>
      </trkpt>
      <trkpt lat="48.73884" lon="1.85961">
        <ele>151.54</ele>
        <time>2009-12-05T22:03:50.000Z</time>
      </trkpt>
      <trkpt lat="48.73885" lon="1.85965">
        <ele>151.06</ele>
        <time>2009-12-05T22:03:52.000Z</time>
      </trkpt>
      <trkpt lat="48.73889" lon="1.85975">
        <ele>150.1</ele>
        <time>2009-12-05T22:03:57.000Z</time>
      </trkpt>
      <trkpt lat="48.73894" lon="1.85983">
        <ele>147.7</ele>
        <time>2009-12-05T22:04:02.000Z</time>
      </trkpt>
      <trkpt lat="48.73896" lon="1.85988">
        <ele>147.7</ele>
        <time>2009-12-05T22:04:05.000Z</time>
      </trkpt>
      <trkpt lat="48.73898" lon="1.85991">
        <ele>146.26</ele>
        <time>2009-12-05T22:04:07.000Z</time>
      </trkpt>
      <trkpt lat="48.73904" lon="1.86">
        <ele>144.34</ele>
        <time>2009-12-05T22:04:12.000Z</time>
      </trkpt>
      <trkpt lat="48.73904" lon="1.86006">
        <ele>144.82</ele>
        <time>2009-12-05T22:04:16.000Z</time>
      </trkpt>
      <trkpt lat="48.73901" lon="1.86011">
        <ele>144.82</ele>
        <time>2009-12-05T22:04:20.000Z</time>
      </trkpt>
      <trkpt lat="48.73903" lon="1.8602">
        <ele>145.78</ele>
        <time>2009-12-05T22:04:25.000Z</time>
      </trkpt>
      <trkpt lat="48.73903" lon="1.86025">
        <ele>148.18</ele>
        <time>2009-12-05T22:04:29.000Z</time>
      </trkpt>
      <trkpt lat="48.73896" lon="1.86025">
        <ele>146.26</ele>
        <time>2009-12-05T22:04:36.000Z</time>
      </trkpt>
      <trkpt lat="48.7389" lon="1.86024">
        <ele>153.47</ele>
        <time>2009-12-05T22:04:43.000Z</time>
      </trkpt>
      <trkpt lat="48.73886" lon="1.86023">
        <ele>157.31</ele>
        <time>2009-12-05T22:04:49.000Z</time>
      </trkpt>
      <trkpt lat="48.73882" lon="1.86021">
        <ele>164.04</ele>
        <time>2009-12-05T22:04:56.000Z</time>
      </trkpt>
      <trkpt lat="48.73878" lon="1.86024">
        <ele>167.89</ele>
        <time>2009-12-05T22:05:02.000Z</time>
      </trkpt>
      <trkpt lat="48.73878" lon="1.86028">
        <ele>167.41</ele>
        <time>2009-12-05T22:05:08.000Z</time>
      </trkpt>
      <trkpt lat="48.73877" lon="1.86031">
        <ele>164.52</ele>
        <time>2009-12-05T22:05:13.000Z</time>
      </trkpt>
      <trkpt lat="48.73876" lon="1.86031">
        <ele>165</ele>
        <time>2009-12-05T22:05:20.000Z</time>
      </trkpt>
      <trkpt lat="48.73874" lon="1.86034">
        <ele>165.96</ele>
        <time>2009-12-05T22:05:26.000Z</time>
      </trkpt>
      <trkpt lat="48.73872" lon="1.86037">
        <ele>165</ele>
        <time>2009-12-05T22:05:33.000Z</time>
      </trkpt>
      <trkpt lat="48.73872" lon="1.86037">
        <ele>165</ele>
        <time>2009-12-05T22:05:35.000Z</time>
      </trkpt>
      <trkpt lat="48.73868" lon="1.86039">
        <ele>167.89</ele>
        <time>2009-12-05T22:05:42.000Z</time>
      </trkpt>
      <trkpt lat="48.73867" lon="1.8604">
        <ele>167.41</ele>
        <time>2009-12-05T22:05:44.000Z</time>
      </trkpt>
      <trkpt lat="48.73864" lon="1.86041">
        <ele>167.41</ele>
        <time>2009-12-05T22:05:50.000Z</time>
      </trkpt>
      <trkpt lat="48.73863" lon="1.86044">
        <ele>169.81</ele>
        <time>2009-12-05T22:05:53.000Z</time>
      </trkpt>
      <trkpt lat="48.73863" lon="1.86047">
        <ele>168.85</ele>
        <time>2009-12-05T22:05:55.000Z</time>
      </trkpt>
      <trkpt lat="48.73862" lon="1.86056">
        <ele>169.33</ele>
        <time>2009-12-05T22:06:01.000Z</time>
      </trkpt>
      <trkpt lat="48.73862" lon="1.86058">
        <ele>169.33</ele>
        <time>2009-12-05T22:06:02.000Z</time>
      </trkpt>
      <trkpt lat="48.73866" lon="1.8607">
        <ele>172.69</ele>
        <time>2009-12-05T22:06:07.000Z</time>
      </trkpt>
      <trkpt lat="48.73871" lon="1.86085">
        <ele>172.69</ele>
        <time>2009-12-05T22:06:13.000Z</time>
      </trkpt>
      <trkpt lat="48.73876" lon="1.86095">
        <ele>172.69</ele>
        <time>2009-12-05T22:06:17.000Z</time>
      </trkpt>
      <trkpt lat="48.7388" lon="1.86108">
        <ele>169.33</ele>
        <time>2009-12-05T22:06:22.000Z</time>
      </trkpt>
      <trkpt lat="48.73879" lon="1.86121">
        <ele>169.81</ele>
        <time>2009-12-05T22:06:27.000Z</time>
      </trkpt>
      <trkpt lat="48.73884" lon="1.86134">
        <ele>169.33</ele>
        <time>2009-12-05T22:06:32.000Z</time>
      </trkpt>
      <trkpt lat="48.73896" lon="1.86143">
        <ele>165.96</ele>
        <time>2009-12-05T22:06:38.000Z</time>
      </trkpt>
      <trkpt lat="48.7391" lon="1.86149">
        <ele>166.93</ele>
        <time>2009-12-05T22:06:44.000Z</time>
      </trkpt>
      <trkpt lat="48.73924" lon="1.86145">
        <ele>167.89</ele>
        <time>2009-12-05T22:06:50.000Z</time>
      </trkpt>
      <trkpt lat="48.73942" lon="1.86143">
        <ele>169.81</ele>
        <time>2009-12-05T22:06:56.000Z</time>
      </trkpt>
      <trkpt lat="48.73947" lon="1.86144">
        <ele>173.17</ele>
        <time>2009-12-05T22:06:58.000Z</time>
      </trkpt>
      <trkpt lat="48.73957" lon="1.86144">
        <ele>175.58</ele>
        <time>2009-12-05T22:07:02.000Z</time>
      </trkpt>
      <trkpt lat="48.73967" lon="1.86141">
        <ele>173.66</ele>
        <time>2009-12-05T22:07:08.000Z</time>
      </trkpt>
      <trkpt lat="48.73972" lon="1.86144">
        <ele>170.77</ele>
        <time>2009-12-05T22:07:14.000Z</time>
      </trkpt>
      <trkpt lat="48.73978" lon="1.86149">
        <ele>171.25</ele>
        <time>2009-12-05T22:07:19.000Z</time>
      </trkpt>
      <trkpt lat="48.73986" lon="1.86151">
        <ele>173.17</ele>
        <time>2009-12-05T22:07:25.000Z</time>
      </trkpt>
      <trkpt lat="48.73989" lon="1.8615">
        <ele>171.25</ele>
        <time>2009-12-05T22:07:27.000Z</time>
      </trkpt>
      <trkpt lat="48.73992" lon="1.8615">
        <ele>171.73</ele>
        <time>2009-12-05T22:07:29.000Z</time>
      </trkpt>
      <trkpt lat="48.74002" lon="1.86142">
        <ele>166.93</ele>
        <time>2009-12-05T22:07:36.000Z</time>
      </trkpt>
      <trkpt lat="48.74006" lon="1.8614">
        <ele>166.93</ele>
        <time>2009-12-05T22:07:39.000Z</time>
      </trkpt>
      <trkpt lat="48.74007" lon="1.8614">
        <ele>167.89</ele>
        <time>2009-12-05T22:07:41.000Z</time>
      </trkpt>
      <trkpt lat="48.74018" lon="1.86137">
        <ele>165</ele>
        <time>2009-12-05T22:07:48.000Z</time>
      </trkpt>
      <trkpt lat="48.74021" lon="1.86134">
        <ele>161.64</ele>
        <time>2009-12-05T22:07:50.000Z</time>
      </trkpt>
      <trkpt lat="48.74024" lon="1.86129">
        <ele>158.75</ele>
        <time>2009-12-05T22:07:55.000Z</time>
      </trkpt>
      <trkpt lat="48.74026" lon="1.86121">
        <ele>152.51</ele>
        <time>2009-12-05T22:08:00.000Z</time>
      </trkpt>
      <trkpt lat="48.74025" lon="1.8612">
        <ele>151.06</ele>
        <time>2009-12-05T22:08:01.000Z</time>
      </trkpt>
      <trkpt lat="48.74026" lon="1.8611">
        <ele>146.74</ele>
        <time>2009-12-05T22:08:07.000Z</time>
      </trkpt>
      <trkpt lat="48.74029" lon="1.86105">
        <ele>140.49</ele>
        <time>2009-12-05T22:08:11.000Z</time>
      </trkpt>
      <trkpt lat="48.74035" lon="1.86097">
        <ele>135.68</ele>
        <time>2009-12-05T22:08:17.000Z</time>
      </trkpt>
      <trkpt lat="48.74038" lon="1.86094">
        <ele>138.57</ele>
        <time>2009-12-05T22:08:20.000Z</time>
      </trkpt>
      <trkpt lat="48.74043" lon="1.86094">
        <ele>138.09</ele>
        <time>2009-12-05T22:08:23.000Z</time>
      </trkpt>
      <trkpt lat="48.74047" lon="1.86104">
        <ele>136.64</ele>
        <time>2009-12-05T22:08:31.000Z</time>
      </trkpt>
      <trkpt lat="48.74049" lon="1.86115">
        <ele>139.05</ele>
        <time>2009-12-05T22:08:38.000Z</time>
      </trkpt>
      <trkpt lat="48.74053" lon="1.86126">
        <ele>146.26</ele>
        <time>2009-12-05T22:08:46.000Z</time>
      </trkpt>
      <trkpt lat="48.74053" lon="1.86132">
        <ele>152.03</ele>
        <time>2009-12-05T22:08:52.000Z</time>
      </trkpt>
      <trkpt lat="48.74053" lon="1.86139">
        <ele>151.54</ele>
        <time>2009-12-05T22:08:59.000Z</time>
      </trkpt>
      <trkpt lat="48.74052" lon="1.86142">
        <ele>152.03</ele>
        <time>2009-12-05T22:09:03.000Z</time>
      </trkpt>
      <trkpt lat="48.74051" lon="1.86142">
        <ele>152.51</ele>
        <time>2009-12-05T22:09:05.000Z</time>
      </trkpt>
      <trkpt lat="48.74049" lon="1.86147">
        <ele>153.47</ele>
        <time>2009-12-05T22:09:09.000Z</time>
      </trkpt>
      <trkpt lat="48.74048" lon="1.86153">
        <ele>158.27</ele>
        <time>2009-12-05T22:09:15.000Z</time>
      </trkpt>
      <trkpt lat="48.74046" lon="1.8616">
        <ele>158.75</ele>
        <time>2009-12-05T22:09:20.000Z</time>
      </trkpt>
      <trkpt lat="48.74043" lon="1.86169">
        <ele>158.27</ele>
        <time>2009-12-05T22:09:25.000Z</time>
      </trkpt>
      <trkpt lat="48.74043" lon="1.86175">
        <ele>160.68</ele>
        <time>2009-12-05T22:09:31.000Z</time>
      </trkpt>
      <trkpt lat="48.74043" lon="1.86186">
        <ele>158.75</ele>
        <time>2009-12-05T22:09:39.000Z</time>
      </trkpt>
      <trkpt lat="48.74044" lon="1.86191">
        <ele>162.6</ele>
        <time>2009-12-05T22:09:45.000Z</time>
      </trkpt>
      <trkpt lat="48.74045" lon="1.86193">
        <ele>162.6</ele>
        <time>2009-12-05T22:09:47.000Z</time>
      </trkpt>
      <trkpt lat="48.7405" lon="1.86196">
        <ele>164.04</ele>
        <time>2009-12-05T22:09:51.000Z</time>
      </trkpt>
      <trkpt lat="48.74061" lon="1.86203">
        <ele>165</ele>
        <time>2009-12-05T22:09:58.000Z</time>
      </trkpt>
      <trkpt lat="48.74063" lon="1.86206">
        <ele>164.04</ele>
        <time>2009-12-05T22:10:00.000Z</time>
      </trkpt>
      <trkpt lat="48.74072" lon="1.86196">
        <ele>161.64</ele>
        <time>2009-12-05T22:10:06.000Z</time>
      </trkpt>
      <trkpt lat="48.74075" lon="1.86192">
        <ele>159.24</ele>
        <time>2009-12-05T22:10:08.000Z</time>
      </trkpt>
      <trkpt lat="48.74084" lon="1.86192">
        <ele>156.83</ele>
        <time>2009-12-05T22:10:14.000Z</time>
      </trkpt>
      <trkpt lat="48.74086" lon="1.86193">
        <ele>156.35</ele>
        <time>2009-12-05T22:10:15.000Z</time>
      </trkpt>
      <trkpt lat="48.74088" lon="1.86193">
        <ele>156.83</ele>
        <time>2009-12-05T22:10:17.000Z</time>
      </trkpt>
      <trkpt lat="48.74093" lon="1.8619">
        <ele>158.75</ele>
        <time>2009-12-05T22:10:22.000Z</time>
      </trkpt>
      <trkpt lat="48.74097" lon="1.86183">
        <ele>155.39</ele>
        <time>2009-12-05T22:10:28.000Z</time>
      </trkpt>
      <trkpt lat="48.74099" lon="1.86175">
        <ele>153.95</ele>
        <time>2009-12-05T22:10:34.000Z</time>
      </trkpt>
      <trkpt lat="48.74099" lon="1.86169">
        <ele>151.54</ele>
        <time>2009-12-05T22:10:38.000Z</time>
      </trkpt>
      <trkpt lat="48.74099" lon="1.8616">
        <ele>150.58</ele>
        <time>2009-12-05T22:10:44.000Z</time>
      </trkpt>
      <trkpt lat="48.741" lon="1.86151">
        <ele>143.37</ele>
        <time>2009-12-05T22:10:50.000Z</time>
      </trkpt>
      <trkpt lat="48.741" lon="1.86142">
        <ele>138.09</ele>
        <time>2009-12-05T22:10:56.000Z</time>
      </trkpt>
      <trkpt lat="48.741" lon="1.86141">
        <ele>137.61</ele>
        <time>2009-12-05T22:10:57.000Z</time>
      </trkpt>
      <trkpt lat="48.741" lon="1.86134">
        <ele>135.68</ele>
        <time>2009-12-05T22:11:02.000Z</time>
      </trkpt>
      <trkpt lat="48.741" lon="1.86129">
        <ele>133.76</ele>
        <time>2009-12-05T22:11:05.000Z</time>
      </trkpt>
      <trkpt lat="48.74106" lon="1.86127">
        <ele>135.68</ele>
        <time>2009-12-05T22:11:09.000Z</time>
      </trkpt>
      <trkpt lat="48.74109" lon="1.86127">
        <ele>136.16</ele>
        <time>2009-12-05T22:11:11.000Z</time>
      </trkpt>
      <trkpt lat="48.74118" lon="1.86128">
        <ele>134.24</ele>
        <time>2009-12-05T22:11:17.000Z</time>
      </trkpt>
      <trkpt lat="48.74126" lon="1.86135">
        <ele>131.36</ele>
        <time>2009-12-05T22:11:22.000Z</time>
      </trkpt>
      <trkpt lat="48.74131" lon="1.86139">
        <ele>128.47</ele>
        <time>2009-12-05T22:11:25.000Z</time>
      </trkpt>
      <trkpt lat="48.74139" lon="1.86146">
        <ele>136.64</ele>
        <time>2009-12-05T22:11:32.000Z</time>
      </trkpt>
      <trkpt lat="48.74143" lon="1.86152">
        <ele>133.28</ele>
        <time>2009-12-05T22:11:38.000Z</time>
      </trkpt>
      <trkpt lat="48.74149" lon="1.8615">
        <ele>129.92</ele>
        <time>2009-12-05T22:11:43.000Z</time>
      </trkpt>
      <trkpt lat="48.74154" lon="1.86153">
        <ele>127.51</ele>
        <time>2009-12-05T22:11:50.000Z</time>
      </trkpt>
      <trkpt lat="48.74158" lon="1.86158">
        <ele>136.64</ele>
        <time>2009-12-05T22:11:56.000Z</time>
      </trkpt>
      <trkpt lat="48.74165" lon="1.8616">
        <ele>144.34</ele>
        <time>2009-12-05T22:12:08.000Z</time>
      </trkpt>
      <trkpt lat="48.74171" lon="1.86157">
        <ele>151.54</ele>
        <time>2009-12-05T22:12:17.000Z</time>
      </trkpt>
      <trkpt lat="48.74176" lon="1.86153">
        <ele>154.43</ele>
        <time>2009-12-05T22:12:26.000Z</time>
      </trkpt>
      <trkpt lat="48.74179" lon="1.86149">
        <ele>156.35</ele>
        <time>2009-12-05T22:12:30.000Z</time>
      </trkpt>
      <trkpt lat="48.74183" lon="1.86142">
        <ele>154.43</ele>
        <time>2009-12-05T22:12:36.000Z</time>
      </trkpt>
      <trkpt lat="48.74183" lon="1.86133">
        <ele>151.06</ele>
        <time>2009-12-05T22:12:40.000Z</time>
      </trkpt>
      <trkpt lat="48.74185" lon="1.86121">
        <ele>149.14</ele>
        <time>2009-12-05T22:12:45.000Z</time>
      </trkpt>
      <trkpt lat="48.74189" lon="1.86107">
        <ele>140.01</ele>
        <time>2009-12-05T22:12:52.000Z</time>
      </trkpt>
      <trkpt lat="48.7419" lon="1.86105">
        <ele>139.53</ele>
        <time>2009-12-05T22:12:54.000Z</time>
      </trkpt>
      <trkpt lat="48.74194" lon="1.86103">
        <ele>139.53</ele>
        <time>2009-12-05T22:12:57.000Z</time>
      </trkpt>
      <trkpt lat="48.74199" lon="1.86103">
        <ele>134.24</ele>
        <time>2009-12-05T22:13:01.000Z</time>
      </trkpt>
      <trkpt lat="48.74202" lon="1.86104">
        <ele>131.84</ele>
        <time>2009-12-05T22:13:04.000Z</time>
      </trkpt>
      <trkpt lat="48.74212" lon="1.86098">
        <ele>122.71</ele>
        <time>2009-12-05T22:13:09.000Z</time>
      </trkpt>
      <trkpt lat="48.74214" lon="1.86099">
        <ele>127.03</ele>
        <time>2009-12-05T22:13:11.000Z</time>
      </trkpt>
      <trkpt lat="48.74218" lon="1.86103">
        <ele>134.72</ele>
        <time>2009-12-05T22:13:15.000Z</time>
      </trkpt>
      <trkpt lat="48.74217" lon="1.8611">
        <ele>137.13</ele>
        <time>2009-12-05T22:13:20.000Z</time>
      </trkpt>
      <trkpt lat="48.74216" lon="1.86115">
        <ele>142.41</ele>
        <time>2009-12-05T22:13:27.000Z</time>
      </trkpt>
      <trkpt lat="48.74216" lon="1.8612">
        <ele>147.22</ele>
        <time>2009-12-05T22:13:33.000Z</time>
      </trkpt>
      <trkpt lat="48.74217" lon="1.86121">
        <ele>151.06</ele>
        <time>2009-12-05T22:13:38.000Z</time>
      </trkpt>
      <trkpt lat="48.74215" lon="1.86129">
        <ele>159.24</ele>
        <time>2009-12-05T22:13:46.000Z</time>
      </trkpt>
      <trkpt lat="48.74215" lon="1.86134">
        <ele>161.16</ele>
        <time>2009-12-05T22:13:52.000Z</time>
      </trkpt>
      <trkpt lat="48.74215" lon="1.86142">
        <ele>163.56</ele>
        <time>2009-12-05T22:13:58.000Z</time>
      </trkpt>
      <trkpt lat="48.74215" lon="1.86142">
        <ele>163.56</ele>
        <time>2009-12-05T22:13:59.000Z</time>
      </trkpt>
      <trkpt lat="48.74213" lon="1.86152">
        <ele>162.6</ele>
        <time>2009-12-05T22:14:07.000Z</time>
      </trkpt>
      <trkpt lat="48.74212" lon="1.86157">
        <ele>162.6</ele>
        <time>2009-12-05T22:14:11.000Z</time>
      </trkpt>
      <trkpt lat="48.74211" lon="1.86164">
        <ele>163.08</ele>
        <time>2009-12-05T22:14:17.000Z</time>
      </trkpt>
      <trkpt lat="48.74215" lon="1.8617">
        <ele>165.48</ele>
        <time>2009-12-05T22:14:22.000Z</time>
      </trkpt>
      <trkpt lat="48.74226" lon="1.8617">
        <ele>160.68</ele>
        <time>2009-12-05T22:14:30.000Z</time>
      </trkpt>
      <trkpt lat="48.74232" lon="1.86169">
        <ele>154.43</ele>
        <time>2009-12-05T22:14:36.000Z</time>
      </trkpt>
      <trkpt lat="48.74238" lon="1.86171">
        <ele>155.87</ele>
        <time>2009-12-05T22:14:40.000Z</time>
      </trkpt>
      <trkpt lat="48.74239" lon="1.86172">
        <ele>155.39</ele>
        <time>2009-12-05T22:14:41.000Z</time>
      </trkpt>
      <trkpt lat="48.74243" lon="1.86173">
        <ele>161.16</ele>
        <time>2009-12-05T22:14:45.000Z</time>
      </trkpt>
      <trkpt lat="48.74245" lon="1.86179">
        <ele>164.52</ele>
        <time>2009-12-05T22:14:52.000Z</time>
      </trkpt>
      <trkpt lat="48.74249" lon="1.86177">
        <ele>162.6</ele>
        <time>2009-12-05T22:14:55.000Z</time>
      </trkpt>
      <trkpt lat="48.74256" lon="1.86168">
        <ele>161.64</ele>
        <time>2009-12-05T22:14:59.000Z</time>
      </trkpt>
      <trkpt lat="48.74264" lon="1.8615">
        <ele>159.72</ele>
        <time>2009-12-05T22:15:06.000Z</time>
      </trkpt>
      <trkpt lat="48.74267" lon="1.86137">
        <ele>155.87</ele>
        <time>2009-12-05T22:15:10.000Z</time>
      </trkpt>
      <trkpt lat="48.74265" lon="1.86123">
        <ele>153.95</ele>
        <time>2009-12-05T22:15:15.000Z</time>
      </trkpt>
      <trkpt lat="48.74261" lon="1.86116">
        <ele>150.1</ele>
        <time>2009-12-05T22:15:20.000Z</time>
      </trkpt>
      <trkpt lat="48.74259" lon="1.86111">
        <ele>148.18</ele>
        <time>2009-12-05T22:15:23.000Z</time>
      </trkpt>
      <trkpt lat="48.74255" lon="1.86102">
        <ele>148.18</ele>
        <time>2009-12-05T22:15:27.000Z</time>
      </trkpt>
      <trkpt lat="48.7425" lon="1.86086">
        <ele>145.3</ele>
        <time>2009-12-05T22:15:33.000Z</time>
      </trkpt>
      <trkpt lat="48.74246" lon="1.86075">
        <ele>141.93</ele>
        <time>2009-12-05T22:15:38.000Z</time>
      </trkpt>
      <trkpt lat="48.74243" lon="1.86064">
        <ele>139.05</ele>
        <time>2009-12-05T22:15:43.000Z</time>
      </trkpt>
      <trkpt lat="48.7424" lon="1.86053">
        <ele>135.2</ele>
        <time>2009-12-05T22:15:47.000Z</time>
      </trkpt>
      <trkpt lat="48.74239" lon="1.86045">
        <ele>132.32</ele>
        <time>2009-12-05T22:15:50.000Z</time>
      </trkpt>
      <trkpt lat="48.74236" lon="1.86031">
        <ele>127.51</ele>
        <time>2009-12-05T22:15:55.000Z</time>
      </trkpt>
      <trkpt lat="48.74234" lon="1.86023">
        <ele>125.59</ele>
        <time>2009-12-05T22:15:58.000Z</time>
      </trkpt>
      <trkpt lat="48.74237" lon="1.86022">
        <ele>126.07</ele>
        <time>2009-12-05T22:16:00.000Z</time>
      </trkpt>
      <trkpt lat="48.74249" lon="1.86018">
        <ele>120.78</ele>
        <time>2009-12-05T22:16:06.000Z</time>
      </trkpt>
      <trkpt lat="48.7426" lon="1.86014">
        <ele>114.05</ele>
        <time>2009-12-05T22:16:11.000Z</time>
      </trkpt>
      <trkpt lat="48.74261" lon="1.86014">
        <ele>114.05</ele>
        <time>2009-12-05T22:16:12.000Z</time>
      </trkpt>
      <trkpt lat="48.74264" lon="1.86013">
        <ele>111.17</ele>
        <time>2009-12-05T22:16:14.000Z</time>
      </trkpt>
      <trkpt lat="48.74276" lon="1.86008">
        <ele>103</ele>
        <time>2009-12-05T22:16:20.000Z</time>
      </trkpt>
      <trkpt lat="48.74286" lon="1.86004">
        <ele>106.36</ele>
        <time>2009-12-05T22:16:24.000Z</time>
      </trkpt>
      <trkpt lat="48.74289" lon="1.86005">
        <ele>105.88</ele>
        <time>2009-12-05T22:16:26.000Z</time>
      </trkpt>
      <trkpt lat="48.74303" lon="1.86004">
        <ele>107.32</ele>
        <time>2009-12-05T22:16:33.000Z</time>
      </trkpt>
      <trkpt lat="48.74305" lon="1.86004">
        <ele>108.29</ele>
        <time>2009-12-05T22:16:34.000Z</time>
      </trkpt>
      <trkpt lat="48.74314" lon="1.85997">
        <ele>109.73</ele>
        <time>2009-12-05T22:16:38.000Z</time>
      </trkpt>
      <trkpt lat="48.74322" lon="1.85984">
        <ele>115.01</ele>
        <time>2009-12-05T22:16:43.000Z</time>
      </trkpt>
      <trkpt lat="48.74329" lon="1.85974">
        <ele>118.86</ele>
        <time>2009-12-05T22:16:47.000Z</time>
      </trkpt>
      <trkpt lat="48.74335" lon="1.85967">
        <ele>120.3</ele>
        <time>2009-12-05T22:16:50.000Z</time>
      </trkpt>
      <trkpt lat="48.74343" lon="1.85961">
        <ele>118.38</ele>
        <time>2009-12-05T22:16:53.000Z</time>
      </trkpt>
      <trkpt lat="48.74358" lon="1.8595">
        <ele>114.53</ele>
        <time>2009-12-05T22:16:59.000Z</time>
      </trkpt>
      <trkpt lat="48.74367" lon="1.85943">
        <ele>113.57</ele>
        <time>2009-12-05T22:17:03.000Z</time>
      </trkpt>
      <trkpt lat="48.74379" lon="1.85926">
        <ele>122.22</ele>
        <time>2009-12-05T22:17:09.000Z</time>
      </trkpt>
      <trkpt lat="48.74382" lon="1.85922">
        <ele>123.19</ele>
        <time>2009-12-05T22:17:11.000Z</time>
      </trkpt>
      <trkpt lat="48.74389" lon="1.85916">
        <ele>119.34</ele>
        <time>2009-12-05T22:17:16.000Z</time>
      </trkpt>
      <trkpt lat="48.74391" lon="1.85919">
        <ele>118.38</ele>
        <time>2009-12-05T22:17:18.000Z</time>
      </trkpt>
      <trkpt lat="48.74397" lon="1.85925">
        <ele>117.42</ele>
        <time>2009-12-05T22:17:22.000Z</time>
      </trkpt>
      <trkpt lat="48.74401" lon="1.85933">
        <ele>117.9</ele>
        <time>2009-12-05T22:17:29.000Z</time>
      </trkpt>
      <trkpt lat="48.74408" lon="1.85943">
        <ele>121.74</ele>
        <time>2009-12-05T22:17:36.000Z</time>
      </trkpt>
      <trkpt lat="48.74413" lon="1.85952">
        <ele>127.99</ele>
        <time>2009-12-05T22:17:42.000Z</time>
      </trkpt>
      <trkpt lat="48.74416" lon="1.85959">
        <ele>135.2</ele>
        <time>2009-12-05T22:17:48.000Z</time>
      </trkpt>
      <trkpt lat="48.7442" lon="1.85962">
        <ele>136.16</ele>
        <time>2009-12-05T22:17:52.000Z</time>
      </trkpt>
      <trkpt lat="48.74422" lon="1.85965">
        <ele>136.16</ele>
        <time>2009-12-05T22:17:55.000Z</time>
      </trkpt>
      <trkpt lat="48.74424" lon="1.85968">
        <ele>135.2</ele>
        <time>2009-12-05T22:17:58.000Z</time>
      </trkpt>
      <trkpt lat="48.74428" lon="1.85974">
        <ele>138.09</ele>
        <time>2009-12-05T22:18:02.000Z</time>
      </trkpt>
      <trkpt lat="48.74434" lon="1.85972">
        <ele>139.05</ele>
        <time>2009-12-05T22:18:07.000Z</time>
      </trkpt>
      <trkpt lat="48.74438" lon="1.85962">
        <ele>138.57</ele>
        <time>2009-12-05T22:18:10.000Z</time>
      </trkpt>
      <trkpt lat="48.74442" lon="1.8594">
        <ele>139.53</ele>
        <time>2009-12-05T22:18:16.000Z</time>
      </trkpt>
      <trkpt lat="48.74444" lon="1.85923">
        <ele>136.64</ele>
        <time>2009-12-05T22:18:21.000Z</time>
      </trkpt>
      <trkpt lat="48.7445" lon="1.8591">
        <ele>131.36</ele>
        <time>2009-12-05T22:18:26.000Z</time>
      </trkpt>
      <trkpt lat="48.74451" lon="1.85907">
        <ele>131.36</ele>
        <time>2009-12-05T22:18:27.000Z</time>
      </trkpt>
      <trkpt lat="48.74454" lon="1.85895">
        <ele>134.72</ele>
        <time>2009-12-05T22:18:30.000Z</time>
      </trkpt>
      <trkpt lat="48.74459" lon="1.8588">
        <ele>136.64</ele>
        <time>2009-12-05T22:18:35.000Z</time>
      </trkpt>
      <trkpt lat="48.74462" lon="1.85874">
        <ele>136.64</ele>
        <time>2009-12-05T22:18:38.000Z</time>
      </trkpt>
      <trkpt lat="48.74463" lon="1.85869">
        <ele>135.68</ele>
        <time>2009-12-05T22:18:40.000Z</time>
      </trkpt>
      <trkpt lat="48.74467" lon="1.85864">
        <ele>134.72</ele>
        <time>2009-12-05T22:18:43.000Z</time>
      </trkpt>
      <trkpt lat="48.74474" lon="1.85857">
        <ele>129.43</ele>
        <time>2009-12-05T22:18:47.000Z</time>
      </trkpt>
      <trkpt lat="48.7448" lon="1.85847">
        <ele>126.07</ele>
        <time>2009-12-05T22:18:53.000Z</time>
      </trkpt>
      <trkpt lat="48.74483" lon="1.85845">
        <ele>125.11</ele>
        <time>2009-12-05T22:18:55.000Z</time>
      </trkpt>
      <trkpt lat="48.74492" lon="1.85839">
        <ele>122.71</ele>
        <time>2009-12-05T22:19:01.000Z</time>
      </trkpt>
      <trkpt lat="48.74501" lon="1.85851">
        <ele>118.86</ele>
        <time>2009-12-05T22:19:08.000Z</time>
      </trkpt>
      <trkpt lat="48.74503" lon="1.85853">
        <ele>118.86</ele>
        <time>2009-12-05T22:19:09.000Z</time>
      </trkpt>
      <trkpt lat="48.74517" lon="1.85863">
        <ele>119.34</ele>
        <time>2009-12-05T22:19:16.000Z</time>
      </trkpt>
      <trkpt lat="48.74529" lon="1.85865">
        <ele>117.42</ele>
        <time>2009-12-05T22:19:22.000Z</time>
      </trkpt>
      <trkpt lat="48.74537" lon="1.85866">
        <ele>116.46</ele>
        <time>2009-12-05T22:19:28.000Z</time>
      </trkpt>
      <trkpt lat="48.74543" lon="1.85861">
        <ele>120.3</ele>
        <time>2009-12-05T22:19:32.000Z</time>
      </trkpt>
      <trkpt lat="48.74546" lon="1.8586">
        <ele>120.3</ele>
        <time>2009-12-05T22:19:34.000Z</time>
      </trkpt>
      <trkpt lat="48.74554" lon="1.85853">
        <ele>117.42</ele>
        <time>2009-12-05T22:19:38.000Z</time>
      </trkpt>
      <trkpt lat="48.74556" lon="1.85852">
        <ele>117.9</ele>
        <time>2009-12-05T22:19:41.000Z</time>
      </trkpt>
      <trkpt lat="48.74566" lon="1.85853">
        <ele>115.5</ele>
        <time>2009-12-05T22:19:46.000Z</time>
      </trkpt>
      <trkpt lat="48.74569" lon="1.85854">
        <ele>115.5</ele>
        <time>2009-12-05T22:19:48.000Z</time>
      </trkpt>
      <trkpt lat="48.7458" lon="1.85859">
        <ele>112.13</ele>
        <time>2009-12-05T22:19:53.000Z</time>
      </trkpt>
      <trkpt lat="48.74588" lon="1.85867">
        <ele>108.77</ele>
        <time>2009-12-05T22:19:57.000Z</time>
      </trkpt>
      <trkpt lat="48.74594" lon="1.85883">
        <ele>113.09</ele>
        <time>2009-12-05T22:20:02.000Z</time>
      </trkpt>
      <trkpt lat="48.74603" lon="1.859">
        <ele>122.71</ele>
        <time>2009-12-05T22:20:07.000Z</time>
      </trkpt>
      <trkpt lat="48.74604" lon="1.85903">
        <ele>123.67</ele>
        <time>2009-12-05T22:20:08.000Z</time>
      </trkpt>
      <trkpt lat="48.74607" lon="1.85907">
        <ele>124.15</ele>
        <time>2009-12-05T22:20:10.000Z</time>
      </trkpt>
      <trkpt lat="48.74614" lon="1.8592">
        <ele>122.71</ele>
        <time>2009-12-05T22:20:16.000Z</time>
      </trkpt>
      <trkpt lat="48.74617" lon="1.85933">
        <ele>120.3</ele>
        <time>2009-12-05T22:20:21.000Z</time>
      </trkpt>
      <trkpt lat="48.74619" lon="1.85946">
        <ele>120.78</ele>
        <time>2009-12-05T22:20:25.000Z</time>
      </trkpt>
      <trkpt lat="48.74625" lon="1.85954">
        <ele>118.38</ele>
        <time>2009-12-05T22:20:30.000Z</time>
      </trkpt>
      <trkpt lat="48.74631" lon="1.85962">
        <ele>116.94</ele>
        <time>2009-12-05T22:20:35.000Z</time>
      </trkpt>
      <trkpt lat="48.7464" lon="1.85967">
        <ele>114.53</ele>
        <time>2009-12-05T22:20:41.000Z</time>
      </trkpt>
      <trkpt lat="48.74646" lon="1.85972">
        <ele>112.13</ele>
        <time>2009-12-05T22:20:45.000Z</time>
      </trkpt>
      <trkpt lat="48.74658" lon="1.85964">
        <ele>108.77</ele>
        <time>2009-12-05T22:20:52.000Z</time>
      </trkpt>
      <trkpt lat="48.74665" lon="1.85962">
        <ele>108.29</ele>
        <time>2009-12-05T22:20:56.000Z</time>
      </trkpt>
      <trkpt lat="48.74672" lon="1.8596">
        <ele>111.17</ele>
        <time>2009-12-05T22:21:02.000Z</time>
      </trkpt>
      <trkpt lat="48.74678" lon="1.85953">
        <ele>111.17</ele>
        <time>2009-12-05T22:21:08.000Z</time>
      </trkpt>
      <trkpt lat="48.74686" lon="1.85952">
        <ele>107.32</ele>
        <time>2009-12-05T22:21:13.000Z</time>
      </trkpt>
      <trkpt lat="48.74692" lon="1.85951">
        <ele>116.46</ele>
        <time>2009-12-05T22:21:21.000Z</time>
      </trkpt>
      <trkpt lat="48.74696" lon="1.85941">
        <ele>129.43</ele>
        <time>2009-12-05T22:21:39.000Z</time>
      </trkpt>
      <trkpt lat="48.74706" lon="1.85954">
        <ele>123.67</ele>
        <time>2009-12-05T22:21:45.000Z</time>
      </trkpt>
      <trkpt lat="48.74718" lon="1.85964">
        <ele>122.22</ele>
        <time>2009-12-05T22:21:50.000Z</time>
      </trkpt>
      <trkpt lat="48.7472" lon="1.85965">
        <ele>121.74</ele>
        <time>2009-12-05T22:21:51.000Z</time>
      </trkpt>
      <trkpt lat="48.74727" lon="1.85954">
        <ele>121.26</ele>
        <time>2009-12-05T22:21:55.000Z</time>
      </trkpt>
      <trkpt lat="48.74728" lon="1.85951">
        <ele>120.78</ele>
        <time>2009-12-05T22:21:56.000Z</time>
      </trkpt>
      <trkpt lat="48.7473" lon="1.85937">
        <ele>117.42</ele>
        <time>2009-12-05T22:22:00.000Z</time>
      </trkpt>
      <trkpt lat="48.74733" lon="1.8592">
        <ele>117.9</ele>
        <time>2009-12-05T22:22:06.000Z</time>
      </trkpt>
      <trkpt lat="48.74733" lon="1.85904">
        <ele>118.38</ele>
        <time>2009-12-05T22:22:11.000Z</time>
      </trkpt>
      <trkpt lat="48.74736" lon="1.85891">
        <ele>113.09</ele>
        <time>2009-12-05T22:22:15.000Z</time>
      </trkpt>
      <trkpt lat="48.74738" lon="1.85875">
        <ele>113.57</ele>
        <time>2009-12-05T22:22:20.000Z</time>
      </trkpt>
      <trkpt lat="48.74738" lon="1.85872">
        <ele>113.57</ele>
        <time>2009-12-05T22:22:21.000Z</time>
      </trkpt>
      <trkpt lat="48.7474" lon="1.85856">
        <ele>115.01</ele>
        <time>2009-12-05T22:22:26.000Z</time>
      </trkpt>
      <trkpt lat="48.74739" lon="1.85829">
        <ele>121.26</ele>
        <time>2009-12-05T22:22:34.000Z</time>
      </trkpt>
      <trkpt lat="48.74743" lon="1.85814">
        <ele>118.86</ele>
        <time>2009-12-05T22:22:39.000Z</time>
      </trkpt>
      <trkpt lat="48.74746" lon="1.85799">
        <ele>116.46</ele>
        <time>2009-12-05T22:22:43.000Z</time>
      </trkpt>
      <trkpt lat="48.74749" lon="1.85781">
        <ele>115.98</ele>
        <time>2009-12-05T22:22:49.000Z</time>
      </trkpt>
      <trkpt lat="48.74752" lon="1.8577">
        <ele>115.98</ele>
        <time>2009-12-05T22:22:53.000Z</time>
      </trkpt>
      <trkpt lat="48.74757" lon="1.85772">
        <ele>121.74</ele>
        <time>2009-12-05T22:22:58.000Z</time>
      </trkpt>
      <trkpt lat="48.74765" lon="1.85775">
        <ele>122.71</ele>
        <time>2009-12-05T22:23:04.000Z</time>
      </trkpt>
      <trkpt lat="48.7477" lon="1.85774">
        <ele>123.19</ele>
        <time>2009-12-05T22:23:08.000Z</time>
      </trkpt>
      <trkpt lat="48.74775" lon="1.85771">
        <ele>123.19</ele>
        <time>2009-12-05T22:23:12.000Z</time>
      </trkpt>
      <trkpt lat="48.74777" lon="1.85771">
        <ele>122.71</ele>
        <time>2009-12-05T22:23:13.000Z</time>
      </trkpt>
      <trkpt lat="48.74786" lon="1.8577">
        <ele>121.26</ele>
        <time>2009-12-05T22:23:17.000Z</time>
      </trkpt>
      <trkpt lat="48.74798" lon="1.85776">
        <ele>132.8</ele>
        <time>2009-12-05T22:23:23.000Z</time>
      </trkpt>
      <trkpt lat="48.74808" lon="1.85777">
        <ele>135.68</ele>
        <time>2009-12-05T22:23:28.000Z</time>
      </trkpt>
      <trkpt lat="48.7481" lon="1.85777">
        <ele>135.68</ele>
        <time>2009-12-05T22:23:29.000Z</time>
      </trkpt>
      <trkpt lat="48.7482" lon="1.8577">
        <ele>132.32</ele>
        <time>2009-12-05T22:23:34.000Z</time>
      </trkpt>
      <trkpt lat="48.74828" lon="1.85761">
        <ele>133.28</ele>
        <time>2009-12-05T22:23:39.000Z</time>
      </trkpt>
      <trkpt lat="48.74831" lon="1.85759">
        <ele>131.84</ele>
        <time>2009-12-05T22:23:41.000Z</time>
      </trkpt>
      <trkpt lat="48.74837" lon="1.85756">
        <ele>132.8</ele>
        <time>2009-12-05T22:23:45.000Z</time>
      </trkpt>
      <trkpt lat="48.74849" lon="1.85753">
        <ele>130.4</ele>
        <time>2009-12-05T22:23:51.000Z</time>
      </trkpt>
      <trkpt lat="48.74861" lon="1.8575">
        <ele>126.07</ele>
        <time>2009-12-05T22:23:56.000Z</time>
      </trkpt>
      <trkpt lat="48.74867" lon="1.85748">
        <ele>125.11</ele>
        <time>2009-12-05T22:23:59.000Z</time>
      </trkpt>
      <trkpt lat="48.7488" lon="1.85742">
        <ele>124.15</ele>
        <time>2009-12-05T22:24:04.000Z</time>
      </trkpt>
      <trkpt lat="48.74885" lon="1.8574">
        <ele>123.19</ele>
        <time>2009-12-05T22:24:06.000Z</time>
      </trkpt>
      <trkpt lat="48.74893" lon="1.85739">
        <ele>119.82</ele>
        <time>2009-12-05T22:24:10.000Z</time>
      </trkpt>
      <trkpt lat="48.74903" lon="1.85737">
        <ele>119.34</ele>
        <time>2009-12-05T22:24:14.000Z</time>
      </trkpt>
      <trkpt lat="48.74911" lon="1.85734">
        <ele>116.46</ele>
        <time>2009-12-05T22:24:19.000Z</time>
      </trkpt>
      <trkpt lat="48.74918" lon="1.8573">
        <ele>114.05</ele>
        <time>2009-12-05T22:24:22.000Z</time>
      </trkpt>
      <trkpt lat="48.74921" lon="1.8573">
        <ele>112.61</ele>
        <time>2009-12-05T22:24:24.000Z</time>
      </trkpt>
      <trkpt lat="48.74925" lon="1.85728">
        <ele>112.61</ele>
        <time>2009-12-05T22:24:27.000Z</time>
      </trkpt>
      <trkpt lat="48.74933" lon="1.85728">
        <ele>110.69</ele>
        <time>2009-12-05T22:24:33.000Z</time>
      </trkpt>
      <trkpt lat="48.74934" lon="1.85728">
        <ele>109.73</ele>
        <time>2009-12-05T22:24:34.000Z</time>
      </trkpt>
      <trkpt lat="48.74942" lon="1.85719">
        <ele>108.77</ele>
        <time>2009-12-05T22:24:39.000Z</time>
      </trkpt>
      <trkpt lat="48.74952" lon="1.85715">
        <ele>111.17</ele>
        <time>2009-12-05T22:24:45.000Z</time>
      </trkpt>
      <trkpt lat="48.74955" lon="1.85711">
        <ele>114.53</ele>
        <time>2009-12-05T22:24:50.000Z</time>
      </trkpt>
      <trkpt lat="48.74957" lon="1.85708">
        <ele>114.53</ele>
        <time>2009-12-05T22:24:52.000Z</time>
      </trkpt>
      <trkpt lat="48.74957" lon="1.85701">
        <ele>115.5</ele>
        <time>2009-12-05T22:24:58.000Z</time>
      </trkpt>
      <trkpt lat="48.74957" lon="1.85698">
        <ele>115.98</ele>
        <time>2009-12-05T22:25:01.000Z</time>
      </trkpt>
      <trkpt lat="48.74961" lon="1.85685">
        <ele>117.42</ele>
        <time>2009-12-05T22:25:08.000Z</time>
      </trkpt>
      <trkpt lat="48.74964" lon="1.85681">
        <ele>117.9</ele>
        <time>2009-12-05T22:25:16.000Z</time>
      </trkpt>
      <trkpt lat="48.74967" lon="1.85682">
        <ele>115.98</ele>
        <time>2009-12-05T22:25:20.000Z</time>
      </trkpt>
      <trkpt lat="48.74969" lon="1.85682">
        <ele>114.05</ele>
        <time>2009-12-05T22:25:22.000Z</time>
      </trkpt>
      <trkpt lat="48.74977" lon="1.85681">
        <ele>111.65</ele>
        <time>2009-12-05T22:25:27.000Z</time>
      </trkpt>
      <trkpt lat="48.74978" lon="1.8568">
        <ele>111.65</ele>
        <time>2009-12-05T22:25:28.000Z</time>
      </trkpt>
      <trkpt lat="48.74982" lon="1.85683">
        <ele>110.69</ele>
        <time>2009-12-05T22:25:32.000Z</time>
      </trkpt>
      <trkpt lat="48.74989" lon="1.85684">
        <ele>106.36</ele>
        <time>2009-12-05T22:25:38.000Z</time>
      </trkpt>
      <trkpt lat="48.74995" lon="1.85683">
        <ele>111.17</ele>
        <time>2009-12-05T22:25:42.000Z</time>
      </trkpt>
      <trkpt lat="48.74998" lon="1.85685">
        <ele>112.61</ele>
        <time>2009-12-05T22:25:46.000Z</time>
      </trkpt>
      <trkpt lat="48.75005" lon="1.85688">
        <ele>113.09</ele>
        <time>2009-12-05T22:25:51.000Z</time>
      </trkpt>
      <trkpt lat="48.75012" lon="1.85688">
        <ele>111.65</ele>
        <time>2009-12-05T22:25:56.000Z</time>
      </trkpt>
      <trkpt lat="48.75013" lon="1.85688">
        <ele>110.69</ele>
        <time>2009-12-05T22:25:57.000Z</time>
      </trkpt>
      <trkpt lat="48.75016" lon="1.85687">
        <ele>111.17</ele>
        <time>2009-12-05T22:25:59.000Z</time>
      </trkpt>
      <trkpt lat="48.75026" lon="1.85687">
        <ele>117.9</ele>
        <time>2009-12-05T22:26:05.000Z</time>
      </trkpt>
      <trkpt lat="48.75028" lon="1.85688">
        <ele>117.9</ele>
        <time>2009-12-05T22:26:06.000Z</time>
      </trkpt>
      <trkpt lat="48.7503" lon="1.85688">
        <ele>116.94</ele>
        <time>2009-12-05T22:26:08.000Z</time>
      </trkpt>
      <trkpt lat="48.75042" lon="1.8569">
        <ele>110.21</ele>
        <time>2009-12-05T22:26:16.000Z</time>
      </trkpt>
      <trkpt lat="48.75046" lon="1.85693">
        <ele>108.29</ele>
        <time>2009-12-05T22:26:20.000Z</time>
      </trkpt>
      <trkpt lat="48.75056" lon="1.85694">
        <ele>103.96</ele>
        <time>2009-12-05T22:26:26.000Z</time>
      </trkpt>
      <trkpt lat="48.75061" lon="1.85692">
        <ele>102.52</ele>
        <time>2009-12-05T22:26:29.000Z</time>
      </trkpt>
      <trkpt lat="48.75075" lon="1.85692">
        <ele>101.56</ele>
        <time>2009-12-05T22:26:35.000Z</time>
      </trkpt>
      <trkpt lat="48.75082" lon="1.85693">
        <ele>101.08</ele>
        <time>2009-12-05T22:26:39.000Z</time>
      </trkpt>
      <trkpt lat="48.75093" lon="1.85684">
        <ele>98.67</ele>
        <time>2009-12-05T22:26:44.000Z</time>
      </trkpt>
      <trkpt lat="48.75102" lon="1.85683">
        <ele>100.11</ele>
        <time>2009-12-05T22:26:48.000Z</time>
      </trkpt>
      <trkpt lat="48.75114" lon="1.8568">
        <ele>99.63</ele>
        <time>2009-12-05T22:26:53.000Z</time>
      </trkpt>
      <trkpt lat="48.75118" lon="1.85679">
        <ele>98.19</ele>
        <time>2009-12-05T22:26:55.000Z</time>
      </trkpt>
      <trkpt lat="48.7513" lon="1.85677">
        <ele>94.83</ele>
        <time>2009-12-05T22:27:01.000Z</time>
      </trkpt>
      <trkpt lat="48.75141" lon="1.85675">
        <ele>95.79</ele>
        <time>2009-12-05T22:27:05.000Z</time>
      </trkpt>
      <trkpt lat="48.75153" lon="1.85676">
        <ele>102.04</ele>
        <time>2009-12-05T22:27:11.000Z</time>
      </trkpt>
      <trkpt lat="48.75163" lon="1.85671">
        <ele>100.6</ele>
        <time>2009-12-05T22:27:17.000Z</time>
      </trkpt>
      <trkpt lat="48.75166" lon="1.85671">
        <ele>101.08</ele>
        <time>2009-12-05T22:27:20.000Z</time>
      </trkpt>
      <trkpt lat="48.75176" lon="1.85667">
        <ele>98.67</ele>
        <time>2009-12-05T22:27:25.000Z</time>
      </trkpt>
      <trkpt lat="48.7519" lon="1.85657">
        <ele>96.27</ele>
        <time>2009-12-05T22:27:31.000Z</time>
      </trkpt>
      <trkpt lat="48.75196" lon="1.85654">
        <ele>95.31</ele>
        <time>2009-12-05T22:27:34.000Z</time>
      </trkpt>
      <trkpt lat="48.75209" lon="1.85648">
        <ele>103</ele>
        <time>2009-12-05T22:27:39.000Z</time>
      </trkpt>
      <trkpt lat="48.75221" lon="1.85634">
        <ele>114.05</ele>
        <time>2009-12-05T22:27:46.000Z</time>
      </trkpt>
      <trkpt lat="48.75222" lon="1.85633">
        <ele>115.98</ele>
        <time>2009-12-05T22:27:47.000Z</time>
      </trkpt>
      <trkpt lat="48.7523" lon="1.85622">
        <ele>121.26</ele>
        <time>2009-12-05T22:27:53.000Z</time>
      </trkpt>
      <trkpt lat="48.75232" lon="1.85619">
        <ele>119.82</ele>
        <time>2009-12-05T22:27:54.000Z</time>
      </trkpt>
      <trkpt lat="48.75238" lon="1.85608">
        <ele>121.26</ele>
        <time>2009-12-05T22:28:00.000Z</time>
      </trkpt>
      <trkpt lat="48.75239" lon="1.85605">
        <ele>121.26</ele>
        <time>2009-12-05T22:28:01.000Z</time>
      </trkpt>
      <trkpt lat="48.75239" lon="1.85597">
        <ele>123.67</ele>
        <time>2009-12-05T22:28:04.000Z</time>
      </trkpt>
      <trkpt lat="48.75241" lon="1.85588">
        <ele>122.71</ele>
        <time>2009-12-05T22:28:08.000Z</time>
      </trkpt>
      <trkpt lat="48.75243" lon="1.85584">
        <ele>124.15</ele>
        <time>2009-12-05T22:28:10.000Z</time>
      </trkpt>
      <trkpt lat="48.75244" lon="1.85571">
        <ele>125.11</ele>
        <time>2009-12-05T22:28:16.000Z</time>
      </trkpt>
      <trkpt lat="48.75243" lon="1.85563">
        <ele>127.99</ele>
        <time>2009-12-05T22:28:20.000Z</time>
      </trkpt>
      <trkpt lat="48.75243" lon="1.85545">
        <ele>126.07</ele>
        <time>2009-12-05T22:28:26.000Z</time>
      </trkpt>
      <trkpt lat="48.75242" lon="1.85528">
        <ele>125.11</ele>
        <time>2009-12-05T22:28:32.000Z</time>
      </trkpt>
      <trkpt lat="48.7524" lon="1.85515">
        <ele>133.28</ele>
        <time>2009-12-05T22:28:38.000Z</time>
      </trkpt>
      <trkpt lat="48.7524" lon="1.85511">
        <ele>132.8</ele>
        <time>2009-12-05T22:28:41.000Z</time>
      </trkpt>
      <trkpt lat="48.7524" lon="1.85499">
        <ele>126.55</ele>
        <time>2009-12-05T22:28:46.000Z</time>
      </trkpt>
      <trkpt lat="48.75238" lon="1.8549">
        <ele>121.26</ele>
        <time>2009-12-05T22:28:52.000Z</time>
      </trkpt>
      <trkpt lat="48.75235" lon="1.85483">
        <ele>124.15</ele>
        <time>2009-12-05T22:28:55.000Z</time>
      </trkpt>
      <trkpt lat="48.75232" lon="1.85471">
        <ele>127.51</ele>
        <time>2009-12-05T22:29:01.000Z</time>
      </trkpt>
      <trkpt lat="48.75232" lon="1.85469">
        <ele>127.03</ele>
        <time>2009-12-05T22:29:02.000Z</time>
      </trkpt>
      <trkpt lat="48.75231" lon="1.85466">
        <ele>130.4</ele>
        <time>2009-12-05T22:29:04.000Z</time>
      </trkpt>
      <trkpt lat="48.75229" lon="1.85445">
        <ele>132.8</ele>
        <time>2009-12-05T22:29:12.000Z</time>
      </trkpt>
      <trkpt lat="48.75228" lon="1.85439">
        <ele>129.43</ele>
        <time>2009-12-05T22:29:17.000Z</time>
      </trkpt>
      <trkpt lat="48.75229" lon="1.85434">
        <ele>127.03</ele>
        <time>2009-12-05T22:29:20.000Z</time>
      </trkpt>
      <trkpt lat="48.75228" lon="1.85424">
        <ele>125.59</ele>
        <time>2009-12-05T22:29:26.000Z</time>
      </trkpt>
      <trkpt lat="48.75226" lon="1.85412">
        <ele>127.03</ele>
        <time>2009-12-05T22:29:31.000Z</time>
      </trkpt>
      <trkpt lat="48.75228" lon="1.85405">
        <ele>128.95</ele>
        <time>2009-12-05T22:29:34.000Z</time>
      </trkpt>
      <trkpt lat="48.75228" lon="1.8539">
        <ele>127.99</ele>
        <time>2009-12-05T22:29:41.000Z</time>
      </trkpt>
      <trkpt lat="48.75225" lon="1.8537">
        <ele>147.22</ele>
        <time>2009-12-05T22:29:48.000Z</time>
      </trkpt>
      <trkpt lat="48.75224" lon="1.85364">
        <ele>147.7</ele>
        <time>2009-12-05T22:29:51.000Z</time>
      </trkpt>
      <trkpt lat="48.75224" lon="1.85352">
        <ele>142.41</ele>
        <time>2009-12-05T22:29:56.000Z</time>
      </trkpt>
      <trkpt lat="48.75224" lon="1.85347">
        <ele>139.53</ele>
        <time>2009-12-05T22:29:58.000Z</time>
      </trkpt>
      <trkpt lat="48.75222" lon="1.85342">
        <ele>142.89</ele>
        <time>2009-12-05T22:30:01.000Z</time>
      </trkpt>
      <trkpt lat="48.75222" lon="1.85333">
        <ele>140.97</ele>
        <time>2009-12-05T22:30:06.000Z</time>
      </trkpt>
      <trkpt lat="48.7522" lon="1.85326">
        <ele>140.01</ele>
        <time>2009-12-05T22:30:10.000Z</time>
      </trkpt>
      <trkpt lat="48.75219" lon="1.85319">
        <ele>138.57</ele>
        <time>2009-12-05T22:30:14.000Z</time>
      </trkpt>
      <trkpt lat="48.75217" lon="1.85312">
        <ele>140.97</ele>
        <time>2009-12-05T22:30:18.000Z</time>
      </trkpt>
      <trkpt lat="48.75212" lon="1.85303">
        <ele>150.1</ele>
        <time>2009-12-05T22:30:23.000Z</time>
      </trkpt>
      <trkpt lat="48.75211" lon="1.853">
        <ele>152.03</ele>
        <time>2009-12-05T22:30:24.000Z</time>
      </trkpt>
      <trkpt lat="48.75207" lon="1.85286">
        <ele>153.95</ele>
        <time>2009-12-05T22:30:29.000Z</time>
      </trkpt>
      <trkpt lat="48.75202" lon="1.85279">
        <ele>152.51</ele>
        <time>2009-12-05T22:30:34.000Z</time>
      </trkpt>
      <trkpt lat="48.75198" lon="1.85269">
        <ele>152.99</ele>
        <time>2009-12-05T22:30:39.000Z</time>
      </trkpt>
      <trkpt lat="48.75195" lon="1.85263">
        <ele>155.87</ele>
        <time>2009-12-05T22:30:43.000Z</time>
      </trkpt>
      <trkpt lat="48.75187" lon="1.85252">
        <ele>159.24</ele>
        <time>2009-12-05T22:30:49.000Z</time>
      </trkpt>
      <trkpt lat="48.75185" lon="1.85247">
        <ele>157.79</ele>
        <time>2009-12-05T22:30:52.000Z</time>
      </trkpt>
      <trkpt lat="48.75183" lon="1.85244">
        <ele>155.39</ele>
        <time>2009-12-05T22:30:54.000Z</time>
      </trkpt>
      <trkpt lat="48.75179" lon="1.85229">
        <ele>152.03</ele>
        <time>2009-12-05T22:31:01.000Z</time>
      </trkpt>
      <trkpt lat="48.75177" lon="1.85215">
        <ele>152.99</ele>
        <time>2009-12-05T22:31:05.000Z</time>
      </trkpt>
      <trkpt lat="48.75175" lon="1.85207">
        <ele>152.51</ele>
        <time>2009-12-05T22:31:08.000Z</time>
      </trkpt>
      <trkpt lat="48.75174" lon="1.85196">
        <ele>148.66</ele>
        <time>2009-12-05T22:31:12.000Z</time>
      </trkpt>
      <trkpt lat="48.75173" lon="1.85182">
        <ele>142.41</ele>
        <time>2009-12-05T22:31:17.000Z</time>
      </trkpt>
      <trkpt lat="48.75173" lon="1.8517">
        <ele>142.41</ele>
        <time>2009-12-05T22:31:21.000Z</time>
      </trkpt>
      <trkpt lat="48.75172" lon="1.85148">
        <ele>137.61</ele>
        <time>2009-12-05T22:31:27.000Z</time>
      </trkpt>
      <trkpt lat="48.75164" lon="1.85141">
        <ele>137.61</ele>
        <time>2009-12-05T22:31:31.000Z</time>
      </trkpt>
      <trkpt lat="48.75154" lon="1.85146">
        <ele>138.09</ele>
        <time>2009-12-05T22:31:35.000Z</time>
      </trkpt>
      <trkpt lat="48.7514" lon="1.85151">
        <ele>145.78</ele>
        <time>2009-12-05T22:31:41.000Z</time>
      </trkpt>
      <trkpt lat="48.75132" lon="1.85154">
        <ele>152.51</ele>
        <time>2009-12-05T22:31:46.000Z</time>
      </trkpt>
      <trkpt lat="48.75121" lon="1.85156">
        <ele>155.87</ele>
        <time>2009-12-05T22:31:51.000Z</time>
      </trkpt>
      <trkpt lat="48.75111" lon="1.85155">
        <ele>154.91</ele>
        <time>2009-12-05T22:31:56.000Z</time>
      </trkpt>
      <trkpt lat="48.75101" lon="1.85151">
        <ele>154.43</ele>
        <time>2009-12-05T22:32:01.000Z</time>
      </trkpt>
      <trkpt lat="48.75095" lon="1.85141">
        <ele>154.91</ele>
        <time>2009-12-05T22:32:05.000Z</time>
      </trkpt>
      <trkpt lat="48.75091" lon="1.85138">
        <ele>155.39</ele>
        <time>2009-12-05T22:32:08.000Z</time>
      </trkpt>
      <trkpt lat="48.75085" lon="1.85135">
        <ele>154.91</ele>
        <time>2009-12-05T22:32:11.000Z</time>
      </trkpt>
      <trkpt lat="48.75076" lon="1.85122">
        <ele>155.39</ele>
        <time>2009-12-05T22:32:17.000Z</time>
      </trkpt>
      <trkpt lat="48.75068" lon="1.85116">
        <ele>159.72</ele>
        <time>2009-12-05T22:32:21.000Z</time>
      </trkpt>
      <trkpt lat="48.75061" lon="1.85107">
        <ele>161.64</ele>
        <time>2009-12-05T22:32:25.000Z</time>
      </trkpt>
      <trkpt lat="48.75048" lon="1.85094">
        <ele>163.56</ele>
        <time>2009-12-05T22:32:32.000Z</time>
      </trkpt>
      <trkpt lat="48.75041" lon="1.85084">
        <ele>161.64</ele>
        <time>2009-12-05T22:32:36.000Z</time>
      </trkpt>
      <trkpt lat="48.75036" lon="1.85078">
        <ele>159.72</ele>
        <time>2009-12-05T22:32:38.000Z</time>
      </trkpt>
      <trkpt lat="48.75023" lon="1.85068">
        <ele>160.68</ele>
        <time>2009-12-05T22:32:43.000Z</time>
      </trkpt>
      <trkpt lat="48.7502" lon="1.85067">
        <ele>159.72</ele>
        <time>2009-12-05T22:32:44.000Z</time>
      </trkpt>
      <trkpt lat="48.75008" lon="1.85057">
        <ele>155.87</ele>
        <time>2009-12-05T22:32:50.000Z</time>
      </trkpt>
      <trkpt lat="48.74997" lon="1.85043">
        <ele>154.43</ele>
        <time>2009-12-05T22:32:55.000Z</time>
      </trkpt>
      <trkpt lat="48.74995" lon="1.85041">
        <ele>153.47</ele>
        <time>2009-12-05T22:32:56.000Z</time>
      </trkpt>
      <trkpt lat="48.74983" lon="1.85029">
        <ele>153.95</ele>
        <time>2009-12-05T22:33:02.000Z</time>
      </trkpt>
      <trkpt lat="48.74973" lon="1.85022">
        <ele>151.54</ele>
        <time>2009-12-05T22:33:07.000Z</time>
      </trkpt>
      <trkpt lat="48.74962" lon="1.85013">
        <ele>152.99</ele>
        <time>2009-12-05T22:33:12.000Z</time>
      </trkpt>
      <trkpt lat="48.74952" lon="1.85005">
        <ele>154.91</ele>
        <time>2009-12-05T22:33:17.000Z</time>
      </trkpt>
      <trkpt lat="48.74941" lon="1.84991">
        <ele>157.79</ele>
        <time>2009-12-05T22:33:23.000Z</time>
      </trkpt>
      <trkpt lat="48.74931" lon="1.84981">
        <ele>157.79</ele>
        <time>2009-12-05T22:33:28.000Z</time>
      </trkpt>
      <trkpt lat="48.74924" lon="1.84974">
        <ele>163.08</ele>
        <time>2009-12-05T22:33:32.000Z</time>
      </trkpt>
      <trkpt lat="48.74915" lon="1.84965">
        <ele>165</ele>
        <time>2009-12-05T22:33:37.000Z</time>
      </trkpt>
      <trkpt lat="48.74911" lon="1.8496">
        <ele>166.93</ele>
        <time>2009-12-05T22:33:39.000Z</time>
      </trkpt>
      <trkpt lat="48.74909" lon="1.84956">
        <ele>165.96</ele>
        <time>2009-12-05T22:33:41.000Z</time>
      </trkpt>
      <trkpt lat="48.74895" lon="1.84946">
        <ele>168.37</ele>
        <time>2009-12-05T22:33:47.000Z</time>
      </trkpt>
      <trkpt lat="48.74894" lon="1.84946">
        <ele>168.37</ele>
        <time>2009-12-05T22:33:48.000Z</time>
      </trkpt>
      <trkpt lat="48.74887" lon="1.84942">
        <ele>164.52</ele>
        <time>2009-12-05T22:33:54.000Z</time>
      </trkpt>
      <trkpt lat="48.74884" lon="1.84939">
        <ele>161.64</ele>
        <time>2009-12-05T22:33:58.000Z</time>
      </trkpt>
      <trkpt lat="48.74883" lon="1.84938">
        <ele>159.72</ele>
        <time>2009-12-05T22:33:59.000Z</time>
      </trkpt>
      <trkpt lat="48.74876" lon="1.84933">
        <ele>158.75</ele>
        <time>2009-12-05T22:34:03.000Z</time>
      </trkpt>
      <trkpt lat="48.74868" lon="1.84925">
        <ele>155.87</ele>
        <time>2009-12-05T22:34:08.000Z</time>
      </trkpt>
      <trkpt lat="48.74863" lon="1.8492">
        <ele>153.95</ele>
        <time>2009-12-05T22:34:11.000Z</time>
      </trkpt>
      <trkpt lat="48.74857" lon="1.84914">
        <ele>152.51</ele>
        <time>2009-12-05T22:34:15.000Z</time>
      </trkpt>
      <trkpt lat="48.74846" lon="1.849">
        <ele>150.58</ele>
        <time>2009-12-05T22:34:21.000Z</time>
      </trkpt>
      <trkpt lat="48.74841" lon="1.84891">
        <ele>151.54</ele>
        <time>2009-12-05T22:34:24.000Z</time>
      </trkpt>
      <trkpt lat="48.74832" lon="1.84876">
        <ele>152.03</ele>
        <time>2009-12-05T22:34:29.000Z</time>
      </trkpt>
      <trkpt lat="48.74829" lon="1.84873">
        <ele>153.47</ele>
        <time>2009-12-05T22:34:30.000Z</time>
      </trkpt>
      <trkpt lat="48.74819" lon="1.84859">
        <ele>155.87</ele>
        <time>2009-12-05T22:34:36.000Z</time>
      </trkpt>
      <trkpt lat="48.74813" lon="1.8485">
        <ele>155.87</ele>
        <time>2009-12-05T22:34:39.000Z</time>
      </trkpt>
      <trkpt lat="48.74804" lon="1.84836">
        <ele>159.24</ele>
        <time>2009-12-05T22:34:44.000Z</time>
      </trkpt>
      <trkpt lat="48.74801" lon="1.8483">
        <ele>158.75</ele>
        <time>2009-12-05T22:34:46.000Z</time>
      </trkpt>
      <trkpt lat="48.74791" lon="1.84817">
        <ele>159.24</ele>
        <time>2009-12-05T22:34:52.000Z</time>
      </trkpt>
      <trkpt lat="48.74783" lon="1.84809">
        <ele>161.64</ele>
        <time>2009-12-05T22:34:56.000Z</time>
      </trkpt>
      <trkpt lat="48.74777" lon="1.84799">
        <ele>163.56</ele>
        <time>2009-12-05T22:34:59.000Z</time>
      </trkpt>
      <trkpt lat="48.7477" lon="1.8478">
        <ele>161.64</ele>
        <time>2009-12-05T22:35:05.000Z</time>
      </trkpt>
      <trkpt lat="48.7477" lon="1.84779">
        <ele>160.68</ele>
        <time>2009-12-05T22:35:06.000Z</time>
      </trkpt>
      <trkpt lat="48.74766" lon="1.84767">
        <ele>158.75</ele>
        <time>2009-12-05T22:35:12.000Z</time>
      </trkpt>
      <trkpt lat="48.74763" lon="1.84762">
        <ele>158.27</ele>
        <time>2009-12-05T22:35:17.000Z</time>
      </trkpt>
      <trkpt lat="48.74768" lon="1.84753">
        <ele>160.68</ele>
        <time>2009-12-05T22:35:22.000Z</time>
      </trkpt>
      <trkpt lat="48.74777" lon="1.84743">
        <ele>162.12</ele>
        <time>2009-12-05T22:35:27.000Z</time>
      </trkpt>
      <trkpt lat="48.74784" lon="1.84732">
        <ele>162.12</ele>
        <time>2009-12-05T22:35:31.000Z</time>
      </trkpt>
      <trkpt lat="48.74787" lon="1.84728">
        <ele>161.16</ele>
        <time>2009-12-05T22:35:32.000Z</time>
      </trkpt>
      <trkpt lat="48.74796" lon="1.84714">
        <ele>160.2</ele>
        <time>2009-12-05T22:35:38.000Z</time>
      </trkpt>
      <trkpt lat="48.74798" lon="1.84711">
        <ele>159.24</ele>
        <time>2009-12-05T22:35:39.000Z</time>
      </trkpt>
      <trkpt lat="48.74813" lon="1.84696">
        <ele>154.91</ele>
        <time>2009-12-05T22:35:45.000Z</time>
      </trkpt>
      <trkpt lat="48.74815" lon="1.84692">
        <ele>155.39</ele>
        <time>2009-12-05T22:35:47.000Z</time>
      </trkpt>
      <trkpt lat="48.74823" lon="1.84677">
        <ele>155.39</ele>
        <time>2009-12-05T22:35:54.000Z</time>
      </trkpt>
      <trkpt lat="48.74825" lon="1.84675">
        <ele>156.35</ele>
        <time>2009-12-05T22:35:55.000Z</time>
      </trkpt>
      <trkpt lat="48.74835" lon="1.8466">
        <ele>153.95</ele>
        <time>2009-12-05T22:36:00.000Z</time>
      </trkpt>
      <trkpt lat="48.74842" lon="1.84652">
        <ele>153.47</ele>
        <time>2009-12-05T22:36:03.000Z</time>
      </trkpt>
      <trkpt lat="48.74849" lon="1.84642">
        <ele>152.03</ele>
        <time>2009-12-05T22:36:06.000Z</time>
      </trkpt>
      <trkpt lat="48.7486" lon="1.84626">
        <ele>151.54</ele>
        <time>2009-12-05T22:36:12.000Z</time>
      </trkpt>
      <trkpt lat="48.74865" lon="1.84617">
        <ele>151.54</ele>
        <time>2009-12-05T22:36:15.000Z</time>
      </trkpt>
      <trkpt lat="48.74873" lon="1.846">
        <ele>149.62</ele>
        <time>2009-12-05T22:36:20.000Z</time>
      </trkpt>
      <trkpt lat="48.74881" lon="1.84587">
        <ele>155.39</ele>
        <time>2009-12-05T22:36:25.000Z</time>
      </trkpt>
      <trkpt lat="48.7489" lon="1.84569">
        <ele>163.56</ele>
        <time>2009-12-05T22:36:31.000Z</time>
      </trkpt>
      <trkpt lat="48.74897" lon="1.84556">
        <ele>165.96</ele>
        <time>2009-12-05T22:36:35.000Z</time>
      </trkpt>
      <trkpt lat="48.74903" lon="1.84538">
        <ele>166.93</ele>
        <time>2009-12-05T22:36:40.000Z</time>
      </trkpt>
      <trkpt lat="48.74905" lon="1.84527">
        <ele>165.96</ele>
        <time>2009-12-05T22:36:43.000Z</time>
      </trkpt>
      <trkpt lat="48.74906" lon="1.84502">
        <ele>161.64</ele>
        <time>2009-12-05T22:36:49.000Z</time>
      </trkpt>
      <trkpt lat="48.74908" lon="1.84484">
        <ele>157.31</ele>
        <time>2009-12-05T22:36:54.000Z</time>
      </trkpt>
      <trkpt lat="48.7491" lon="1.84472">
        <ele>158.27</ele>
        <time>2009-12-05T22:36:57.000Z</time>
      </trkpt>
      <trkpt lat="48.74909" lon="1.84451">
        <ele>165.48</ele>
        <time>2009-12-05T22:37:02.000Z</time>
      </trkpt>
      <trkpt lat="48.7491" lon="1.84439">
        <ele>165.48</ele>
        <time>2009-12-05T22:37:05.000Z</time>
      </trkpt>
      <trkpt lat="48.7491" lon="1.84419">
        <ele>165.48</ele>
        <time>2009-12-05T22:37:10.000Z</time>
      </trkpt>
      <trkpt lat="48.7491" lon="1.84403">
        <ele>165</ele>
        <time>2009-12-05T22:37:14.000Z</time>
      </trkpt>
      <trkpt lat="48.74907" lon="1.8439">
        <ele>164.52</ele>
        <time>2009-12-05T22:37:19.000Z</time>
      </trkpt>
      <trkpt lat="48.74901" lon="1.84377">
        <ele>165</ele>
        <time>2009-12-05T22:37:26.000Z</time>
      </trkpt>
      <trkpt lat="48.74897" lon="1.84359">
        <ele>164.04</ele>
        <time>2009-12-05T22:37:33.000Z</time>
      </trkpt>
      <trkpt lat="48.74893" lon="1.84344">
        <ele>164.52</ele>
        <time>2009-12-05T22:37:38.000Z</time>
      </trkpt>
      <trkpt lat="48.74886" lon="1.84326">
        <ele>162.6</ele>
        <time>2009-12-05T22:37:44.000Z</time>
      </trkpt>
      <trkpt lat="48.74882" lon="1.84309">
        <ele>162.12</ele>
        <time>2009-12-05T22:37:49.000Z</time>
      </trkpt>
      <trkpt lat="48.74874" lon="1.84292">
        <ele>162.12</ele>
        <time>2009-12-05T22:37:54.000Z</time>
      </trkpt>
      <trkpt lat="48.74866" lon="1.84271">
        <ele>165</ele>
        <time>2009-12-05T22:38:00.000Z</time>
      </trkpt>
      <trkpt lat="48.74859" lon="1.84254">
        <ele>166.93</ele>
        <time>2009-12-05T22:38:05.000Z</time>
      </trkpt>
      <trkpt lat="48.74853" lon="1.84238">
        <ele>168.85</ele>
        <time>2009-12-05T22:38:10.000Z</time>
      </trkpt>
      <trkpt lat="48.74845" lon="1.84225">
        <ele>166.93</ele>
        <time>2009-12-05T22:38:14.000Z</time>
      </trkpt>
      <trkpt lat="48.74835" lon="1.84213">
        <ele>164.52</ele>
        <time>2009-12-05T22:38:19.000Z</time>
      </trkpt>
      <trkpt lat="48.74831" lon="1.84209">
        <ele>163.56</ele>
        <time>2009-12-05T22:38:21.000Z</time>
      </trkpt>
      <trkpt lat="48.74818" lon="1.84207">
        <ele>164.04</ele>
        <time>2009-12-05T22:38:27.000Z</time>
      </trkpt>
      <trkpt lat="48.74813" lon="1.84207">
        <ele>165.96</ele>
        <time>2009-12-05T22:38:30.000Z</time>
      </trkpt>
      <trkpt lat="48.74809" lon="1.84201">
        <ele>164.04</ele>
        <time>2009-12-05T22:38:34.000Z</time>
      </trkpt>
      <trkpt lat="48.74792" lon="1.842">
        <ele>165.48</ele>
        <time>2009-12-05T22:38:41.000Z</time>
      </trkpt>
      <trkpt lat="48.74788" lon="1.84197">
        <ele>165.96</ele>
        <time>2009-12-05T22:38:43.000Z</time>
      </trkpt>
      <trkpt lat="48.74778" lon="1.84195">
        <ele>167.41</ele>
        <time>2009-12-05T22:38:47.000Z</time>
      </trkpt>
      <trkpt lat="48.74773" lon="1.84192">
        <ele>169.33</ele>
        <time>2009-12-05T22:38:49.000Z</time>
      </trkpt>
      <trkpt lat="48.74771" lon="1.84178">
        <ele>169.33</ele>
        <time>2009-12-05T22:38:54.000Z</time>
      </trkpt>
      <trkpt lat="48.74776" lon="1.84165">
        <ele>169.33</ele>
        <time>2009-12-05T22:38:58.000Z</time>
      </trkpt>
      <trkpt lat="48.74781" lon="1.84157">
        <ele>172.69</ele>
        <time>2009-12-05T22:39:01.000Z</time>
      </trkpt>
      <trkpt lat="48.74794" lon="1.84142">
        <ele>177.02</ele>
        <time>2009-12-05T22:39:06.000Z</time>
      </trkpt>
      <trkpt lat="48.74806" lon="1.84131">
        <ele>179.42</ele>
        <time>2009-12-05T22:39:11.000Z</time>
      </trkpt>
      <trkpt lat="48.74809" lon="1.8413">
        <ele>178.46</ele>
        <time>2009-12-05T22:39:12.000Z</time>
      </trkpt>
      <trkpt lat="48.74817" lon="1.84117">
        <ele>171.73</ele>
        <time>2009-12-05T22:39:17.000Z</time>
      </trkpt>
      <trkpt lat="48.74825" lon="1.84107">
        <ele>163.56</ele>
        <time>2009-12-05T22:39:22.000Z</time>
      </trkpt>
      <trkpt lat="48.74834" lon="1.84088">
        <ele>152.99</ele>
        <time>2009-12-05T22:39:28.000Z</time>
      </trkpt>
      <trkpt lat="48.74848" lon="1.84079">
        <ele>158.27</ele>
        <time>2009-12-05T22:39:33.000Z</time>
      </trkpt>
      <trkpt lat="48.7485" lon="1.84077">
        <ele>159.72</ele>
        <time>2009-12-05T22:39:34.000Z</time>
      </trkpt>
      <trkpt lat="48.74857" lon="1.84069">
        <ele>159.24</ele>
        <time>2009-12-05T22:39:38.000Z</time>
      </trkpt>
      <trkpt lat="48.74867" lon="1.84064">
        <ele>160.68</ele>
        <time>2009-12-05T22:39:44.000Z</time>
      </trkpt>
      <trkpt lat="48.74875" lon="1.84052">
        <ele>156.35</ele>
        <time>2009-12-05T22:39:51.000Z</time>
      </trkpt>
      <trkpt lat="48.74878" lon="1.84048">
        <ele>153.95</ele>
        <time>2009-12-05T22:39:53.000Z</time>
      </trkpt>
      <trkpt lat="48.74889" lon="1.84038">
        <ele>153.47</ele>
        <time>2009-12-05T22:39:58.000Z</time>
      </trkpt>
      <trkpt lat="48.74899" lon="1.84024">
        <ele>150.1</ele>
        <time>2009-12-05T22:40:04.000Z</time>
      </trkpt>
      <trkpt lat="48.74906" lon="1.84019">
        <ele>153.95</ele>
        <time>2009-12-05T22:40:09.000Z</time>
      </trkpt>
      <trkpt lat="48.74909" lon="1.84018">
        <ele>153.95</ele>
        <time>2009-12-05T22:40:11.000Z</time>
      </trkpt>
      <trkpt lat="48.74914" lon="1.84016">
        <ele>158.75</ele>
        <time>2009-12-05T22:40:15.000Z</time>
      </trkpt>
      <trkpt lat="48.74918" lon="1.84008">
        <ele>161.16</ele>
        <time>2009-12-05T22:40:20.000Z</time>
      </trkpt>
      <trkpt lat="48.74923" lon="1.83999">
        <ele>154.91</ele>
        <time>2009-12-05T22:40:25.000Z</time>
      </trkpt>
      <trkpt lat="48.74924" lon="1.83991">
        <ele>156.83</ele>
        <time>2009-12-05T22:40:29.000Z</time>
      </trkpt>
      <trkpt lat="48.74925" lon="1.83982">
        <ele>156.35</ele>
        <time>2009-12-05T22:40:32.000Z</time>
      </trkpt>
      <trkpt lat="48.74924" lon="1.8396">
        <ele>153.95</ele>
        <time>2009-12-05T22:40:38.000Z</time>
      </trkpt>
      <trkpt lat="48.74923" lon="1.83945">
        <ele>153.47</ele>
        <time>2009-12-05T22:40:42.000Z</time>
      </trkpt>
      <trkpt lat="48.74921" lon="1.83931">
        <ele>159.72</ele>
        <time>2009-12-05T22:40:46.000Z</time>
      </trkpt>
      <trkpt lat="48.74919" lon="1.83914">
        <ele>165.48</ele>
        <time>2009-12-05T22:40:51.000Z</time>
      </trkpt>
      <trkpt lat="48.74921" lon="1.839">
        <ele>164.04</ele>
        <time>2009-12-05T22:40:55.000Z</time>
      </trkpt>
      <trkpt lat="48.74922" lon="1.83881">
        <ele>168.85</ele>
        <time>2009-12-05T22:41:00.000Z</time>
      </trkpt>
      <trkpt lat="48.74926" lon="1.83857">
        <ele>169.33</ele>
        <time>2009-12-05T22:41:06.000Z</time>
      </trkpt>
      <trkpt lat="48.74927" lon="1.83853">
        <ele>168.37</ele>
        <time>2009-12-05T22:41:07.000Z</time>
      </trkpt>
      <trkpt lat="48.74927" lon="1.83837">
        <ele>167.41</ele>
        <time>2009-12-05T22:41:12.000Z</time>
      </trkpt>
      <trkpt lat="48.74925" lon="1.8383">
        <ele>166.45</ele>
        <time>2009-12-05T22:41:14.000Z</time>
      </trkpt>
      <trkpt lat="48.74919" lon="1.83815">
        <ele>165</ele>
        <time>2009-12-05T22:41:20.000Z</time>
      </trkpt>
      <trkpt lat="48.74914" lon="1.83804">
        <ele>168.85</ele>
        <time>2009-12-05T22:41:24.000Z</time>
      </trkpt>
      <trkpt lat="48.74906" lon="1.83791">
        <ele>169.33</ele>
        <time>2009-12-05T22:41:29.000Z</time>
      </trkpt>
      <trkpt lat="48.74902" lon="1.83774">
        <ele>167.41</ele>
        <time>2009-12-05T22:41:35.000Z</time>
      </trkpt>
      <trkpt lat="48.74902" lon="1.83771">
        <ele>166.45</ele>
        <time>2009-12-05T22:41:36.000Z</time>
      </trkpt>
      <trkpt lat="48.74896" lon="1.83756">
        <ele>163.56</ele>
        <time>2009-12-05T22:41:41.000Z</time>
      </trkpt>
      <trkpt lat="48.74892" lon="1.83742">
        <ele>161.64</ele>
        <time>2009-12-05T22:41:46.000Z</time>
      </trkpt>
      <trkpt lat="48.74887" lon="1.83727">
        <ele>160.68</ele>
        <time>2009-12-05T22:41:52.000Z</time>
      </trkpt>
      <trkpt lat="48.7488" lon="1.83712">
        <ele>163.56</ele>
        <time>2009-12-05T22:41:57.000Z</time>
      </trkpt>
      <trkpt lat="48.74876" lon="1.83706">
        <ele>164.04</ele>
        <time>2009-12-05T22:41:59.000Z</time>
      </trkpt>
      <trkpt lat="48.74867" lon="1.83688">
        <ele>170.29</ele>
        <time>2009-12-05T22:42:05.000Z</time>
      </trkpt>
      <trkpt lat="48.7486" lon="1.8367">
        <ele>174.14</ele>
        <time>2009-12-05T22:42:10.000Z</time>
      </trkpt>
      <trkpt lat="48.74859" lon="1.83664">
        <ele>175.1</ele>
        <time>2009-12-05T22:42:13.000Z</time>
      </trkpt>
      <trkpt lat="48.7486" lon="1.83658">
        <ele>176.54</ele>
        <time>2009-12-05T22:42:19.000Z</time>
      </trkpt>
      <trkpt lat="48.74861" lon="1.83659">
        <ele>177.02</ele>
        <time>2009-12-05T22:42:20.000Z</time>
      </trkpt>
      <trkpt lat="48.74871" lon="1.83652">
        <ele>177.98</ele>
        <time>2009-12-05T22:42:25.000Z</time>
      </trkpt>
      <trkpt lat="48.7488" lon="1.83642">
        <ele>174.62</ele>
        <time>2009-12-05T22:42:30.000Z</time>
      </trkpt>
      <trkpt lat="48.74882" lon="1.8364">
        <ele>173.66</ele>
        <time>2009-12-05T22:42:31.000Z</time>
      </trkpt>
      <trkpt lat="48.74884" lon="1.83638">
        <ele>171.73</ele>
        <time>2009-12-05T22:42:33.000Z</time>
      </trkpt>
      <trkpt lat="48.74895" lon="1.83623">
        <ele>168.37</ele>
        <time>2009-12-05T22:42:38.000Z</time>
      </trkpt>
      <trkpt lat="48.749" lon="1.83618">
        <ele>165.48</ele>
        <time>2009-12-05T22:42:41.000Z</time>
      </trkpt>
      <trkpt lat="48.74906" lon="1.83614">
        <ele>161.64</ele>
        <time>2009-12-05T22:42:44.000Z</time>
      </trkpt>
      <trkpt lat="48.74917" lon="1.83601">
        <ele>157.79</ele>
        <time>2009-12-05T22:42:50.000Z</time>
      </trkpt>
      <trkpt lat="48.74926" lon="1.83592">
        <ele>153.95</ele>
        <time>2009-12-05T22:42:55.000Z</time>
      </trkpt>
      <trkpt lat="48.74937" lon="1.83584">
        <ele>152.03</ele>
        <time>2009-12-05T22:43:00.000Z</time>
      </trkpt>
      <trkpt lat="48.74939" lon="1.83582">
        <ele>152.03</ele>
        <time>2009-12-05T22:43:01.000Z</time>
      </trkpt>
      <trkpt lat="48.74956" lon="1.8357">
        <ele>151.06</ele>
        <time>2009-12-05T22:43:08.000Z</time>
      </trkpt>
      <trkpt lat="48.74967" lon="1.83558">
        <ele>149.14</ele>
        <time>2009-12-05T22:43:13.000Z</time>
      </trkpt>
      <trkpt lat="48.74978" lon="1.83546">
        <ele>145.78</ele>
        <time>2009-12-05T22:43:18.000Z</time>
      </trkpt>
      <trkpt lat="48.74987" lon="1.83536">
        <ele>145.78</ele>
        <time>2009-12-05T22:43:23.000Z</time>
      </trkpt>
      <trkpt lat="48.74995" lon="1.8353">
        <ele>144.82</ele>
        <time>2009-12-05T22:43:26.000Z</time>
      </trkpt>
      <trkpt lat="48.75007" lon="1.83519">
        <ele>144.82</ele>
        <time>2009-12-05T22:43:32.000Z</time>
      </trkpt>
      <trkpt lat="48.75018" lon="1.83512">
        <ele>147.22</ele>
        <time>2009-12-05T22:43:37.000Z</time>
      </trkpt>
      <trkpt lat="48.75023" lon="1.83505">
        <ele>145.3</ele>
        <time>2009-12-05T22:43:40.000Z</time>
      </trkpt>
      <trkpt lat="48.75037" lon="1.83492">
        <ele>142.41</ele>
        <time>2009-12-05T22:43:47.000Z</time>
      </trkpt>
      <trkpt lat="48.75048" lon="1.83481">
        <ele>140.01</ele>
        <time>2009-12-05T22:43:52.000Z</time>
      </trkpt>
      <trkpt lat="48.75062" lon="1.8347">
        <ele>140.49</ele>
        <time>2009-12-05T22:43:57.000Z</time>
      </trkpt>
      <trkpt lat="48.75074" lon="1.83458">
        <ele>140.97</ele>
        <time>2009-12-05T22:44:02.000Z</time>
      </trkpt>
      <trkpt lat="48.75084" lon="1.83455">
        <ele>144.34</ele>
        <time>2009-12-05T22:44:05.000Z</time>
      </trkpt>
      <trkpt lat="48.75097" lon="1.83444">
        <ele>147.7</ele>
        <time>2009-12-05T22:44:11.000Z</time>
      </trkpt>
      <trkpt lat="48.75111" lon="1.83434">
        <ele>150.1</ele>
        <time>2009-12-05T22:44:16.000Z</time>
      </trkpt>
      <trkpt lat="48.75124" lon="1.83426">
        <ele>155.87</ele>
        <time>2009-12-05T22:44:20.000Z</time>
      </trkpt>
      <trkpt lat="48.7514" lon="1.83416">
        <ele>161.16</ele>
        <time>2009-12-05T22:44:25.000Z</time>
      </trkpt>
      <trkpt lat="48.7515" lon="1.8341">
        <ele>162.12</ele>
        <time>2009-12-05T22:44:29.000Z</time>
      </trkpt>
      <trkpt lat="48.75163" lon="1.83401">
        <ele>165</ele>
        <time>2009-12-05T22:44:34.000Z</time>
      </trkpt>
      <trkpt lat="48.75175" lon="1.8339">
        <ele>166.45</ele>
        <time>2009-12-05T22:44:39.000Z</time>
      </trkpt>
      <trkpt lat="48.75187" lon="1.8338">
        <ele>165.48</ele>
        <time>2009-12-05T22:44:45.000Z</time>
      </trkpt>
      <trkpt lat="48.75193" lon="1.83376">
        <ele>166.45</ele>
        <time>2009-12-05T22:44:48.000Z</time>
      </trkpt>
      <trkpt lat="48.75201" lon="1.83367">
        <ele>163.08</ele>
        <time>2009-12-05T22:44:52.000Z</time>
      </trkpt>
      <trkpt lat="48.75204" lon="1.83362">
        <ele>161.16</ele>
        <time>2009-12-05T22:44:54.000Z</time>
      </trkpt>
      <trkpt lat="48.75219" lon="1.83349">
        <ele>154.43</ele>
        <time>2009-12-05T22:45:00.000Z</time>
      </trkpt>
      <trkpt lat="48.75226" lon="1.83341">
        <ele>151.54</ele>
        <time>2009-12-05T22:45:03.000Z</time>
      </trkpt>
      <trkpt lat="48.75238" lon="1.83326">
        <ele>147.22</ele>
        <time>2009-12-05T22:45:09.000Z</time>
      </trkpt>
      <trkpt lat="48.75247" lon="1.83321">
        <ele>149.14</ele>
        <time>2009-12-05T22:45:13.000Z</time>
      </trkpt>
      <trkpt lat="48.75259" lon="1.83315">
        <ele>148.66</ele>
        <time>2009-12-05T22:45:17.000Z</time>
      </trkpt>
      <trkpt lat="48.75269" lon="1.83307">
        <ele>147.22</ele>
        <time>2009-12-05T22:45:21.000Z</time>
      </trkpt>
      <trkpt lat="48.75282" lon="1.8331">
        <ele>149.62</ele>
        <time>2009-12-05T22:45:25.000Z</time>
      </trkpt>
      <trkpt lat="48.75288" lon="1.8332">
        <ele>146.74</ele>
        <time>2009-12-05T22:45:29.000Z</time>
      </trkpt>
      <trkpt lat="48.75294" lon="1.83336">
        <ele>146.26</ele>
        <time>2009-12-05T22:45:33.000Z</time>
      </trkpt>
      <trkpt lat="48.75301" lon="1.83351">
        <ele>143.37</ele>
        <time>2009-12-05T22:45:38.000Z</time>
      </trkpt>
      <trkpt lat="48.75306" lon="1.83362">
        <ele>144.34</ele>
        <time>2009-12-05T22:45:41.000Z</time>
      </trkpt>
      <trkpt lat="48.7531" lon="1.83383">
        <ele>139.05</ele>
        <time>2009-12-05T22:45:46.000Z</time>
      </trkpt>
      <trkpt lat="48.75309" lon="1.83395">
        <ele>137.13</ele>
        <time>2009-12-05T22:45:49.000Z</time>
      </trkpt>
      <trkpt lat="48.75308" lon="1.83419">
        <ele>133.76</ele>
        <time>2009-12-05T22:45:54.000Z</time>
      </trkpt>
      <trkpt lat="48.75307" lon="1.83444">
        <ele>132.8</ele>
        <time>2009-12-05T22:45:59.000Z</time>
      </trkpt>
      <trkpt lat="48.75306" lon="1.8345">
        <ele>132.32</ele>
        <time>2009-12-05T22:46:00.000Z</time>
      </trkpt>
      <trkpt lat="48.75313" lon="1.83466">
        <ele>133.76</ele>
        <time>2009-12-05T22:46:04.000Z</time>
      </trkpt>
      <trkpt lat="48.75315" lon="1.83472">
        <ele>131.36</ele>
        <time>2009-12-05T22:46:06.000Z</time>
      </trkpt>
      <trkpt lat="48.75325" lon="1.83495">
        <ele>135.68</ele>
        <time>2009-12-05T22:46:12.000Z</time>
      </trkpt>
      <trkpt lat="48.75326" lon="1.83513">
        <ele>133.76</ele>
        <time>2009-12-05T22:46:16.000Z</time>
      </trkpt>
      <trkpt lat="48.75335" lon="1.83535">
        <ele>131.84</ele>
        <time>2009-12-05T22:46:22.000Z</time>
      </trkpt>
      <trkpt lat="48.7534" lon="1.8355">
        <ele>133.28</ele>
        <time>2009-12-05T22:46:26.000Z</time>
      </trkpt>
      <trkpt lat="48.75351" lon="1.83542">
        <ele>130.88</ele>
        <time>2009-12-05T22:46:30.000Z</time>
      </trkpt>
      <trkpt lat="48.7536" lon="1.83535">
        <ele>131.84</ele>
        <time>2009-12-05T22:46:33.000Z</time>
      </trkpt>
      <trkpt lat="48.75371" lon="1.83526">
        <ele>131.84</ele>
        <time>2009-12-05T22:46:38.000Z</time>
      </trkpt>
      <trkpt lat="48.75386" lon="1.83511">
        <ele>128.47</ele>
        <time>2009-12-05T22:46:44.000Z</time>
      </trkpt>
      <trkpt lat="48.75402" lon="1.83498">
        <ele>133.28</ele>
        <time>2009-12-05T22:46:50.000Z</time>
      </trkpt>
      <trkpt lat="48.75413" lon="1.83489">
        <ele>131.84</ele>
        <time>2009-12-05T22:46:55.000Z</time>
      </trkpt>
      <trkpt lat="48.75423" lon="1.83482">
        <ele>131.84</ele>
        <time>2009-12-05T22:46:59.000Z</time>
      </trkpt>
      <trkpt lat="48.7544" lon="1.83464">
        <ele>129.92</ele>
        <time>2009-12-05T22:47:05.000Z</time>
      </trkpt>
      <trkpt lat="48.75452" lon="1.83456">
        <ele>130.88</ele>
        <time>2009-12-05T22:47:10.000Z</time>
      </trkpt>
      <trkpt lat="48.75458" lon="1.83451">
        <ele>128.95</ele>
        <time>2009-12-05T22:47:12.000Z</time>
      </trkpt>
      <trkpt lat="48.75468" lon="1.83441">
        <ele>128.47</ele>
        <time>2009-12-05T22:47:17.000Z</time>
      </trkpt>
      <trkpt lat="48.75477" lon="1.83437">
        <ele>132.32</ele>
        <time>2009-12-05T22:47:20.000Z</time>
      </trkpt>
      <trkpt lat="48.75486" lon="1.83429">
        <ele>128.95</ele>
        <time>2009-12-05T22:47:25.000Z</time>
      </trkpt>
      <trkpt lat="48.75497" lon="1.83414">
        <ele>124.63</ele>
        <time>2009-12-05T22:47:31.000Z</time>
      </trkpt>
      <trkpt lat="48.75508" lon="1.83405">
        <ele>122.22</ele>
        <time>2009-12-05T22:47:36.000Z</time>
      </trkpt>
      <trkpt lat="48.75521" lon="1.83395">
        <ele>123.67</ele>
        <time>2009-12-05T22:47:41.000Z</time>
      </trkpt>
      <trkpt lat="48.75532" lon="1.83384">
        <ele>120.3</ele>
        <time>2009-12-05T22:47:46.000Z</time>
      </trkpt>
      <trkpt lat="48.75542" lon="1.83375">
        <ele>117.42</ele>
        <time>2009-12-05T22:47:50.000Z</time>
      </trkpt>
      <trkpt lat="48.75547" lon="1.8337">
        <ele>116.46</ele>
        <time>2009-12-05T22:47:53.000Z</time>
      </trkpt>
      <trkpt lat="48.75551" lon="1.83363">
        <ele>114.05</ele>
        <time>2009-12-05T22:47:57.000Z</time>
      </trkpt>
      <trkpt lat="48.75553" lon="1.83351">
        <ele>109.73</ele>
        <time>2009-12-05T22:48:00.000Z</time>
      </trkpt>
      <trkpt lat="48.75552" lon="1.83344">
        <ele>107.81</ele>
        <time>2009-12-05T22:48:02.000Z</time>
      </trkpt>
      <trkpt lat="48.75547" lon="1.83335">
        <ele>106.84</ele>
        <time>2009-12-05T22:48:06.000Z</time>
      </trkpt>
      <trkpt lat="48.7554" lon="1.83318">
        <ele>107.81</ele>
        <time>2009-12-05T22:48:12.000Z</time>
      </trkpt>
      <trkpt lat="48.75537" lon="1.83307">
        <ele>110.21</ele>
        <time>2009-12-05T22:48:15.000Z</time>
      </trkpt>
      <trkpt lat="48.75539" lon="1.83302">
        <ele>111.65</ele>
        <time>2009-12-05T22:48:18.000Z</time>
      </trkpt>
      <trkpt lat="48.75548" lon="1.83284">
        <ele>112.61</ele>
        <time>2009-12-05T22:48:24.000Z</time>
      </trkpt>
      <trkpt lat="48.7555" lon="1.8328">
        <ele>113.09</ele>
        <time>2009-12-05T22:48:25.000Z</time>
      </trkpt>
      <trkpt lat="48.75558" lon="1.83266">
        <ele>112.61</ele>
        <time>2009-12-05T22:48:30.000Z</time>
      </trkpt>
      <trkpt lat="48.75563" lon="1.83258">
        <ele>115.01</ele>
        <time>2009-12-05T22:48:35.000Z</time>
      </trkpt>
      <trkpt lat="48.75565" lon="1.83256">
        <ele>114.53</ele>
        <time>2009-12-05T22:48:36.000Z</time>
      </trkpt>
      <trkpt lat="48.75568" lon="1.83236">
        <ele>114.53</ele>
        <time>2009-12-05T22:48:42.000Z</time>
      </trkpt>
      <trkpt lat="48.75564" lon="1.8322">
        <ele>113.57</ele>
        <time>2009-12-05T22:48:46.000Z</time>
      </trkpt>
      <trkpt lat="48.7556" lon="1.83199">
        <ele>113.57</ele>
        <time>2009-12-05T22:48:52.000Z</time>
      </trkpt>
      <trkpt lat="48.75564" lon="1.83185">
        <ele>112.13</ele>
        <time>2009-12-05T22:48:56.000Z</time>
      </trkpt>
      <trkpt lat="48.75571" lon="1.83176">
        <ele>110.21</ele>
        <time>2009-12-05T22:49:00.000Z</time>
      </trkpt>
      <trkpt lat="48.75587" lon="1.83167">
        <ele>114.05</ele>
        <time>2009-12-05T22:49:05.000Z</time>
      </trkpt>
      <trkpt lat="48.7559" lon="1.83166">
        <ele>115.98</ele>
        <time>2009-12-05T22:49:06.000Z</time>
      </trkpt>
      <trkpt lat="48.75597" lon="1.83158">
        <ele>115.01</ele>
        <time>2009-12-05T22:49:09.000Z</time>
      </trkpt>
      <trkpt lat="48.75603" lon="1.83153">
        <ele>113.09</ele>
        <time>2009-12-05T22:49:12.000Z</time>
      </trkpt>
      <trkpt lat="48.7561" lon="1.83149">
        <ele>109.73</ele>
        <time>2009-12-05T22:49:15.000Z</time>
      </trkpt>
      <trkpt lat="48.75623" lon="1.83137">
        <ele>107.81</ele>
        <time>2009-12-05T22:49:21.000Z</time>
      </trkpt>
      <trkpt lat="48.75639" lon="1.83128">
        <ele>111.65</ele>
        <time>2009-12-05T22:49:26.000Z</time>
      </trkpt>
      <trkpt lat="48.75654" lon="1.83121">
        <ele>115.01</ele>
        <time>2009-12-05T22:49:30.000Z</time>
      </trkpt>
      <trkpt lat="48.75669" lon="1.8311">
        <ele>116.94</ele>
        <time>2009-12-05T22:49:36.000Z</time>
      </trkpt>
      <trkpt lat="48.75681" lon="1.83101">
        <ele>112.61</ele>
        <time>2009-12-05T22:49:41.000Z</time>
      </trkpt>
      <trkpt lat="48.75691" lon="1.83092">
        <ele>110.21</ele>
        <time>2009-12-05T22:49:46.000Z</time>
      </trkpt>
      <trkpt lat="48.75698" lon="1.83085">
        <ele>108.77</ele>
        <time>2009-12-05T22:49:49.000Z</time>
      </trkpt>
      <trkpt lat="48.75707" lon="1.83068">
        <ele>105.4</ele>
        <time>2009-12-05T22:49:55.000Z</time>
      </trkpt>
      <trkpt lat="48.75711" lon="1.83058">
        <ele>103.48</ele>
        <time>2009-12-05T22:49:58.000Z</time>
      </trkpt>
      <trkpt lat="48.75715" lon="1.83032">
        <ele>103.48</ele>
        <time>2009-12-05T22:50:05.000Z</time>
      </trkpt>
      <trkpt lat="48.75723" lon="1.83012">
        <ele>99.15</ele>
        <time>2009-12-05T22:50:10.000Z</time>
      </trkpt>
      <trkpt lat="48.75728" lon="1.82996">
        <ele>97.23</ele>
        <time>2009-12-05T22:50:14.000Z</time>
      </trkpt>
      <trkpt lat="48.7573" lon="1.82981">
        <ele>101.56</ele>
        <time>2009-12-05T22:50:19.000Z</time>
      </trkpt>
      <trkpt lat="48.7573" lon="1.82977">
        <ele>102.52</ele>
        <time>2009-12-05T22:50:20.000Z</time>
      </trkpt>
      <trkpt lat="48.75734" lon="1.82951">
        <ele>103.48</ele>
        <time>2009-12-05T22:50:27.000Z</time>
      </trkpt>
      <trkpt lat="48.75738" lon="1.82935">
        <ele>103.48</ele>
        <time>2009-12-05T22:50:32.000Z</time>
      </trkpt>
      <trkpt lat="48.75746" lon="1.82911">
        <ele>103</ele>
        <time>2009-12-05T22:50:38.000Z</time>
      </trkpt>
      <trkpt lat="48.75749" lon="1.82902">
        <ele>102.52</ele>
        <time>2009-12-05T22:50:41.000Z</time>
      </trkpt>
      <trkpt lat="48.75753" lon="1.82888">
        <ele>101.56</ele>
        <time>2009-12-05T22:50:46.000Z</time>
      </trkpt>
      <trkpt lat="48.75762" lon="1.82868">
        <ele>100.11</ele>
        <time>2009-12-05T22:50:52.000Z</time>
      </trkpt>
      <trkpt lat="48.75763" lon="1.82865">
        <ele>99.63</ele>
        <time>2009-12-05T22:50:53.000Z</time>
      </trkpt>
      <trkpt lat="48.75768" lon="1.82847">
        <ele>103</ele>
        <time>2009-12-05T22:50:59.000Z</time>
      </trkpt>
      <trkpt lat="48.75772" lon="1.82833">
        <ele>103.96</ele>
        <time>2009-12-05T22:51:04.000Z</time>
      </trkpt>
      <trkpt lat="48.75776" lon="1.82819">
        <ele>105.4</ele>
        <time>2009-12-05T22:51:09.000Z</time>
      </trkpt>
      <trkpt lat="48.75776" lon="1.82811">
        <ele>106.36</ele>
        <time>2009-12-05T22:51:12.000Z</time>
      </trkpt>
      <trkpt lat="48.75782" lon="1.82793">
        <ele>108.77</ele>
        <time>2009-12-05T22:51:18.000Z</time>
      </trkpt>
      <trkpt lat="48.75789" lon="1.82779">
        <ele>111.65</ele>
        <time>2009-12-05T22:51:23.000Z</time>
      </trkpt>
      <trkpt lat="48.75792" lon="1.8277">
        <ele>111.65</ele>
        <time>2009-12-05T22:51:26.000Z</time>
      </trkpt>
      <trkpt lat="48.75798" lon="1.82753">
        <ele>109.25</ele>
        <time>2009-12-05T22:51:32.000Z</time>
      </trkpt>
      <trkpt lat="48.75803" lon="1.82743">
        <ele>112.13</ele>
        <time>2009-12-05T22:51:37.000Z</time>
      </trkpt>
      <trkpt lat="48.75812" lon="1.82727">
        <ele>112.61</ele>
        <time>2009-12-05T22:51:45.000Z</time>
      </trkpt>
      <trkpt lat="48.75821" lon="1.82715">
        <ele>113.57</ele>
        <time>2009-12-05T22:51:52.000Z</time>
      </trkpt>
      <trkpt lat="48.75827" lon="1.82698">
        <ele>111.65</ele>
        <time>2009-12-05T22:52:00.000Z</time>
      </trkpt>
      <trkpt lat="48.7583" lon="1.82688">
        <ele>110.69</ele>
        <time>2009-12-05T22:52:05.000Z</time>
      </trkpt>
      <trkpt lat="48.75834" lon="1.82679">
        <ele>111.65</ele>
        <time>2009-12-05T22:52:11.000Z</time>
      </trkpt>
      <trkpt lat="48.75838" lon="1.8267">
        <ele>113.57</ele>
        <time>2009-12-05T22:52:15.000Z</time>
      </trkpt>
      <trkpt lat="48.7584" lon="1.82662">
        <ele>115.98</ele>
        <time>2009-12-05T22:52:20.000Z</time>
      </trkpt>
      <trkpt lat="48.75842" lon="1.82658">
        <ele>115.01</ele>
        <time>2009-12-05T22:52:22.000Z</time>
      </trkpt>
      <trkpt lat="48.75846" lon="1.82646">
        <ele>114.53</ele>
        <time>2009-12-05T22:52:28.000Z</time>
      </trkpt>
      <trkpt lat="48.75848" lon="1.82642">
        <ele>114.05</ele>
        <time>2009-12-05T22:52:30.000Z</time>
      </trkpt>
      <trkpt lat="48.75856" lon="1.82631">
        <ele>115.01</ele>
        <time>2009-12-05T22:52:37.000Z</time>
      </trkpt>
      <trkpt lat="48.75859" lon="1.82625">
        <ele>114.53</ele>
        <time>2009-12-05T22:52:41.000Z</time>
      </trkpt>
      <trkpt lat="48.75863" lon="1.82621">
        <ele>114.05</ele>
        <time>2009-12-05T22:52:44.000Z</time>
      </trkpt>
      <trkpt lat="48.75869" lon="1.8261">
        <ele>117.9</ele>
        <time>2009-12-05T22:52:49.000Z</time>
      </trkpt>
      <trkpt lat="48.75879" lon="1.82597">
        <ele>118.86</ele>
        <time>2009-12-05T22:52:56.000Z</time>
      </trkpt>
      <trkpt lat="48.75886" lon="1.82588">
        <ele>116.46</ele>
        <time>2009-12-05T22:53:03.000Z</time>
      </trkpt>
      <trkpt lat="48.75889" lon="1.82581">
        <ele>116.94</ele>
        <time>2009-12-05T22:53:07.000Z</time>
      </trkpt>
      <trkpt lat="48.75893" lon="1.82576">
        <ele>117.42</ele>
        <time>2009-12-05T22:53:11.000Z</time>
      </trkpt>
      <trkpt lat="48.75899" lon="1.8257">
        <ele>117.42</ele>
        <time>2009-12-05T22:53:15.000Z</time>
      </trkpt>
      <trkpt lat="48.75906" lon="1.82559">
        <ele>119.34</ele>
        <time>2009-12-05T22:53:20.000Z</time>
      </trkpt>
      <trkpt lat="48.75914" lon="1.82547">
        <ele>117.9</ele>
        <time>2009-12-05T22:53:25.000Z</time>
      </trkpt>
      <trkpt lat="48.75928" lon="1.82531">
        <ele>118.38</ele>
        <time>2009-12-05T22:53:30.000Z</time>
      </trkpt>
      <trkpt lat="48.75935" lon="1.82523">
        <ele>120.78</ele>
        <time>2009-12-05T22:53:34.000Z</time>
      </trkpt>
      <trkpt lat="48.75937" lon="1.8252">
        <ele>120.78</ele>
        <time>2009-12-05T22:53:36.000Z</time>
      </trkpt>
      <trkpt lat="48.75954" lon="1.82521">
        <ele>119.34</ele>
        <time>2009-12-05T22:53:43.000Z</time>
      </trkpt>
      <trkpt lat="48.75966" lon="1.82527">
        <ele>116.94</ele>
        <time>2009-12-05T22:53:48.000Z</time>
      </trkpt>
      <trkpt lat="48.75972" lon="1.82532">
        <ele>117.42</ele>
        <time>2009-12-05T22:53:51.000Z</time>
      </trkpt>
      <trkpt lat="48.75983" lon="1.82537">
        <ele>120.3</ele>
        <time>2009-12-05T22:53:56.000Z</time>
      </trkpt>
      <trkpt lat="48.75985" lon="1.82535">
        <ele>120.78</ele>
        <time>2009-12-05T22:53:57.000Z</time>
      </trkpt>
      <trkpt lat="48.7599" lon="1.82529">
        <ele>120.3</ele>
        <time>2009-12-05T22:54:00.000Z</time>
      </trkpt>
      <trkpt lat="48.75998" lon="1.82522">
        <ele>123.19</ele>
        <time>2009-12-05T22:54:05.000Z</time>
      </trkpt>
      <trkpt lat="48.76005" lon="1.82512">
        <ele>122.71</ele>
        <time>2009-12-05T22:54:11.000Z</time>
      </trkpt>
      <trkpt lat="48.76013" lon="1.82501">
        <ele>122.22</ele>
        <time>2009-12-05T22:54:18.000Z</time>
      </trkpt>
      <trkpt lat="48.76021" lon="1.82491">
        <ele>120.3</ele>
        <time>2009-12-05T22:54:23.000Z</time>
      </trkpt>
      <trkpt lat="48.76022" lon="1.82489">
        <ele>121.26</ele>
        <time>2009-12-05T22:54:24.000Z</time>
      </trkpt>
      <trkpt lat="48.7603" lon="1.82477">
        <ele>123.19</ele>
        <time>2009-12-05T22:54:30.000Z</time>
      </trkpt>
      <trkpt lat="48.76035" lon="1.8247">
        <ele>124.15</ele>
        <time>2009-12-05T22:54:33.000Z</time>
      </trkpt>
      <trkpt lat="48.7604" lon="1.82459">
        <ele>130.88</ele>
        <time>2009-12-05T22:54:39.000Z</time>
      </trkpt>
      <trkpt lat="48.76043" lon="1.82453">
        <ele>132.32</ele>
        <time>2009-12-05T22:54:43.000Z</time>
      </trkpt>
      <trkpt lat="48.76048" lon="1.82437">
        <ele>131.36</ele>
        <time>2009-12-05T22:54:49.000Z</time>
      </trkpt>
      <trkpt lat="48.76057" lon="1.82418">
        <ele>129.92</ele>
        <time>2009-12-05T22:54:56.000Z</time>
      </trkpt>
      <trkpt lat="48.76067" lon="1.82405">
        <ele>127.99</ele>
        <time>2009-12-05T22:55:01.000Z</time>
      </trkpt>
      <trkpt lat="48.76079" lon="1.8239">
        <ele>128.47</ele>
        <time>2009-12-05T22:55:08.000Z</time>
      </trkpt>
      <trkpt lat="48.76085" lon="1.82381">
        <ele>127.51</ele>
        <time>2009-12-05T22:55:12.000Z</time>
      </trkpt>
      <trkpt lat="48.76095" lon="1.82368">
        <ele>124.63</ele>
        <time>2009-12-05T22:55:18.000Z</time>
      </trkpt>
      <trkpt lat="48.76103" lon="1.82359">
        <ele>125.59</ele>
        <time>2009-12-05T22:55:24.000Z</time>
      </trkpt>
      <trkpt lat="48.76108" lon="1.82355">
        <ele>127.99</ele>
        <time>2009-12-05T22:55:29.000Z</time>
      </trkpt>
      <trkpt lat="48.76115" lon="1.8235">
        <ele>130.4</ele>
        <time>2009-12-05T22:55:34.000Z</time>
      </trkpt>
      <trkpt lat="48.76116" lon="1.82348">
        <ele>130.4</ele>
        <time>2009-12-05T22:55:35.000Z</time>
      </trkpt>
      <trkpt lat="48.76122" lon="1.82344">
        <ele>132.8</ele>
        <time>2009-12-05T22:55:39.000Z</time>
      </trkpt>
      <trkpt lat="48.76132" lon="1.82332">
        <ele>133.76</ele>
        <time>2009-12-05T22:55:46.000Z</time>
      </trkpt>
      <trkpt lat="48.7614" lon="1.82322">
        <ele>133.76</ele>
        <time>2009-12-05T22:55:51.000Z</time>
      </trkpt>
      <trkpt lat="48.76149" lon="1.8231">
        <ele>135.2</ele>
        <time>2009-12-05T22:55:56.000Z</time>
      </trkpt>
      <trkpt lat="48.7616" lon="1.82298">
        <ele>133.28</ele>
        <time>2009-12-05T22:56:01.000Z</time>
      </trkpt>
      <trkpt lat="48.76172" lon="1.82288">
        <ele>132.32</ele>
        <time>2009-12-05T22:56:06.000Z</time>
      </trkpt>
      <trkpt lat="48.76189" lon="1.82274">
        <ele>133.28</ele>
        <time>2009-12-05T22:56:12.000Z</time>
      </trkpt>
      <trkpt lat="48.76196" lon="1.82261">
        <ele>132.8</ele>
        <time>2009-12-05T22:56:16.000Z</time>
      </trkpt>
      <trkpt lat="48.76199" lon="1.82245">
        <ele>131.36</ele>
        <time>2009-12-05T22:56:21.000Z</time>
      </trkpt>
      <trkpt lat="48.76202" lon="1.82231">
        <ele>131.84</ele>
        <time>2009-12-05T22:56:26.000Z</time>
      </trkpt>
      <trkpt lat="48.76206" lon="1.82219">
        <ele>131.36</ele>
        <time>2009-12-05T22:56:30.000Z</time>
      </trkpt>
      <trkpt lat="48.7621" lon="1.82197">
        <ele>132.32</ele>
        <time>2009-12-05T22:56:36.000Z</time>
      </trkpt>
      <trkpt lat="48.76214" lon="1.82176">
        <ele>132.32</ele>
        <time>2009-12-05T22:56:42.000Z</time>
      </trkpt>
      <trkpt lat="48.76215" lon="1.82166">
        <ele>132.8</ele>
        <time>2009-12-05T22:56:45.000Z</time>
      </trkpt>
      <trkpt lat="48.76214" lon="1.8215">
        <ele>137.61</ele>
        <time>2009-12-05T22:56:50.000Z</time>
      </trkpt>
      <trkpt lat="48.76217" lon="1.82138">
        <ele>140.49</ele>
        <time>2009-12-05T22:56:53.000Z</time>
      </trkpt>
      <trkpt lat="48.76221" lon="1.82118">
        <ele>146.74</ele>
        <time>2009-12-05T22:57:00.000Z</time>
      </trkpt>
      <trkpt lat="48.76222" lon="1.82108">
        <ele>147.7</ele>
        <time>2009-12-05T22:57:05.000Z</time>
      </trkpt>
      <trkpt lat="48.76222" lon="1.82098">
        <ele>146.74</ele>
        <time>2009-12-05T22:57:10.000Z</time>
      </trkpt>
      <trkpt lat="48.76223" lon="1.82081">
        <ele>145.3</ele>
        <time>2009-12-05T22:57:18.000Z</time>
      </trkpt>
      <trkpt lat="48.76227" lon="1.82068">
        <ele>149.62</ele>
        <time>2009-12-05T22:57:23.000Z</time>
      </trkpt>
      <trkpt lat="48.76228" lon="1.82057">
        <ele>151.54</ele>
        <time>2009-12-05T22:57:28.000Z</time>
      </trkpt>
      <trkpt lat="48.76231" lon="1.82046">
        <ele>147.22</ele>
        <time>2009-12-05T22:57:33.000Z</time>
      </trkpt>
      <trkpt lat="48.76236" lon="1.82033">
        <ele>147.7</ele>
        <time>2009-12-05T22:57:39.000Z</time>
      </trkpt>
      <trkpt lat="48.76239" lon="1.82026">
        <ele>152.03</ele>
        <time>2009-12-05T22:57:45.000Z</time>
      </trkpt>
      <trkpt lat="48.7625" lon="1.82017">
        <ele>152.99</ele>
        <time>2009-12-05T22:57:55.000Z</time>
      </trkpt>
      <trkpt lat="48.76254" lon="1.82017">
        <ele>152.03</ele>
        <time>2009-12-05T22:57:58.000Z</time>
      </trkpt>
      <trkpt lat="48.76265" lon="1.82014">
        <ele>150.58</ele>
        <time>2009-12-05T22:58:05.000Z</time>
      </trkpt>
      <trkpt lat="48.76272" lon="1.82011">
        <ele>152.51</ele>
        <time>2009-12-05T22:58:09.000Z</time>
      </trkpt>
      <trkpt lat="48.76276" lon="1.82005">
        <ele>152.03</ele>
        <time>2009-12-05T22:58:11.000Z</time>
      </trkpt>
      <trkpt lat="48.76278" lon="1.81998">
        <ele>152.03</ele>
        <time>2009-12-05T22:58:14.000Z</time>
      </trkpt>
      <trkpt lat="48.76279" lon="1.81991">
        <ele>155.87</ele>
        <time>2009-12-05T22:58:18.000Z</time>
      </trkpt>
      <trkpt lat="48.76282" lon="1.81978">
        <ele>155.39</ele>
        <time>2009-12-05T22:58:25.000Z</time>
      </trkpt>
      <trkpt lat="48.76284" lon="1.81966">
        <ele>158.27</ele>
        <time>2009-12-05T22:58:31.000Z</time>
      </trkpt>
      <trkpt lat="48.76289" lon="1.81957">
        <ele>157.31</ele>
        <time>2009-12-05T22:58:34.000Z</time>
      </trkpt>
      <trkpt lat="48.76292" lon="1.81948">
        <ele>158.75</ele>
        <time>2009-12-05T22:58:38.000Z</time>
      </trkpt>
      <trkpt lat="48.76293" lon="1.81942">
        <ele>158.27</ele>
        <time>2009-12-05T22:58:41.000Z</time>
      </trkpt>
      <trkpt lat="48.76293" lon="1.81936">
        <ele>158.75</ele>
        <time>2009-12-05T22:58:43.000Z</time>
      </trkpt>
      <trkpt lat="48.76291" lon="1.81919">
        <ele>159.24</ele>
        <time>2009-12-05T22:58:48.000Z</time>
      </trkpt>
      <trkpt lat="48.76291" lon="1.81912">
        <ele>158.75</ele>
        <time>2009-12-05T22:58:50.000Z</time>
      </trkpt>
      <trkpt lat="48.76291" lon="1.81898">
        <ele>159.72</ele>
        <time>2009-12-05T22:58:55.000Z</time>
      </trkpt>
      <trkpt lat="48.76292" lon="1.81894">
        <ele>159.24</ele>
        <time>2009-12-05T22:58:56.000Z</time>
      </trkpt>
      <trkpt lat="48.76292" lon="1.81888">
        <ele>159.72</ele>
        <time>2009-12-05T22:58:58.000Z</time>
      </trkpt>
      <trkpt lat="48.76295" lon="1.81874">
        <ele>160.68</ele>
        <time>2009-12-05T22:59:02.000Z</time>
      </trkpt>
      <trkpt lat="48.76297" lon="1.81857">
        <ele>158.75</ele>
        <time>2009-12-05T22:59:07.000Z</time>
      </trkpt>
      <trkpt lat="48.76298" lon="1.8185">
        <ele>159.24</ele>
        <time>2009-12-05T22:59:09.000Z</time>
      </trkpt>
      <trkpt lat="48.76303" lon="1.8183">
        <ele>157.79</ele>
        <time>2009-12-05T22:59:16.000Z</time>
      </trkpt>
      <trkpt lat="48.763" lon="1.8181">
        <ele>156.83</ele>
        <time>2009-12-05T22:59:22.000Z</time>
      </trkpt>
      <trkpt lat="48.76299" lon="1.81807">
        <ele>156.83</ele>
        <time>2009-12-05T22:59:23.000Z</time>
      </trkpt>
      <trkpt lat="48.76295" lon="1.81793">
        <ele>159.24</ele>
        <time>2009-12-05T22:59:27.000Z</time>
      </trkpt>
      <trkpt lat="48.7629" lon="1.81777">
        <ele>163.08</ele>
        <time>2009-12-05T22:59:33.000Z</time>
      </trkpt>
      <trkpt lat="48.76281" lon="1.8176">
        <ele>165.96</ele>
        <time>2009-12-05T22:59:38.000Z</time>
      </trkpt>
      <trkpt lat="48.76276" lon="1.81744">
        <ele>164.04</ele>
        <time>2009-12-05T22:59:42.000Z</time>
      </trkpt>
      <trkpt lat="48.7627" lon="1.81731">
        <ele>162.12</ele>
        <time>2009-12-05T22:59:46.000Z</time>
      </trkpt>
      <trkpt lat="48.76265" lon="1.81726">
        <ele>164.04</ele>
        <time>2009-12-05T22:59:48.000Z</time>
      </trkpt>
      <trkpt lat="48.76257" lon="1.81718">
        <ele>166.45</ele>
        <time>2009-12-05T22:59:52.000Z</time>
      </trkpt>
      <trkpt lat="48.76248" lon="1.81715">
        <ele>167.41</ele>
        <time>2009-12-05T22:59:55.000Z</time>
      </trkpt>
      <trkpt lat="48.76239" lon="1.81719">
        <ele>168.85</ele>
        <time>2009-12-05T22:59:59.000Z</time>
      </trkpt>
      <trkpt lat="48.76228" lon="1.81726">
        <ele>166.45</ele>
        <time>2009-12-05T23:00:05.000Z</time>
      </trkpt>
      <trkpt lat="48.76218" lon="1.81731">
        <ele>166.93</ele>
        <time>2009-12-05T23:00:10.000Z</time>
      </trkpt>
      <trkpt lat="48.76203" lon="1.81736">
        <ele>170.29</ele>
        <time>2009-12-05T23:00:16.000Z</time>
      </trkpt>
      <trkpt lat="48.76187" lon="1.81746">
        <ele>173.17</ele>
        <time>2009-12-05T23:00:21.000Z</time>
      </trkpt>
      <trkpt lat="48.76176" lon="1.81754">
        <ele>173.17</ele>
        <time>2009-12-05T23:00:26.000Z</time>
      </trkpt>
      <trkpt lat="48.76169" lon="1.81762">
        <ele>170.77</ele>
        <time>2009-12-05T23:00:30.000Z</time>
      </trkpt>
      <trkpt lat="48.7616" lon="1.81777">
        <ele>169.81</ele>
        <time>2009-12-05T23:00:35.000Z</time>
      </trkpt>
      <trkpt lat="48.76156" lon="1.81798">
        <ele>165.48</ele>
        <time>2009-12-05T23:00:41.000Z</time>
      </trkpt>
      <trkpt lat="48.7616" lon="1.8181">
        <ele>164.52</ele>
        <time>2009-12-05T23:00:45.000Z</time>
      </trkpt>
      <trkpt lat="48.7616" lon="1.81824">
        <ele>162.12</ele>
        <time>2009-12-05T23:00:48.000Z</time>
      </trkpt>
      <trkpt lat="48.76164" lon="1.81839">
        <ele>158.75</ele>
        <time>2009-12-05T23:00:52.000Z</time>
      </trkpt>
      <trkpt lat="48.76164" lon="1.8185">
        <ele>158.75</ele>
        <time>2009-12-05T23:00:55.000Z</time>
      </trkpt>
      <trkpt lat="48.76165" lon="1.81865">
        <ele>159.72</ele>
        <time>2009-12-05T23:00:59.000Z</time>
      </trkpt>
      <trkpt lat="48.76167" lon="1.81884">
        <ele>159.72</ele>
        <time>2009-12-05T23:01:05.000Z</time>
      </trkpt>
      <trkpt lat="48.76166" lon="1.81892">
        <ele>159.72</ele>
        <time>2009-12-05T23:01:07.000Z</time>
      </trkpt>
      <trkpt lat="48.76156" lon="1.81923">
        <ele>159.72</ele>
        <time>2009-12-05T23:01:14.000Z</time>
      </trkpt>
      <trkpt lat="48.76152" lon="1.81932">
        <ele>161.64</ele>
        <time>2009-12-05T23:01:18.000Z</time>
      </trkpt>
      <trkpt lat="48.76147" lon="1.81937">
        <ele>162.6</ele>
        <time>2009-12-05T23:01:20.000Z</time>
      </trkpt>
      <trkpt lat="48.76144" lon="1.81944">
        <ele>160.68</ele>
        <time>2009-12-05T23:01:23.000Z</time>
      </trkpt>
      <trkpt lat="48.76141" lon="1.81962">
        <ele>161.16</ele>
        <time>2009-12-05T23:01:28.000Z</time>
      </trkpt>
      <trkpt lat="48.76135" lon="1.81981">
        <ele>158.75</ele>
        <time>2009-12-05T23:01:34.000Z</time>
      </trkpt>
      <trkpt lat="48.76133" lon="1.81985">
        <ele>156.83</ele>
        <time>2009-12-05T23:01:37.000Z</time>
      </trkpt>
      <trkpt lat="48.76123" lon="1.81985">
        <ele>160.2</ele>
        <time>2009-12-05T23:01:42.000Z</time>
      </trkpt>
      <trkpt lat="48.76121" lon="1.81984">
        <ele>159.72</ele>
        <time>2009-12-05T23:01:43.000Z</time>
      </trkpt>
      <trkpt lat="48.76108" lon="1.81996">
        <ele>161.64</ele>
        <time>2009-12-05T23:01:51.000Z</time>
      </trkpt>
      <trkpt lat="48.76096" lon="1.82004">
        <ele>162.12</ele>
        <time>2009-12-05T23:01:56.000Z</time>
      </trkpt>
      <trkpt lat="48.76087" lon="1.82013">
        <ele>162.6</ele>
        <time>2009-12-05T23:02:01.000Z</time>
      </trkpt>
      <trkpt lat="48.76085" lon="1.82016">
        <ele>162.12</ele>
        <time>2009-12-05T23:02:04.000Z</time>
      </trkpt>
      <trkpt lat="48.76083" lon="1.82017">
        <ele>158.75</ele>
        <time>2009-12-05T23:02:08.000Z</time>
      </trkpt>
      <trkpt lat="48.76077" lon="1.82008">
        <ele>154.43</ele>
        <time>2009-12-05T23:02:13.000Z</time>
      </trkpt>
      <trkpt lat="48.76075" lon="1.82008">
        <ele>154.43</ele>
        <time>2009-12-05T23:02:14.000Z</time>
      </trkpt>
      <trkpt lat="48.76068" lon="1.82019">
        <ele>154.91</ele>
        <time>2009-12-05T23:02:18.000Z</time>
      </trkpt>
      <trkpt lat="48.76057" lon="1.82036">
        <ele>154.43</ele>
        <time>2009-12-05T23:02:24.000Z</time>
      </trkpt>
      <trkpt lat="48.76046" lon="1.82048">
        <ele>159.24</ele>
        <time>2009-12-05T23:02:29.000Z</time>
      </trkpt>
      <trkpt lat="48.76044" lon="1.82063">
        <ele>158.27</ele>
        <time>2009-12-05T23:02:33.000Z</time>
      </trkpt>
      <trkpt lat="48.76038" lon="1.82075">
        <ele>156.35</ele>
        <time>2009-12-05T23:02:37.000Z</time>
      </trkpt>
      <trkpt lat="48.76034" lon="1.82081">
        <ele>154.91</ele>
        <time>2009-12-05T23:02:40.000Z</time>
      </trkpt>
      <trkpt lat="48.76027" lon="1.82088">
        <ele>154.91</ele>
        <time>2009-12-05T23:02:44.000Z</time>
      </trkpt>
      <trkpt lat="48.76007" lon="1.82099">
        <ele>158.75</ele>
        <time>2009-12-05T23:02:51.000Z</time>
      </trkpt>
      <trkpt lat="48.76001" lon="1.82099">
        <ele>157.79</ele>
        <time>2009-12-05T23:02:55.000Z</time>
      </trkpt>
      <trkpt lat="48.75994" lon="1.82102">
        <ele>161.64</ele>
        <time>2009-12-05T23:02:58.000Z</time>
      </trkpt>
      <trkpt lat="48.7599" lon="1.82102">
        <ele>162.12</ele>
        <time>2009-12-05T23:03:01.000Z</time>
      </trkpt>
      <trkpt lat="48.7598" lon="1.82102">
        <ele>166.93</ele>
        <time>2009-12-05T23:03:08.000Z</time>
      </trkpt>
      <trkpt lat="48.75975" lon="1.821">
        <ele>164.52</ele>
        <time>2009-12-05T23:03:14.000Z</time>
      </trkpt>
      <trkpt lat="48.75966" lon="1.82098">
        <ele>160.2</ele>
        <time>2009-12-05T23:03:22.000Z</time>
      </trkpt>
      <trkpt lat="48.75955" lon="1.82106">
        <ele>158.27</ele>
        <time>2009-12-05T23:03:33.000Z</time>
      </trkpt>
      <trkpt lat="48.75955" lon="1.82108">
        <ele>158.75</ele>
        <time>2009-12-05T23:03:34.000Z</time>
      </trkpt>
      <trkpt lat="48.75951" lon="1.8212">
        <ele>158.75</ele>
        <time>2009-12-05T23:03:40.000Z</time>
      </trkpt>
      <trkpt lat="48.75949" lon="1.82124">
        <ele>158.75</ele>
        <time>2009-12-05T23:03:42.000Z</time>
      </trkpt>
      <trkpt lat="48.75944" lon="1.82141">
        <ele>161.16</ele>
        <time>2009-12-05T23:03:48.000Z</time>
      </trkpt>
      <trkpt lat="48.7594" lon="1.82155">
        <ele>160.68</ele>
        <time>2009-12-05T23:03:53.000Z</time>
      </trkpt>
      <trkpt lat="48.75937" lon="1.82159">
        <ele>159.24</ele>
        <time>2009-12-05T23:03:55.000Z</time>
      </trkpt>
      <trkpt lat="48.7593" lon="1.82174">
        <ele>157.31</ele>
        <time>2009-12-05T23:04:00.000Z</time>
      </trkpt>
      <trkpt lat="48.75927" lon="1.82181">
        <ele>156.83</ele>
        <time>2009-12-05T23:04:02.000Z</time>
      </trkpt>
      <trkpt lat="48.75919" lon="1.82205">
        <ele>156.35</ele>
        <time>2009-12-05T23:04:09.000Z</time>
      </trkpt>
      <trkpt lat="48.75918" lon="1.82213">
        <ele>155.87</ele>
        <time>2009-12-05T23:04:14.000Z</time>
      </trkpt>
      <trkpt lat="48.75913" lon="1.82215">
        <ele>154.91</ele>
        <time>2009-12-05T23:04:20.000Z</time>
      </trkpt>
      <trkpt lat="48.7591" lon="1.82212">
        <ele>155.39</ele>
        <time>2009-12-05T23:04:24.000Z</time>
      </trkpt>
      <trkpt lat="48.75905" lon="1.82216">
        <ele>155.87</ele>
        <time>2009-12-05T23:04:27.000Z</time>
      </trkpt>
      <trkpt lat="48.75896" lon="1.82216">
        <ele>157.31</ele>
        <time>2009-12-05T23:04:32.000Z</time>
      </trkpt>
      <trkpt lat="48.75893" lon="1.82214">
        <ele>155.39</ele>
        <time>2009-12-05T23:04:36.000Z</time>
      </trkpt>
      <trkpt lat="48.75882" lon="1.8221">
        <ele>151.06</ele>
        <time>2009-12-05T23:04:41.000Z</time>
      </trkpt>
      <trkpt lat="48.75876" lon="1.82205">
        <ele>153.95</ele>
        <time>2009-12-05T23:04:45.000Z</time>
      </trkpt>
      <trkpt lat="48.75868" lon="1.82198">
        <ele>157.31</ele>
        <time>2009-12-05T23:04:50.000Z</time>
      </trkpt>
      <trkpt lat="48.75862" lon="1.82194">
        <ele>157.79</ele>
        <time>2009-12-05T23:04:54.000Z</time>
      </trkpt>
      <trkpt lat="48.75853" lon="1.82192">
        <ele>160.2</ele>
        <time>2009-12-05T23:05:00.000Z</time>
      </trkpt>
      <trkpt lat="48.75842" lon="1.82188">
        <ele>159.72</ele>
        <time>2009-12-05T23:05:05.000Z</time>
      </trkpt>
      <trkpt lat="48.75834" lon="1.82179">
        <ele>155.39</ele>
        <time>2009-12-05T23:05:11.000Z</time>
      </trkpt>
      <trkpt lat="48.75834" lon="1.8217">
        <ele>151.54</ele>
        <time>2009-12-05T23:05:17.000Z</time>
      </trkpt>
      <trkpt lat="48.75833" lon="1.82164">
        <ele>150.1</ele>
        <time>2009-12-05T23:05:21.000Z</time>
      </trkpt>
      <trkpt lat="48.7583" lon="1.82151">
        <ele>150.58</ele>
        <time>2009-12-05T23:05:27.000Z</time>
      </trkpt>
      <trkpt lat="48.75828" lon="1.82141">
        <ele>150.1</ele>
        <time>2009-12-05T23:05:33.000Z</time>
      </trkpt>
      <trkpt lat="48.75816" lon="1.82136">
        <ele>154.43</ele>
        <time>2009-12-05T23:05:38.000Z</time>
      </trkpt>
      <trkpt lat="48.75808" lon="1.82138">
        <ele>159.24</ele>
        <time>2009-12-05T23:05:41.000Z</time>
      </trkpt>
      <trkpt lat="48.75797" lon="1.82141">
        <ele>162.12</ele>
        <time>2009-12-05T23:05:47.000Z</time>
      </trkpt>
      <trkpt lat="48.75796" lon="1.82139">
        <ele>162.12</ele>
        <time>2009-12-05T23:05:49.000Z</time>
      </trkpt>
      <trkpt lat="48.7579" lon="1.82139">
        <ele>163.08</ele>
        <time>2009-12-05T23:05:52.000Z</time>
      </trkpt>
      <trkpt lat="48.75784" lon="1.82144">
        <ele>163.08</ele>
        <time>2009-12-05T23:05:56.000Z</time>
      </trkpt>
      <trkpt lat="48.75776" lon="1.82146">
        <ele>161.16</ele>
        <time>2009-12-05T23:06:01.000Z</time>
      </trkpt>
      <trkpt lat="48.75771" lon="1.82147">
        <ele>158.75</ele>
        <time>2009-12-05T23:06:05.000Z</time>
      </trkpt>
      <trkpt lat="48.75765" lon="1.82146">
        <ele>154.43</ele>
        <time>2009-12-05T23:06:10.000Z</time>
      </trkpt>
      <trkpt lat="48.75757" lon="1.82153">
        <ele>151.06</ele>
        <time>2009-12-05T23:06:15.000Z</time>
      </trkpt>
      <trkpt lat="48.7575" lon="1.8216">
        <ele>151.54</ele>
        <time>2009-12-05T23:06:18.000Z</time>
      </trkpt>
      <trkpt lat="48.75734" lon="1.8215">
        <ele>150.1</ele>
        <time>2009-12-05T23:06:26.000Z</time>
      </trkpt>
      <trkpt lat="48.75724" lon="1.82147">
        <ele>149.14</ele>
        <time>2009-12-05T23:06:29.000Z</time>
      </trkpt>
      <trkpt lat="48.75712" lon="1.82139">
        <ele>146.74</ele>
        <time>2009-12-05T23:06:35.000Z</time>
      </trkpt>
      <trkpt lat="48.75702" lon="1.82138">
        <ele>145.78</ele>
        <time>2009-12-05T23:06:38.000Z</time>
      </trkpt>
      <trkpt lat="48.75694" lon="1.8213">
        <ele>146.74</ele>
        <time>2009-12-05T23:06:43.000Z</time>
      </trkpt>
      <trkpt lat="48.75695" lon="1.82124">
        <ele>146.26</ele>
        <time>2009-12-05T23:06:48.000Z</time>
      </trkpt>
      <trkpt lat="48.75693" lon="1.82075">
        <ele>143.85</ele>
        <time>2009-12-05T23:07:25.000Z</time>
      </trkpt>
      <trkpt lat="48.75693" lon="1.82071">
        <ele>147.22</ele>
        <time>2009-12-05T23:07:32.000Z</time>
      </trkpt>
      <trkpt lat="48.7569" lon="1.82069">
        <ele>152.03</ele>
        <time>2009-12-05T23:07:37.000Z</time>
      </trkpt>
      <trkpt lat="48.75694" lon="1.82057">
        <ele>150.1</ele>
        <time>2009-12-05T23:07:42.000Z</time>
      </trkpt>
      <trkpt lat="48.75691" lon="1.82059">
        <ele>152.51</ele>
        <time>2009-12-05T23:07:44.000Z</time>
      </trkpt>
      <trkpt lat="48.75694" lon="1.82048">
        <ele>150.1</ele>
        <time>2009-12-05T23:07:52.000Z</time>
      </trkpt>
      <trkpt lat="48.75696" lon="1.82042">
        <ele>151.54</ele>
        <time>2009-12-05T23:07:57.000Z</time>
      </trkpt>
      <trkpt lat="48.75702" lon="1.82029">
        <ele>152.51</ele>
        <time>2009-12-05T23:08:10.000Z</time>
      </trkpt>
      <trkpt lat="48.75702" lon="1.82009">
        <ele>159.24</ele>
        <time>2009-12-05T23:08:30.000Z</time>
      </trkpt>
      <trkpt lat="48.75704" lon="1.82">
        <ele>161.64</ele>
        <time>2009-12-05T23:08:33.000Z</time>
      </trkpt>
      <trkpt lat="48.75706" lon="1.81993">
        <ele>165.48</ele>
        <time>2009-12-05T23:08:38.000Z</time>
      </trkpt>
      <trkpt lat="48.75701" lon="1.8198">
        <ele>165.96</ele>
        <time>2009-12-05T23:08:46.000Z</time>
      </trkpt>
      <trkpt lat="48.75696" lon="1.81974">
        <ele>168.85</ele>
        <time>2009-12-05T23:08:49.000Z</time>
      </trkpt>
      <trkpt lat="48.75689" lon="1.81968">
        <ele>171.73</ele>
        <time>2009-12-05T23:08:52.000Z</time>
      </trkpt>
      <trkpt lat="48.75679" lon="1.81955">
        <ele>171.73</ele>
        <time>2009-12-05T23:08:57.000Z</time>
      </trkpt>
      <trkpt lat="48.75678" lon="1.8195">
        <ele>172.21</ele>
        <time>2009-12-05T23:08:58.000Z</time>
      </trkpt>
      <trkpt lat="48.7567" lon="1.81926">
        <ele>172.21</ele>
        <time>2009-12-05T23:09:05.000Z</time>
      </trkpt>
      <trkpt lat="48.75669" lon="1.81914">
        <ele>170.29</ele>
        <time>2009-12-05T23:09:08.000Z</time>
      </trkpt>
      <trkpt lat="48.75657" lon="1.81909">
        <ele>172.69</ele>
        <time>2009-12-05T23:09:13.000Z</time>
      </trkpt>
      <trkpt lat="48.75647" lon="1.81908">
        <ele>175.1</ele>
        <time>2009-12-05T23:09:16.000Z</time>
      </trkpt>
      <trkpt lat="48.75633" lon="1.81904">
        <ele>178.46</ele>
        <time>2009-12-05T23:09:21.000Z</time>
      </trkpt>
      <trkpt lat="48.75623" lon="1.81892">
        <ele>177.98</ele>
        <time>2009-12-05T23:09:26.000Z</time>
      </trkpt>
      <trkpt lat="48.75607" lon="1.81886">
        <ele>181.83</ele>
        <time>2009-12-05T23:09:32.000Z</time>
      </trkpt>
      <trkpt lat="48.75597" lon="1.81882">
        <ele>181.35</ele>
        <time>2009-12-05T23:09:36.000Z</time>
      </trkpt>
      <trkpt lat="48.75583" lon="1.81877">
        <ele>178.94</ele>
        <time>2009-12-05T23:09:42.000Z</time>
      </trkpt>
      <trkpt lat="48.75578" lon="1.81882">
        <ele>174.62</ele>
        <time>2009-12-05T23:09:46.000Z</time>
      </trkpt>
      <trkpt lat="48.75565" lon="1.81892">
        <ele>168.37</ele>
        <time>2009-12-05T23:09:52.000Z</time>
      </trkpt>
      <trkpt lat="48.75562" lon="1.81904">
        <ele>159.24</ele>
        <time>2009-12-05T23:09:57.000Z</time>
      </trkpt>
      <trkpt lat="48.75563" lon="1.8192">
        <ele>150.1</ele>
        <time>2009-12-05T23:10:03.000Z</time>
      </trkpt>
      <trkpt lat="48.75562" lon="1.81923">
        <ele>150.58</ele>
        <time>2009-12-05T23:10:04.000Z</time>
      </trkpt>
      <trkpt lat="48.75559" lon="1.81925">
        <ele>149.14</ele>
        <time>2009-12-05T23:10:09.000Z</time>
      </trkpt>
      <trkpt lat="48.75557" lon="1.81927">
        <ele>147.22</ele>
        <time>2009-12-05T23:10:11.000Z</time>
      </trkpt>
      <trkpt lat="48.75548" lon="1.81926">
        <ele>145.3</ele>
        <time>2009-12-05T23:10:16.000Z</time>
      </trkpt>
      <trkpt lat="48.75539" lon="1.81923">
        <ele>146.74</ele>
        <time>2009-12-05T23:10:21.000Z</time>
      </trkpt>
      <trkpt lat="48.75535" lon="1.81922">
        <ele>146.74</ele>
        <time>2009-12-05T23:10:23.000Z</time>
      </trkpt>
      <trkpt lat="48.75524" lon="1.81923">
        <ele>148.18</ele>
        <time>2009-12-05T23:10:27.000Z</time>
      </trkpt>
      <trkpt lat="48.75511" lon="1.81919">
        <ele>149.62</ele>
        <time>2009-12-05T23:10:32.000Z</time>
      </trkpt>
      <trkpt lat="48.75512" lon="1.81901">
        <ele>142.41</ele>
        <time>2009-12-05T23:10:38.000Z</time>
      </trkpt>
      <trkpt lat="48.75517" lon="1.81884">
        <ele>138.57</ele>
        <time>2009-12-05T23:10:42.000Z</time>
      </trkpt>
      <trkpt lat="48.75523" lon="1.81863">
        <ele>136.64</ele>
        <time>2009-12-05T23:10:47.000Z</time>
      </trkpt>
      <trkpt lat="48.75521" lon="1.81849">
        <ele>137.13</ele>
        <time>2009-12-05T23:10:53.000Z</time>
      </trkpt>
      <trkpt lat="48.75527" lon="1.81836">
        <ele>133.76</ele>
        <time>2009-12-05T23:10:59.000Z</time>
      </trkpt>
      <trkpt lat="48.75535" lon="1.8182">
        <ele>132.32</ele>
        <time>2009-12-05T23:11:13.000Z</time>
      </trkpt>
      <trkpt lat="48.75537" lon="1.81799">
        <ele>139.53</ele>
        <time>2009-12-05T23:11:39.000Z</time>
      </trkpt>
      <trkpt lat="48.75544" lon="1.81777">
        <ele>151.54</ele>
        <time>2009-12-05T23:12:17.000Z</time>
      </trkpt>
      <trkpt lat="48.7555" lon="1.81763">
        <ele>156.83</ele>
        <time>2009-12-05T23:12:38.000Z</time>
      </trkpt>
      <trkpt lat="48.75548" lon="1.81761">
        <ele>165.48</ele>
        <time>2009-12-05T23:12:43.000Z</time>
      </trkpt>
      <trkpt lat="48.75547" lon="1.81755">
        <ele>166.93</ele>
        <time>2009-12-05T23:12:47.000Z</time>
      </trkpt>
      <trkpt lat="48.75544" lon="1.81753">
        <ele>167.41</ele>
        <time>2009-12-05T23:12:49.000Z</time>
      </trkpt>
      <trkpt lat="48.75542" lon="1.81748">
        <ele>165.48</ele>
        <time>2009-12-05T23:12:52.000Z</time>
      </trkpt>
      <trkpt lat="48.75533" lon="1.81737">
        <ele>165.48</ele>
        <time>2009-12-05T23:12:59.000Z</time>
      </trkpt>
      <trkpt lat="48.7553" lon="1.81727">
        <ele>164.52</ele>
        <time>2009-12-05T23:13:03.000Z</time>
      </trkpt>
      <trkpt lat="48.75528" lon="1.81722">
        <ele>162.12</ele>
        <time>2009-12-05T23:13:05.000Z</time>
      </trkpt>
      <trkpt lat="48.75517" lon="1.81713">
        <ele>160.2</ele>
        <time>2009-12-05T23:13:13.000Z</time>
      </trkpt>
      <trkpt lat="48.75511" lon="1.81711">
        <ele>161.16</ele>
        <time>2009-12-05T23:13:17.000Z</time>
      </trkpt>
      <trkpt lat="48.75505" lon="1.81701">
        <ele>159.24</ele>
        <time>2009-12-05T23:13:22.000Z</time>
      </trkpt>
      <trkpt lat="48.75492" lon="1.81703">
        <ele>159.24</ele>
        <time>2009-12-05T23:13:30.000Z</time>
      </trkpt>
      <trkpt lat="48.7549" lon="1.81699">
        <ele>155.39</ele>
        <time>2009-12-05T23:13:34.000Z</time>
      </trkpt>
      <trkpt lat="48.75486" lon="1.81698">
        <ele>153.47</ele>
        <time>2009-12-05T23:13:38.000Z</time>
      </trkpt>
      <trkpt lat="48.75482" lon="1.81692">
        <ele>151.54</ele>
        <time>2009-12-05T23:13:44.000Z</time>
      </trkpt>
      <trkpt lat="48.75473" lon="1.81692">
        <ele>151.54</ele>
        <time>2009-12-05T23:13:49.000Z</time>
      </trkpt>
      <trkpt lat="48.75468" lon="1.81693">
        <ele>152.51</ele>
        <time>2009-12-05T23:13:51.000Z</time>
      </trkpt>
      <trkpt lat="48.75465" lon="1.81692">
        <ele>152.99</ele>
        <time>2009-12-05T23:13:53.000Z</time>
      </trkpt>
      <trkpt lat="48.7546" lon="1.81691">
        <ele>152.51</ele>
        <time>2009-12-05T23:13:56.000Z</time>
      </trkpt>
      <trkpt lat="48.75448" lon="1.81688">
        <ele>147.7</ele>
        <time>2009-12-05T23:14:02.000Z</time>
      </trkpt>
      <trkpt lat="48.75443" lon="1.81682">
        <ele>142.41</ele>
        <time>2009-12-05T23:14:07.000Z</time>
      </trkpt>
      <trkpt lat="48.7544" lon="1.81676">
        <ele>139.05</ele>
        <time>2009-12-05T23:14:11.000Z</time>
      </trkpt>
      <trkpt lat="48.75439" lon="1.8167">
        <ele>136.64</ele>
        <time>2009-12-05T23:14:14.000Z</time>
      </trkpt>
      <trkpt lat="48.75442" lon="1.81651">
        <ele>133.28</ele>
        <time>2009-12-05T23:14:19.000Z</time>
      </trkpt>
      <trkpt lat="48.75442" lon="1.81648">
        <ele>133.28</ele>
        <time>2009-12-05T23:14:20.000Z</time>
      </trkpt>
      <trkpt lat="48.7544" lon="1.81642">
        <ele>132.32</ele>
        <time>2009-12-05T23:14:23.000Z</time>
      </trkpt>
      <trkpt lat="48.75439" lon="1.81628">
        <ele>131.84</ele>
        <time>2009-12-05T23:14:28.000Z</time>
      </trkpt>
      <trkpt lat="48.75439" lon="1.81617">
        <ele>132.32</ele>
        <time>2009-12-05T23:14:33.000Z</time>
      </trkpt>
      <trkpt lat="48.75437" lon="1.81611">
        <ele>131.84</ele>
        <time>2009-12-05T23:14:38.000Z</time>
      </trkpt>
      <trkpt lat="48.75438" lon="1.816">
        <ele>137.13</ele>
        <time>2009-12-05T23:14:43.000Z</time>
      </trkpt>
      <trkpt lat="48.75443" lon="1.8159">
        <ele>142.89</ele>
        <time>2009-12-05T23:14:47.000Z</time>
      </trkpt>
      <trkpt lat="48.75449" lon="1.81584">
        <ele>148.66</ele>
        <time>2009-12-05T23:14:52.000Z</time>
      </trkpt>
      <trkpt lat="48.75451" lon="1.81566">
        <ele>140.01</ele>
        <time>2009-12-05T23:15:02.000Z</time>
      </trkpt>
      <trkpt lat="48.75463" lon="1.81557">
        <ele>147.22</ele>
        <time>2009-12-05T23:15:13.000Z</time>
      </trkpt>
      <trkpt lat="48.7547" lon="1.81567">
        <ele>143.85</ele>
        <time>2009-12-05T23:15:25.000Z</time>
      </trkpt>
      <trkpt lat="48.7547" lon="1.81571">
        <ele>142.89</ele>
        <time>2009-12-05T23:15:29.000Z</time>
      </trkpt>
      <trkpt lat="48.75483" lon="1.81564">
        <ele>145.3</ele>
        <time>2009-12-05T23:15:51.000Z</time>
      </trkpt>
      <trkpt lat="48.75492" lon="1.81559">
        <ele>146.74</ele>
        <time>2009-12-05T23:15:56.000Z</time>
      </trkpt>
      <trkpt lat="48.75488" lon="1.81569">
        <ele>151.06</ele>
        <time>2009-12-05T23:16:03.000Z</time>
      </trkpt>
      <trkpt lat="48.75502" lon="1.81561">
        <ele>148.66</ele>
        <time>2009-12-05T23:16:13.000Z</time>
      </trkpt>
      <trkpt lat="48.75498" lon="1.81564">
        <ele>152.03</ele>
        <time>2009-12-05T23:16:17.000Z</time>
      </trkpt>
      <trkpt lat="48.75499" lon="1.8158">
        <ele>155.39</ele>
        <time>2009-12-05T23:16:35.000Z</time>
      </trkpt>
      <trkpt lat="48.75512" lon="1.81575">
        <ele>156.35</ele>
        <time>2009-12-05T23:16:52.000Z</time>
      </trkpt>
      <trkpt lat="48.7552" lon="1.81558">
        <ele>162.6</ele>
        <time>2009-12-05T23:17:27.000Z</time>
      </trkpt>
      <trkpt lat="48.75522" lon="1.81551">
        <ele>161.64</ele>
        <time>2009-12-05T23:17:31.000Z</time>
      </trkpt>
      <trkpt lat="48.7553" lon="1.81534">
        <ele>158.75</ele>
        <time>2009-12-05T23:17:37.000Z</time>
      </trkpt>
      <trkpt lat="48.75529" lon="1.81527">
        <ele>155.39</ele>
        <time>2009-12-05T23:17:42.000Z</time>
      </trkpt>
      <trkpt lat="48.75527" lon="1.81517">
        <ele>154.43</ele>
        <time>2009-12-05T23:17:48.000Z</time>
      </trkpt>
      <trkpt lat="48.75528" lon="1.81512">
        <ele>157.31</ele>
        <time>2009-12-05T23:17:53.000Z</time>
      </trkpt>
      <trkpt lat="48.75523" lon="1.81504">
        <ele>158.27</ele>
        <time>2009-12-05T23:18:01.000Z</time>
      </trkpt>
      <trkpt lat="48.75515" lon="1.81496">
        <ele>160.2</ele>
        <time>2009-12-05T23:18:08.000Z</time>
      </trkpt>
      <trkpt lat="48.75508" lon="1.81491">
        <ele>159.72</ele>
        <time>2009-12-05T23:18:13.000Z</time>
      </trkpt>
      <trkpt lat="48.755" lon="1.81492">
        <ele>157.79</ele>
        <time>2009-12-05T23:18:18.000Z</time>
      </trkpt>
      <trkpt lat="48.755" lon="1.81464">
        <ele>149.62</ele>
        <time>2009-12-05T23:18:34.000Z</time>
      </trkpt>
      <trkpt lat="48.75502" lon="1.81455">
        <ele>147.22</ele>
        <time>2009-12-05T23:18:38.000Z</time>
      </trkpt>
      <trkpt lat="48.75504" lon="1.81443">
        <ele>145.3</ele>
        <time>2009-12-05T23:18:43.000Z</time>
      </trkpt>
      <trkpt lat="48.75504" lon="1.81433">
        <ele>144.82</ele>
        <time>2009-12-05T23:18:49.000Z</time>
      </trkpt>
      <trkpt lat="48.75505" lon="1.81429">
        <ele>144.82</ele>
        <time>2009-12-05T23:18:51.000Z</time>
      </trkpt>
      <trkpt lat="48.75512" lon="1.81426">
        <ele>146.74</ele>
        <time>2009-12-05T23:18:57.000Z</time>
      </trkpt>
      <trkpt lat="48.75518" lon="1.81422">
        <ele>149.14</ele>
        <time>2009-12-05T23:19:01.000Z</time>
      </trkpt>
      <trkpt lat="48.75525" lon="1.81416">
        <ele>149.62</ele>
        <time>2009-12-05T23:19:07.000Z</time>
      </trkpt>
      <trkpt lat="48.7552" lon="1.81422">
        <ele>154.91</ele>
        <time>2009-12-05T23:19:16.000Z</time>
      </trkpt>
      <trkpt lat="48.75539" lon="1.81439">
        <ele>154.91</ele>
        <time>2009-12-05T23:19:54.000Z</time>
      </trkpt>
      <trkpt lat="48.75539" lon="1.81446">
        <ele>159.24</ele>
        <time>2009-12-05T23:20:03.000Z</time>
      </trkpt>
      <trkpt lat="48.75555" lon="1.81461">
        <ele>165.48</ele>
        <time>2009-12-05T23:20:24.000Z</time>
      </trkpt>
      <trkpt lat="48.75557" lon="1.81461">
        <ele>164.04</ele>
        <time>2009-12-05T23:20:30.000Z</time>
      </trkpt>
      <trkpt lat="48.75567" lon="1.81454">
        <ele>163.08</ele>
        <time>2009-12-05T23:20:42.000Z</time>
      </trkpt>
      <trkpt lat="48.75569" lon="1.81452">
        <ele>164.04</ele>
        <time>2009-12-05T23:20:48.000Z</time>
      </trkpt>
      <trkpt lat="48.75582" lon="1.81447">
        <ele>165.96</ele>
        <time>2009-12-05T23:20:58.000Z</time>
      </trkpt>
      <trkpt lat="48.75582" lon="1.81449">
        <ele>169.33</ele>
        <time>2009-12-05T23:21:04.000Z</time>
      </trkpt>
      <trkpt lat="48.75586" lon="1.81444">
        <ele>168.37</ele>
        <time>2009-12-05T23:21:08.000Z</time>
      </trkpt>
      <trkpt lat="48.75591" lon="1.81438">
        <ele>167.89</ele>
        <time>2009-12-05T23:21:13.000Z</time>
      </trkpt>
      <trkpt lat="48.75597" lon="1.81432">
        <ele>166.93</ele>
        <time>2009-12-05T23:21:18.000Z</time>
      </trkpt>
      <trkpt lat="48.75596" lon="1.81414">
        <ele>167.89</ele>
        <time>2009-12-05T23:21:32.000Z</time>
      </trkpt>
      <trkpt lat="48.75598" lon="1.81394">
        <ele>161.16</ele>
        <time>2009-12-05T23:21:44.000Z</time>
      </trkpt>
      <trkpt lat="48.75598" lon="1.81384">
        <ele>160.2</ele>
        <time>2009-12-05T23:21:50.000Z</time>
      </trkpt>
      <trkpt lat="48.75599" lon="1.81372">
        <ele>157.79</ele>
        <time>2009-12-05T23:21:58.000Z</time>
      </trkpt>
      <trkpt lat="48.75592" lon="1.81368">
        <ele>161.64</ele>
        <time>2009-12-05T23:22:03.000Z</time>
      </trkpt>
      <trkpt lat="48.7559" lon="1.81366">
        <ele>161.64</ele>
        <time>2009-12-05T23:22:06.000Z</time>
      </trkpt>
      <trkpt lat="48.75586" lon="1.81373">
        <ele>161.64</ele>
        <time>2009-12-05T23:22:09.000Z</time>
      </trkpt>
      <trkpt lat="48.75582" lon="1.81369">
        <ele>160.2</ele>
        <time>2009-12-05T23:22:14.000Z</time>
      </trkpt>
      <trkpt lat="48.75577" lon="1.81365">
        <ele>161.64</ele>
        <time>2009-12-05T23:22:19.000Z</time>
      </trkpt>
      <trkpt lat="48.75574" lon="1.81361">
        <ele>162.6</ele>
        <time>2009-12-05T23:22:23.000Z</time>
      </trkpt>
      <trkpt lat="48.7557" lon="1.81357">
        <ele>162.6</ele>
        <time>2009-12-05T23:22:27.000Z</time>
      </trkpt>
      <trkpt lat="48.75564" lon="1.81346">
        <ele>158.75</ele>
        <time>2009-12-05T23:22:31.000Z</time>
      </trkpt>
      <trkpt lat="48.75564" lon="1.81332">
        <ele>158.27</ele>
        <time>2009-12-05T23:22:35.000Z</time>
      </trkpt>
      <trkpt lat="48.75573" lon="1.81316">
        <ele>153.95</ele>
        <time>2009-12-05T23:22:42.000Z</time>
      </trkpt>
      <trkpt lat="48.75579" lon="1.81307">
        <ele>152.03</ele>
        <time>2009-12-05T23:22:48.000Z</time>
      </trkpt>
      <trkpt lat="48.7558" lon="1.81299">
        <ele>153.95</ele>
        <time>2009-12-05T23:22:52.000Z</time>
      </trkpt>
      <trkpt lat="48.75585" lon="1.81293">
        <ele>158.75</ele>
        <time>2009-12-05T23:22:57.000Z</time>
      </trkpt>
      <trkpt lat="48.7559" lon="1.81291">
        <ele>159.72</ele>
        <time>2009-12-05T23:23:01.000Z</time>
      </trkpt>
      <trkpt lat="48.756" lon="1.81298">
        <ele>151.54</ele>
        <time>2009-12-05T23:23:27.000Z</time>
      </trkpt>
      <trkpt lat="48.75594" lon="1.81309">
        <ele>150.1</ele>
        <time>2009-12-05T23:23:34.000Z</time>
      </trkpt>
      <trkpt lat="48.75599" lon="1.81307">
        <ele>150.1</ele>
        <time>2009-12-05T23:23:39.000Z</time>
      </trkpt>
      <trkpt lat="48.75601" lon="1.81296">
        <ele>157.31</ele>
        <time>2009-12-05T23:23:47.000Z</time>
      </trkpt>
      <trkpt lat="48.75607" lon="1.81291">
        <ele>156.35</ele>
        <time>2009-12-05T23:23:51.000Z</time>
      </trkpt>
      <trkpt lat="48.75632" lon="1.81295">
        <ele>148.66</ele>
        <time>2009-12-05T23:24:11.000Z</time>
      </trkpt>
      <trkpt lat="48.75633" lon="1.81293">
        <ele>153.95</ele>
        <time>2009-12-05T23:24:16.000Z</time>
      </trkpt>
      <trkpt lat="48.75636" lon="1.81285">
        <ele>153.95</ele>
        <time>2009-12-05T23:24:21.000Z</time>
      </trkpt>
      <trkpt lat="48.75642" lon="1.81272">
        <ele>156.83</ele>
        <time>2009-12-05T23:24:27.000Z</time>
      </trkpt>
      <trkpt lat="48.75643" lon="1.81269">
        <ele>159.72</ele>
        <time>2009-12-05T23:24:31.000Z</time>
      </trkpt>
      <trkpt lat="48.7564" lon="1.81259">
        <ele>159.72</ele>
        <time>2009-12-05T23:24:41.000Z</time>
      </trkpt>
      <trkpt lat="48.75644" lon="1.81247">
        <ele>157.31</ele>
        <time>2009-12-05T23:24:46.000Z</time>
      </trkpt>
      <trkpt lat="48.7564" lon="1.81245">
        <ele>158.27</ele>
        <time>2009-12-05T23:24:50.000Z</time>
      </trkpt>
      <trkpt lat="48.75644" lon="1.81224">
        <ele>160.2</ele>
        <time>2009-12-05T23:24:57.000Z</time>
      </trkpt>
      <trkpt lat="48.7565" lon="1.81211">
        <ele>163.56</ele>
        <time>2009-12-05T23:25:02.000Z</time>
      </trkpt>
      <trkpt lat="48.75655" lon="1.81206">
        <ele>163.08</ele>
        <time>2009-12-05T23:25:06.000Z</time>
      </trkpt>
      <trkpt lat="48.75654" lon="1.8121">
        <ele>165.48</ele>
        <time>2009-12-05T23:25:13.000Z</time>
      </trkpt>
      <trkpt lat="48.75651" lon="1.81217">
        <ele>165</ele>
        <time>2009-12-05T23:25:17.000Z</time>
      </trkpt>
      <trkpt lat="48.75652" lon="1.81238">
        <ele>158.27</ele>
        <time>2009-12-05T23:25:32.000Z</time>
      </trkpt>
      <trkpt lat="48.75657" lon="1.81237">
        <ele>155.87</ele>
        <time>2009-12-05T23:25:38.000Z</time>
      </trkpt>
      <trkpt lat="48.75658" lon="1.81236">
        <ele>155.39</ele>
        <time>2009-12-05T23:25:39.000Z</time>
      </trkpt>
      <trkpt lat="48.75668" lon="1.81239">
        <ele>152.99</ele>
        <time>2009-12-05T23:25:46.000Z</time>
      </trkpt>
      <trkpt lat="48.75672" lon="1.81239">
        <ele>152.99</ele>
        <time>2009-12-05T23:25:52.000Z</time>
      </trkpt>
      <trkpt lat="48.7567" lon="1.81245">
        <ele>155.87</ele>
        <time>2009-12-05T23:25:57.000Z</time>
      </trkpt>
      <trkpt lat="48.75673" lon="1.81245">
        <ele>157.31</ele>
        <time>2009-12-05T23:26:03.000Z</time>
      </trkpt>
      <trkpt lat="48.75692" lon="1.81255">
        <ele>170.77</ele>
        <time>2009-12-05T23:26:43.000Z</time>
      </trkpt>
      <trkpt lat="48.75694" lon="1.81257">
        <ele>170.29</ele>
        <time>2009-12-05T23:26:47.000Z</time>
      </trkpt>
      <trkpt lat="48.75701" lon="1.81262">
        <ele>173.17</ele>
        <time>2009-12-05T23:26:53.000Z</time>
      </trkpt>
      <trkpt lat="48.75705" lon="1.81259">
        <ele>172.69</ele>
        <time>2009-12-05T23:26:55.000Z</time>
      </trkpt>
      <trkpt lat="48.75713" lon="1.81245">
        <ele>172.21</ele>
        <time>2009-12-05T23:27:00.000Z</time>
      </trkpt>
      <trkpt lat="48.7572" lon="1.81234">
        <ele>172.21</ele>
        <time>2009-12-05T23:27:04.000Z</time>
      </trkpt>
      <trkpt lat="48.75721" lon="1.81231">
        <ele>172.21</ele>
        <time>2009-12-05T23:27:05.000Z</time>
      </trkpt>
      <trkpt lat="48.7572" lon="1.81206">
        <ele>170.77</ele>
        <time>2009-12-05T23:27:11.000Z</time>
      </trkpt>
      <trkpt lat="48.75719" lon="1.81202">
        <ele>169.81</ele>
        <time>2009-12-05T23:27:12.000Z</time>
      </trkpt>
      <trkpt lat="48.75713" lon="1.81191">
        <ele>165.96</ele>
        <time>2009-12-05T23:27:18.000Z</time>
      </trkpt>
      <trkpt lat="48.75705" lon="1.81189">
        <ele>164.52</ele>
        <time>2009-12-05T23:27:24.000Z</time>
      </trkpt>
      <trkpt lat="48.757" lon="1.81184">
        <ele>161.64</ele>
        <time>2009-12-05T23:27:32.000Z</time>
      </trkpt>
      <trkpt lat="48.75699" lon="1.81176">
        <ele>155.87</ele>
        <time>2009-12-05T23:27:38.000Z</time>
      </trkpt>
      <trkpt lat="48.75697" lon="1.81174">
        <ele>153.95</ele>
        <time>2009-12-05T23:27:42.000Z</time>
      </trkpt>
      <trkpt lat="48.757" lon="1.81165">
        <ele>152.99</ele>
        <time>2009-12-05T23:27:47.000Z</time>
      </trkpt>
      <trkpt lat="48.757" lon="1.81146">
        <ele>152.03</ele>
        <time>2009-12-05T23:27:53.000Z</time>
      </trkpt>
      <trkpt lat="48.757" lon="1.81139">
        <ele>152.51</ele>
        <time>2009-12-05T23:27:59.000Z</time>
      </trkpt>
      <trkpt lat="48.75706" lon="1.81127">
        <ele>150.58</ele>
        <time>2009-12-05T23:28:04.000Z</time>
      </trkpt>
      <trkpt lat="48.75704" lon="1.81123">
        <ele>155.39</ele>
        <time>2009-12-05T23:28:09.000Z</time>
      </trkpt>
      <trkpt lat="48.75705" lon="1.81125">
        <ele>165.48</ele>
        <time>2009-12-05T23:28:22.000Z</time>
      </trkpt>
      <trkpt lat="48.7571" lon="1.81123">
        <ele>163.08</ele>
        <time>2009-12-05T23:28:25.000Z</time>
      </trkpt>
      <trkpt lat="48.75707" lon="1.81129">
        <ele>162.12</ele>
        <time>2009-12-05T23:28:32.000Z</time>
      </trkpt>
      <trkpt lat="48.75722" lon="1.81117">
        <ele>161.64</ele>
        <time>2009-12-05T23:28:40.000Z</time>
      </trkpt>
      <trkpt lat="48.75724" lon="1.81119">
        <ele>162.6</ele>
        <time>2009-12-05T23:28:45.000Z</time>
      </trkpt>
      <trkpt lat="48.75732" lon="1.81113">
        <ele>166.45</ele>
        <time>2009-12-05T23:29:03.000Z</time>
      </trkpt>
      <trkpt lat="48.75734" lon="1.81105">
        <ele>167.41</ele>
        <time>2009-12-05T23:29:07.000Z</time>
      </trkpt>
      <trkpt lat="48.75736" lon="1.81096">
        <ele>167.41</ele>
        <time>2009-12-05T23:29:11.000Z</time>
      </trkpt>
      <trkpt lat="48.75735" lon="1.81091">
        <ele>168.37</ele>
        <time>2009-12-05T23:29:14.000Z</time>
      </trkpt>
      <trkpt lat="48.75737" lon="1.81085">
        <ele>166.93</ele>
        <time>2009-12-05T23:29:16.000Z</time>
      </trkpt>
      <trkpt lat="48.75734" lon="1.81073">
        <ele>170.77</ele>
        <time>2009-12-05T23:29:22.000Z</time>
      </trkpt>
      <trkpt lat="48.75732" lon="1.81072">
        <ele>171.73</ele>
        <time>2009-12-05T23:29:23.000Z</time>
      </trkpt>
      <trkpt lat="48.75728" lon="1.81058">
        <ele>169.81</ele>
        <time>2009-12-05T23:29:28.000Z</time>
      </trkpt>
      <trkpt lat="48.75717" lon="1.81043">
        <ele>168.37</ele>
        <time>2009-12-05T23:29:34.000Z</time>
      </trkpt>
      <trkpt lat="48.75705" lon="1.81027">
        <ele>171.25</ele>
        <time>2009-12-05T23:29:39.000Z</time>
      </trkpt>
      <trkpt lat="48.75701" lon="1.81022">
        <ele>173.17</ele>
        <time>2009-12-05T23:29:44.000Z</time>
      </trkpt>
      <trkpt lat="48.75705" lon="1.81015">
        <ele>169.81</ele>
        <time>2009-12-05T23:29:48.000Z</time>
      </trkpt>
      <trkpt lat="48.75712" lon="1.81009">
        <ele>171.25</ele>
        <time>2009-12-05T23:29:53.000Z</time>
      </trkpt>
      <trkpt lat="48.75737" lon="1.80978">
        <ele>167.41</ele>
        <time>2009-12-05T23:30:09.000Z</time>
      </trkpt>
      <trkpt lat="48.75743" lon="1.80966">
        <ele>170.29</ele>
        <time>2009-12-05T23:30:15.000Z</time>
      </trkpt>
      <trkpt lat="48.75749" lon="1.80965">
        <ele>166.45</ele>
        <time>2009-12-05T23:30:20.000Z</time>
      </trkpt>
      <trkpt lat="48.75768" lon="1.80969">
        <ele>153.95</ele>
        <time>2009-12-05T23:30:38.000Z</time>
      </trkpt>
      <trkpt lat="48.75771" lon="1.80968">
        <ele>154.43</ele>
        <time>2009-12-05T23:30:43.000Z</time>
      </trkpt>
      <trkpt lat="48.75778" lon="1.80971">
        <ele>151.54</ele>
        <time>2009-12-05T23:30:55.000Z</time>
      </trkpt>
      <trkpt lat="48.75779" lon="1.80969">
        <ele>154.91</ele>
        <time>2009-12-05T23:31:01.000Z</time>
      </trkpt>
      <trkpt lat="48.75776" lon="1.80974">
        <ele>157.79</ele>
        <time>2009-12-05T23:31:06.000Z</time>
      </trkpt>
      <trkpt lat="48.75783" lon="1.80964">
        <ele>159.72</ele>
        <time>2009-12-05T23:31:15.000Z</time>
      </trkpt>
      <trkpt lat="48.75792" lon="1.80954">
        <ele>162.6</ele>
        <time>2009-12-05T23:31:29.000Z</time>
      </trkpt>
      <trkpt lat="48.75791" lon="1.80943">
        <ele>163.08</ele>
        <time>2009-12-05T23:31:34.000Z</time>
      </trkpt>
      <trkpt lat="48.75788" lon="1.80943">
        <ele>165.48</ele>
        <time>2009-12-05T23:31:38.000Z</time>
      </trkpt>
      <trkpt lat="48.7579" lon="1.80927">
        <ele>165.48</ele>
        <time>2009-12-05T23:31:44.000Z</time>
      </trkpt>
      <trkpt lat="48.758" lon="1.809">
        <ele>163.56</ele>
        <time>2009-12-05T23:31:49.000Z</time>
      </trkpt>
      <trkpt lat="48.75798" lon="1.80893">
        <ele>164.04</ele>
        <time>2009-12-05T23:31:54.000Z</time>
      </trkpt>
      <trkpt lat="48.75804" lon="1.80872">
        <ele>158.27</ele>
        <time>2009-12-05T23:32:05.000Z</time>
      </trkpt>
      <trkpt lat="48.75807" lon="1.80863">
        <ele>158.75</ele>
        <time>2009-12-05T23:32:08.000Z</time>
      </trkpt>
      <trkpt lat="48.75805" lon="1.80855">
        <ele>162.6</ele>
        <time>2009-12-05T23:32:13.000Z</time>
      </trkpt>
      <trkpt lat="48.75807" lon="1.8085">
        <ele>162.6</ele>
        <time>2009-12-05T23:32:14.000Z</time>
      </trkpt>
      <trkpt lat="48.75807" lon="1.80832">
        <ele>165</ele>
        <time>2009-12-05T23:32:19.000Z</time>
      </trkpt>
      <trkpt lat="48.75808" lon="1.80832">
        <ele>164.52</ele>
        <time>2009-12-05T23:32:20.000Z</time>
      </trkpt>
      <trkpt lat="48.75816" lon="1.80833">
        <ele>165.48</ele>
        <time>2009-12-05T23:32:26.000Z</time>
      </trkpt>
      <trkpt lat="48.75826" lon="1.80825">
        <ele>168.85</ele>
        <time>2009-12-05T23:32:31.000Z</time>
      </trkpt>
      <trkpt lat="48.75833" lon="1.80823">
        <ele>170.29</ele>
        <time>2009-12-05T23:32:42.000Z</time>
      </trkpt>
      <trkpt lat="48.75836" lon="1.80819">
        <ele>169.81</ele>
        <time>2009-12-05T23:32:46.000Z</time>
      </trkpt>
      <trkpt lat="48.7584" lon="1.80821">
        <ele>169.33</ele>
        <time>2009-12-05T23:32:50.000Z</time>
      </trkpt>
      <trkpt lat="48.7584" lon="1.80832">
        <ele>167.89</ele>
        <time>2009-12-05T23:32:55.000Z</time>
      </trkpt>
      <trkpt lat="48.75848" lon="1.80833">
        <ele>170.29</ele>
        <time>2009-12-05T23:33:04.000Z</time>
      </trkpt>
      <trkpt lat="48.75847" lon="1.8085">
        <ele>177.5</ele>
        <time>2009-12-05T23:33:18.000Z</time>
      </trkpt>
      <trkpt lat="48.75855" lon="1.80839">
        <ele>175.58</ele>
        <time>2009-12-05T23:33:21.000Z</time>
      </trkpt>
      <trkpt lat="48.75861" lon="1.80824">
        <ele>177.98</ele>
        <time>2009-12-05T23:33:26.000Z</time>
      </trkpt>
      <trkpt lat="48.75864" lon="1.8082">
        <ele>177.98</ele>
        <time>2009-12-05T23:33:27.000Z</time>
      </trkpt>
      <trkpt lat="48.75874" lon="1.80796">
        <ele>176.54</ele>
        <time>2009-12-05T23:33:33.000Z</time>
      </trkpt>
      <trkpt lat="48.75874" lon="1.80794">
        <ele>176.54</ele>
        <time>2009-12-05T23:33:34.000Z</time>
      </trkpt>
      <trkpt lat="48.75881" lon="1.80785">
        <ele>173.17</ele>
        <time>2009-12-05T23:33:41.000Z</time>
      </trkpt>
      <trkpt lat="48.75883" lon="1.80785">
        <ele>174.62</ele>
        <time>2009-12-05T23:33:47.000Z</time>
      </trkpt>
      <trkpt lat="48.75891" lon="1.80779">
        <ele>175.58</ele>
        <time>2009-12-05T23:33:51.000Z</time>
      </trkpt>
      <trkpt lat="48.75896" lon="1.80766">
        <ele>177.5</ele>
        <time>2009-12-05T23:33:56.000Z</time>
      </trkpt>
      <trkpt lat="48.75896" lon="1.80765">
        <ele>177.98</ele>
        <time>2009-12-05T23:33:57.000Z</time>
      </trkpt>
      <trkpt lat="48.759" lon="1.80752">
        <ele>177.98</ele>
        <time>2009-12-05T23:34:01.000Z</time>
      </trkpt>
      <trkpt lat="48.75905" lon="1.80736">
        <ele>177.02</ele>
        <time>2009-12-05T23:34:05.000Z</time>
      </trkpt>
      <trkpt lat="48.75903" lon="1.80719">
        <ele>175.58</ele>
        <time>2009-12-05T23:34:11.000Z</time>
      </trkpt>
      <trkpt lat="48.75904" lon="1.80706">
        <ele>175.58</ele>
        <time>2009-12-05T23:34:15.000Z</time>
      </trkpt>
      <trkpt lat="48.75899" lon="1.80692">
        <ele>174.14</ele>
        <time>2009-12-05T23:34:19.000Z</time>
      </trkpt>
      <trkpt lat="48.75889" lon="1.80676">
        <ele>178.94</ele>
        <time>2009-12-05T23:34:24.000Z</time>
      </trkpt>
      <trkpt lat="48.75879" lon="1.80669">
        <ele>180.87</ele>
        <time>2009-12-05T23:34:27.000Z</time>
      </trkpt>
      <trkpt lat="48.75869" lon="1.80662">
        <ele>176.06</ele>
        <time>2009-12-05T23:34:32.000Z</time>
      </trkpt>
      <trkpt lat="48.75862" lon="1.80658">
        <ele>173.66</ele>
        <time>2009-12-05T23:34:35.000Z</time>
      </trkpt>
      <trkpt lat="48.75845" lon="1.80654">
        <ele>171.73</ele>
        <time>2009-12-05T23:34:41.000Z</time>
      </trkpt>
      <trkpt lat="48.75839" lon="1.80652">
        <ele>170.77</ele>
        <time>2009-12-05T23:34:44.000Z</time>
      </trkpt>
      <trkpt lat="48.75829" lon="1.80635">
        <ele>163.08</ele>
        <time>2009-12-05T23:34:50.000Z</time>
      </trkpt>
      <trkpt lat="48.75827" lon="1.8061">
        <ele>157.31</ele>
        <time>2009-12-05T23:34:56.000Z</time>
      </trkpt>
      <trkpt lat="48.75826" lon="1.80591">
        <ele>153.47</ele>
        <time>2009-12-05T23:35:00.000Z</time>
      </trkpt>
      <trkpt lat="48.75814" lon="1.80579">
        <ele>152.03</ele>
        <time>2009-12-05T23:35:05.000Z</time>
      </trkpt>
      <trkpt lat="48.75808" lon="1.80577">
        <ele>151.54</ele>
        <time>2009-12-05T23:35:07.000Z</time>
      </trkpt>
      <trkpt lat="48.75792" lon="1.80567">
        <ele>156.35</ele>
        <time>2009-12-05T23:35:12.000Z</time>
      </trkpt>
      <trkpt lat="48.7578" lon="1.80564">
        <ele>159.72</ele>
        <time>2009-12-05T23:35:16.000Z</time>
      </trkpt>
      <trkpt lat="48.75768" lon="1.80558">
        <ele>163.08</ele>
        <time>2009-12-05T23:35:20.000Z</time>
      </trkpt>
      <trkpt lat="48.7576" lon="1.80555">
        <ele>164.52</ele>
        <time>2009-12-05T23:35:24.000Z</time>
      </trkpt>
      <trkpt lat="48.75752" lon="1.80549">
        <ele>163.08</ele>
        <time>2009-12-05T23:35:28.000Z</time>
      </trkpt>
      <trkpt lat="48.75748" lon="1.80537">
        <ele>163.56</ele>
        <time>2009-12-05T23:35:32.000Z</time>
      </trkpt>
      <trkpt lat="48.75747" lon="1.80517">
        <ele>163.08</ele>
        <time>2009-12-05T23:35:37.000Z</time>
      </trkpt>
      <trkpt lat="48.75742" lon="1.8051">
        <ele>165</ele>
        <time>2009-12-05T23:35:41.000Z</time>
      </trkpt>
      <trkpt lat="48.75733" lon="1.80511">
        <ele>166.93</ele>
        <time>2009-12-05T23:35:47.000Z</time>
      </trkpt>
      <trkpt lat="48.75727" lon="1.80514">
        <ele>169.81</ele>
        <time>2009-12-05T23:35:53.000Z</time>
      </trkpt>
      <trkpt lat="48.75723" lon="1.80515">
        <ele>169.33</ele>
        <time>2009-12-05T23:35:56.000Z</time>
      </trkpt>
      <trkpt lat="48.75716" lon="1.8052">
        <ele>171.73</ele>
        <time>2009-12-05T23:36:03.000Z</time>
      </trkpt>
      <trkpt lat="48.75714" lon="1.80521">
        <ele>172.21</ele>
        <time>2009-12-05T23:36:05.000Z</time>
      </trkpt>
      <trkpt lat="48.75708" lon="1.80522">
        <ele>175.1</ele>
        <time>2009-12-05T23:36:11.000Z</time>
      </trkpt>
      <trkpt lat="48.75706" lon="1.80523">
        <ele>175.1</ele>
        <time>2009-12-05T23:36:12.000Z</time>
      </trkpt>
      <trkpt lat="48.75695" lon="1.80528">
        <ele>177.5</ele>
        <time>2009-12-05T23:36:20.000Z</time>
      </trkpt>
      <trkpt lat="48.75688" lon="1.8053">
        <ele>176.06</ele>
        <time>2009-12-05T23:36:25.000Z</time>
      </trkpt>
      <trkpt lat="48.75682" lon="1.80534">
        <ele>176.06</ele>
        <time>2009-12-05T23:36:29.000Z</time>
      </trkpt>
      <trkpt lat="48.75668" lon="1.80539">
        <ele>173.17</ele>
        <time>2009-12-05T23:36:37.000Z</time>
      </trkpt>
      <trkpt lat="48.75653" lon="1.8054">
        <ele>170.77</ele>
        <time>2009-12-05T23:36:43.000Z</time>
      </trkpt>
      <trkpt lat="48.75642" lon="1.80542">
        <ele>170.29</ele>
        <time>2009-12-05T23:36:48.000Z</time>
      </trkpt>
      <trkpt lat="48.75632" lon="1.80548">
        <ele>170.77</ele>
        <time>2009-12-05T23:36:54.000Z</time>
      </trkpt>
      <trkpt lat="48.75629" lon="1.80549">
        <ele>171.25</ele>
        <time>2009-12-05T23:36:56.000Z</time>
      </trkpt>
      <trkpt lat="48.75618" lon="1.80552">
        <ele>173.17</ele>
        <time>2009-12-05T23:37:01.000Z</time>
      </trkpt>
      <trkpt lat="48.75608" lon="1.80553">
        <ele>175.1</ele>
        <time>2009-12-05T23:37:06.000Z</time>
      </trkpt>
      <trkpt lat="48.75601" lon="1.80556">
        <ele>174.62</ele>
        <time>2009-12-05T23:37:10.000Z</time>
      </trkpt>
      <trkpt lat="48.75588" lon="1.80553">
        <ele>173.66</ele>
        <time>2009-12-05T23:37:14.000Z</time>
      </trkpt>
      <trkpt lat="48.75581" lon="1.80552">
        <ele>174.14</ele>
        <time>2009-12-05T23:37:16.000Z</time>
      </trkpt>
      <trkpt lat="48.75566" lon="1.80552">
        <ele>174.62</ele>
        <time>2009-12-05T23:37:22.000Z</time>
      </trkpt>
      <trkpt lat="48.75557" lon="1.80552">
        <ele>175.1</ele>
        <time>2009-12-05T23:37:26.000Z</time>
      </trkpt>
      <trkpt lat="48.75546" lon="1.80555">
        <ele>175.58</ele>
        <time>2009-12-05T23:37:31.000Z</time>
      </trkpt>
      <trkpt lat="48.75541" lon="1.80556">
        <ele>176.06</ele>
        <time>2009-12-05T23:37:34.000Z</time>
      </trkpt>
      <trkpt lat="48.75527" lon="1.80556">
        <ele>177.98</ele>
        <time>2009-12-05T23:37:41.000Z</time>
      </trkpt>
      <trkpt lat="48.75525" lon="1.80557">
        <ele>177.5</ele>
        <time>2009-12-05T23:37:42.000Z</time>
      </trkpt>
      <trkpt lat="48.75517" lon="1.80562">
        <ele>175.58</ele>
        <time>2009-12-05T23:37:46.000Z</time>
      </trkpt>
      <trkpt lat="48.75505" lon="1.80564">
        <ele>172.21</ele>
        <time>2009-12-05T23:37:52.000Z</time>
      </trkpt>
      <trkpt lat="48.75494" lon="1.80575">
        <ele>172.21</ele>
        <time>2009-12-05T23:37:56.000Z</time>
      </trkpt>
      <trkpt lat="48.75491" lon="1.80577">
        <ele>172.69</ele>
        <time>2009-12-05T23:37:57.000Z</time>
      </trkpt>
      <trkpt lat="48.75483" lon="1.80584">
        <ele>171.73</ele>
        <time>2009-12-05T23:38:00.000Z</time>
      </trkpt>
      <trkpt lat="48.7547" lon="1.80593">
        <ele>171.25</ele>
        <time>2009-12-05T23:38:06.000Z</time>
      </trkpt>
      <trkpt lat="48.7546" lon="1.806">
        <ele>169.33</ele>
        <time>2009-12-05T23:38:10.000Z</time>
      </trkpt>
      <trkpt lat="48.75447" lon="1.80609">
        <ele>168.85</ele>
        <time>2009-12-05T23:38:15.000Z</time>
      </trkpt>
      <trkpt lat="48.75435" lon="1.8061">
        <ele>165.96</ele>
        <time>2009-12-05T23:38:20.000Z</time>
      </trkpt>
      <trkpt lat="48.75425" lon="1.80605">
        <ele>161.16</ele>
        <time>2009-12-05T23:38:26.000Z</time>
      </trkpt>
      <trkpt lat="48.75425" lon="1.80604">
        <ele>160.2</ele>
        <time>2009-12-05T23:38:27.000Z</time>
      </trkpt>
      <trkpt lat="48.75423" lon="1.806">
        <ele>157.31</ele>
        <time>2009-12-05T23:38:29.000Z</time>
      </trkpt>
      <trkpt lat="48.75414" lon="1.80592">
        <ele>153.47</ele>
        <time>2009-12-05T23:38:34.000Z</time>
      </trkpt>
      <trkpt lat="48.75404" lon="1.8058">
        <ele>151.06</ele>
        <time>2009-12-05T23:38:39.000Z</time>
      </trkpt>
      <trkpt lat="48.7539" lon="1.80578">
        <ele>146.26</ele>
        <time>2009-12-05T23:38:45.000Z</time>
      </trkpt>
      <trkpt lat="48.75372" lon="1.8058">
        <ele>145.78</ele>
        <time>2009-12-05T23:38:51.000Z</time>
      </trkpt>
      <trkpt lat="48.7536" lon="1.80581">
        <ele>143.85</ele>
        <time>2009-12-05T23:38:56.000Z</time>
      </trkpt>
      <trkpt lat="48.75351" lon="1.80585">
        <ele>144.34</ele>
        <time>2009-12-05T23:39:00.000Z</time>
      </trkpt>
      <trkpt lat="48.75334" lon="1.80588">
        <ele>146.26</ele>
        <time>2009-12-05T23:39:07.000Z</time>
      </trkpt>
      <trkpt lat="48.75319" lon="1.80582">
        <ele>150.58</ele>
        <time>2009-12-05T23:39:13.000Z</time>
      </trkpt>
      <trkpt lat="48.75312" lon="1.80582">
        <ele>150.58</ele>
        <time>2009-12-05T23:39:17.000Z</time>
      </trkpt>
      <trkpt lat="48.75309" lon="1.80582">
        <ele>153.47</ele>
        <time>2009-12-05T23:39:19.000Z</time>
      </trkpt>
      <trkpt lat="48.75299" lon="1.80583">
        <ele>157.31</ele>
        <time>2009-12-05T23:39:26.000Z</time>
      </trkpt>
      <trkpt lat="48.7529" lon="1.80582">
        <ele>162.12</ele>
        <time>2009-12-05T23:39:35.000Z</time>
      </trkpt>
      <trkpt lat="48.75284" lon="1.80579">
        <ele>163.56</ele>
        <time>2009-12-05T23:39:39.000Z</time>
      </trkpt>
      <trkpt lat="48.75279" lon="1.80581">
        <ele>169.33</ele>
        <time>2009-12-05T23:39:44.000Z</time>
      </trkpt>
      <trkpt lat="48.75274" lon="1.80582">
        <ele>173.17</ele>
        <time>2009-12-05T23:39:49.000Z</time>
      </trkpt>
      <trkpt lat="48.75268" lon="1.80583">
        <ele>178.94</ele>
        <time>2009-12-05T23:39:55.000Z</time>
      </trkpt>
      <trkpt lat="48.75258" lon="1.80585">
        <ele>176.06</ele>
        <time>2009-12-05T23:40:01.000Z</time>
      </trkpt>
      <trkpt lat="48.75251" lon="1.80588">
        <ele>174.62</ele>
        <time>2009-12-05T23:40:07.000Z</time>
      </trkpt>
      <trkpt lat="48.75243" lon="1.80587">
        <ele>173.17</ele>
        <time>2009-12-05T23:40:13.000Z</time>
      </trkpt>
      <trkpt lat="48.75236" lon="1.8059">
        <ele>172.21</ele>
        <time>2009-12-05T23:40:18.000Z</time>
      </trkpt>
      <trkpt lat="48.75223" lon="1.80594">
        <ele>166.93</ele>
        <time>2009-12-05T23:40:25.000Z</time>
      </trkpt>
      <trkpt lat="48.7522" lon="1.80595">
        <ele>166.45</ele>
        <time>2009-12-05T23:40:26.000Z</time>
      </trkpt>
      <trkpt lat="48.75215" lon="1.80596">
        <ele>165.48</ele>
        <time>2009-12-05T23:40:28.000Z</time>
      </trkpt>
      <trkpt lat="48.75207" lon="1.80597">
        <ele>165.96</ele>
        <time>2009-12-05T23:40:32.000Z</time>
      </trkpt>
      <trkpt lat="48.75192" lon="1.80604">
        <ele>164.04</ele>
        <time>2009-12-05T23:40:38.000Z</time>
      </trkpt>
      <trkpt lat="48.7518" lon="1.80605">
        <ele>165.48</ele>
        <time>2009-12-05T23:40:44.000Z</time>
      </trkpt>
      <trkpt lat="48.75178" lon="1.80605">
        <ele>165.96</ele>
        <time>2009-12-05T23:40:45.000Z</time>
      </trkpt>
      <trkpt lat="48.75174" lon="1.80605">
        <ele>167.41</ele>
        <time>2009-12-05T23:40:47.000Z</time>
      </trkpt>
      <trkpt lat="48.75159" lon="1.80606">
        <ele>168.37</ele>
        <time>2009-12-05T23:40:53.000Z</time>
      </trkpt>
      <trkpt lat="48.75151" lon="1.80607">
        <ele>169.81</ele>
        <time>2009-12-05T23:40:57.000Z</time>
      </trkpt>
      <trkpt lat="48.75144" lon="1.80607">
        <ele>169.81</ele>
        <time>2009-12-05T23:41:00.000Z</time>
      </trkpt>
      <trkpt lat="48.75129" lon="1.80612">
        <ele>169.81</ele>
        <time>2009-12-05T23:41:06.000Z</time>
      </trkpt>
      <trkpt lat="48.7512" lon="1.80626">
        <ele>170.29</ele>
        <time>2009-12-05T23:41:11.000Z</time>
      </trkpt>
      <trkpt lat="48.75111" lon="1.80648">
        <ele>174.14</ele>
        <time>2009-12-05T23:41:17.000Z</time>
      </trkpt>
      <trkpt lat="48.75101" lon="1.80671">
        <ele>176.06</ele>
        <time>2009-12-05T23:41:23.000Z</time>
      </trkpt>
      <trkpt lat="48.75095" lon="1.80688">
        <ele>175.1</ele>
        <time>2009-12-05T23:41:28.000Z</time>
      </trkpt>
      <trkpt lat="48.7509" lon="1.80704">
        <ele>176.06</ele>
        <time>2009-12-05T23:41:32.000Z</time>
      </trkpt>
      <trkpt lat="48.75088" lon="1.80718">
        <ele>174.62</ele>
        <time>2009-12-05T23:41:36.000Z</time>
      </trkpt>
      <trkpt lat="48.75084" lon="1.80737">
        <ele>171.73</ele>
        <time>2009-12-05T23:41:41.000Z</time>
      </trkpt>
      <trkpt lat="48.75081" lon="1.80757">
        <ele>172.21</ele>
        <time>2009-12-05T23:41:46.000Z</time>
      </trkpt>
      <trkpt lat="48.75074" lon="1.80781">
        <ele>171.73</ele>
        <time>2009-12-05T23:41:52.000Z</time>
      </trkpt>
      <trkpt lat="48.7507" lon="1.80794">
        <ele>170.29</ele>
        <time>2009-12-05T23:41:56.000Z</time>
      </trkpt>
      <trkpt lat="48.75064" lon="1.8081">
        <ele>169.81</ele>
        <time>2009-12-05T23:42:01.000Z</time>
      </trkpt>
      <trkpt lat="48.75061" lon="1.8082">
        <ele>168.37</ele>
        <time>2009-12-05T23:42:04.000Z</time>
      </trkpt>
      <trkpt lat="48.75056" lon="1.80839">
        <ele>165.48</ele>
        <time>2009-12-05T23:42:11.000Z</time>
      </trkpt>
      <trkpt lat="48.75053" lon="1.8085">
        <ele>162.6</ele>
        <time>2009-12-05T23:42:15.000Z</time>
      </trkpt>
      <trkpt lat="48.75053" lon="1.80852">
        <ele>161.64</ele>
        <time>2009-12-05T23:42:16.000Z</time>
      </trkpt>
      <trkpt lat="48.75049" lon="1.80867">
        <ele>158.27</ele>
        <time>2009-12-05T23:42:21.000Z</time>
      </trkpt>
      <trkpt lat="48.75045" lon="1.80876">
        <ele>156.83</ele>
        <time>2009-12-05T23:42:24.000Z</time>
      </trkpt>
      <trkpt lat="48.75039" lon="1.80895">
        <ele>156.83</ele>
        <time>2009-12-05T23:42:29.000Z</time>
      </trkpt>
      <trkpt lat="48.75039" lon="1.80898">
        <ele>156.35</ele>
        <time>2009-12-05T23:42:30.000Z</time>
      </trkpt>
      <trkpt lat="48.75033" lon="1.80918">
        <ele>152.99</ele>
        <time>2009-12-05T23:42:36.000Z</time>
      </trkpt>
      <trkpt lat="48.75028" lon="1.8093">
        <ele>151.06</ele>
        <time>2009-12-05T23:42:40.000Z</time>
      </trkpt>
      <trkpt lat="48.75027" lon="1.80934">
        <ele>151.06</ele>
        <time>2009-12-05T23:42:41.000Z</time>
      </trkpt>
      <trkpt lat="48.75021" lon="1.80949">
        <ele>152.03</ele>
        <time>2009-12-05T23:42:46.000Z</time>
      </trkpt>
      <trkpt lat="48.75016" lon="1.80957">
        <ele>152.99</ele>
        <time>2009-12-05T23:42:49.000Z</time>
      </trkpt>
      <trkpt lat="48.75013" lon="1.80965">
        <ele>152.51</ele>
        <time>2009-12-05T23:42:54.000Z</time>
      </trkpt>
      <trkpt lat="48.75009" lon="1.80974">
        <ele>154.91</ele>
        <time>2009-12-05T23:43:00.000Z</time>
      </trkpt>
      <trkpt lat="48.75009" lon="1.80975">
        <ele>153.47</ele>
        <time>2009-12-05T23:43:01.000Z</time>
      </trkpt>
      <trkpt lat="48.75003" lon="1.80992">
        <ele>157.79</ele>
        <time>2009-12-05T23:43:09.000Z</time>
      </trkpt>
      <trkpt lat="48.74998" lon="1.81006">
        <ele>160.2</ele>
        <time>2009-12-05T23:43:17.000Z</time>
      </trkpt>
      <trkpt lat="48.74998" lon="1.81007">
        <ele>160.2</ele>
        <time>2009-12-05T23:43:18.000Z</time>
      </trkpt>
      <trkpt lat="48.74994" lon="1.81015">
        <ele>160.68</ele>
        <time>2009-12-05T23:43:24.000Z</time>
      </trkpt>
      <trkpt lat="48.74991" lon="1.81026">
        <ele>160.68</ele>
        <time>2009-12-05T23:43:31.000Z</time>
      </trkpt>
      <trkpt lat="48.74987" lon="1.81038">
        <ele>163.56</ele>
        <time>2009-12-05T23:43:37.000Z</time>
      </trkpt>
      <trkpt lat="48.74984" lon="1.81049">
        <ele>165.96</ele>
        <time>2009-12-05T23:43:42.000Z</time>
      </trkpt>
      <trkpt lat="48.74981" lon="1.81056">
        <ele>167.41</ele>
        <time>2009-12-05T23:43:46.000Z</time>
      </trkpt>
      <trkpt lat="48.74978" lon="1.81065">
        <ele>168.85</ele>
        <time>2009-12-05T23:43:51.000Z</time>
      </trkpt>
      <trkpt lat="48.74976" lon="1.81072">
        <ele>168.85</ele>
        <time>2009-12-05T23:43:54.000Z</time>
      </trkpt>
      <trkpt lat="48.74974" lon="1.81082">
        <ele>169.33</ele>
        <time>2009-12-05T23:44:00.000Z</time>
      </trkpt>
      <trkpt lat="48.74973" lon="1.81084">
        <ele>169.33</ele>
        <time>2009-12-05T23:44:02.000Z</time>
      </trkpt>
      <trkpt lat="48.74972" lon="1.81088">
        <ele>169.33</ele>
        <time>2009-12-05T23:44:04.000Z</time>
      </trkpt>
      <trkpt lat="48.74967" lon="1.81099">
        <ele>172.21</ele>
        <time>2009-12-05T23:44:10.000Z</time>
      </trkpt>
      <trkpt lat="48.74966" lon="1.81104">
        <ele>171.25</ele>
        <time>2009-12-05T23:44:13.000Z</time>
      </trkpt>
      <trkpt lat="48.74963" lon="1.81113">
        <ele>170.77</ele>
        <time>2009-12-05T23:44:16.000Z</time>
      </trkpt>
      <trkpt lat="48.74957" lon="1.81131">
        <ele>171.25</ele>
        <time>2009-12-05T23:44:22.000Z</time>
      </trkpt>
      <trkpt lat="48.74952" lon="1.81143">
        <ele>171.73</ele>
        <time>2009-12-05T23:44:26.000Z</time>
      </trkpt>
      <trkpt lat="48.74951" lon="1.81146">
        <ele>171.25</ele>
        <time>2009-12-05T23:44:27.000Z</time>
      </trkpt>
      <trkpt lat="48.74947" lon="1.81154">
        <ele>171.25</ele>
        <time>2009-12-05T23:44:30.000Z</time>
      </trkpt>
      <trkpt lat="48.74941" lon="1.81165">
        <ele>171.25</ele>
        <time>2009-12-05T23:44:34.000Z</time>
      </trkpt>
      <trkpt lat="48.7493" lon="1.81189">
        <ele>173.17</ele>
        <time>2009-12-05T23:44:41.000Z</time>
      </trkpt>
      <trkpt lat="48.74924" lon="1.81202">
        <ele>170.77</ele>
        <time>2009-12-05T23:44:46.000Z</time>
      </trkpt>
      <trkpt lat="48.74921" lon="1.81205">
        <ele>169.33</ele>
        <time>2009-12-05T23:44:48.000Z</time>
      </trkpt>
      <trkpt lat="48.74911" lon="1.81224">
        <ele>167.41</ele>
        <time>2009-12-05T23:44:55.000Z</time>
      </trkpt>
      <trkpt lat="48.74906" lon="1.81232">
        <ele>166.93</ele>
        <time>2009-12-05T23:44:58.000Z</time>
      </trkpt>
      <trkpt lat="48.749" lon="1.81238">
        <ele>166.45</ele>
        <time>2009-12-05T23:45:02.000Z</time>
      </trkpt>
      <trkpt lat="48.7489" lon="1.81242">
        <ele>163.56</ele>
        <time>2009-12-05T23:45:07.000Z</time>
      </trkpt>
      <trkpt lat="48.74876" lon="1.8125">
        <ele>163.08</ele>
        <time>2009-12-05T23:45:13.000Z</time>
      </trkpt>
      <trkpt lat="48.74862" lon="1.81253">
        <ele>164.52</ele>
        <time>2009-12-05T23:45:18.000Z</time>
      </trkpt>
      <trkpt lat="48.74851" lon="1.81258">
        <ele>165</ele>
        <time>2009-12-05T23:45:23.000Z</time>
      </trkpt>
      <trkpt lat="48.74842" lon="1.81263">
        <ele>165.96</ele>
        <time>2009-12-05T23:45:29.000Z</time>
      </trkpt>
      <trkpt lat="48.74828" lon="1.81269">
        <ele>163.08</ele>
        <time>2009-12-05T23:45:36.000Z</time>
      </trkpt>
      <trkpt lat="48.74815" lon="1.81278">
        <ele>161.16</ele>
        <time>2009-12-05T23:45:41.000Z</time>
      </trkpt>
      <trkpt lat="48.74808" lon="1.8128">
        <ele>164.52</ele>
        <time>2009-12-05T23:45:45.000Z</time>
      </trkpt>
      <trkpt lat="48.74792" lon="1.81285">
        <ele>167.89</ele>
        <time>2009-12-05T23:45:51.000Z</time>
      </trkpt>
      <trkpt lat="48.74785" lon="1.81287">
        <ele>169.33</ele>
        <time>2009-12-05T23:45:55.000Z</time>
      </trkpt>
      <trkpt lat="48.74781" lon="1.81289">
        <ele>171.25</ele>
        <time>2009-12-05T23:45:58.000Z</time>
      </trkpt>
      <trkpt lat="48.74771" lon="1.81292">
        <ele>170.77</ele>
        <time>2009-12-05T23:46:04.000Z</time>
      </trkpt>
      <trkpt lat="48.74762" lon="1.81298">
        <ele>166.93</ele>
        <time>2009-12-05T23:46:08.000Z</time>
      </trkpt>
      <trkpt lat="48.74754" lon="1.81299">
        <ele>168.85</ele>
        <time>2009-12-05T23:46:12.000Z</time>
      </trkpt>
      <trkpt lat="48.74749" lon="1.81301">
        <ele>170.29</ele>
        <time>2009-12-05T23:46:15.000Z</time>
      </trkpt>
      <trkpt lat="48.74739" lon="1.81302">
        <ele>169.33</ele>
        <time>2009-12-05T23:46:20.000Z</time>
      </trkpt>
      <trkpt lat="48.74732" lon="1.81302">
        <ele>171.25</ele>
        <time>2009-12-05T23:46:23.000Z</time>
      </trkpt>
      <trkpt lat="48.7472" lon="1.81304">
        <ele>169.81</ele>
        <time>2009-12-05T23:46:28.000Z</time>
      </trkpt>
      <trkpt lat="48.7471" lon="1.81305">
        <ele>169.33</ele>
        <time>2009-12-05T23:46:32.000Z</time>
      </trkpt>
      <trkpt lat="48.74706" lon="1.81307">
        <ele>171.25</ele>
        <time>2009-12-05T23:46:34.000Z</time>
      </trkpt>
      <trkpt lat="48.74694" lon="1.81314">
        <ele>172.21</ele>
        <time>2009-12-05T23:46:40.000Z</time>
      </trkpt>
      <trkpt lat="48.74686" lon="1.81317">
        <ele>171.25</ele>
        <time>2009-12-05T23:46:44.000Z</time>
      </trkpt>
      <trkpt lat="48.74671" lon="1.81321">
        <ele>168.37</ele>
        <time>2009-12-05T23:46:50.000Z</time>
      </trkpt>
      <trkpt lat="48.74661" lon="1.81322">
        <ele>166.45</ele>
        <time>2009-12-05T23:46:54.000Z</time>
      </trkpt>
      <trkpt lat="48.74656" lon="1.81325">
        <ele>168.85</ele>
        <time>2009-12-05T23:46:57.000Z</time>
      </trkpt>
      <trkpt lat="48.74644" lon="1.81327">
        <ele>172.21</ele>
        <time>2009-12-05T23:47:03.000Z</time>
      </trkpt>
      <trkpt lat="48.74641" lon="1.81327">
        <ele>174.14</ele>
        <time>2009-12-05T23:47:05.000Z</time>
      </trkpt>
      <trkpt lat="48.7463" lon="1.81334">
        <ele>174.14</ele>
        <time>2009-12-05T23:47:10.000Z</time>
      </trkpt>
      <trkpt lat="48.74622" lon="1.81338">
        <ele>172.21</ele>
        <time>2009-12-05T23:47:14.000Z</time>
      </trkpt>
      <trkpt lat="48.74608" lon="1.81343">
        <ele>171.73</ele>
        <time>2009-12-05T23:47:19.000Z</time>
      </trkpt>
      <trkpt lat="48.74603" lon="1.81345">
        <ele>173.17</ele>
        <time>2009-12-05T23:47:22.000Z</time>
      </trkpt>
      <trkpt lat="48.74591" lon="1.81351">
        <ele>170.29</ele>
        <time>2009-12-05T23:47:27.000Z</time>
      </trkpt>
      <trkpt lat="48.74577" lon="1.81354">
        <ele>167.89</ele>
        <time>2009-12-05T23:47:33.000Z</time>
      </trkpt>
      <trkpt lat="48.74571" lon="1.81357">
        <ele>166.45</ele>
        <time>2009-12-05T23:47:35.000Z</time>
      </trkpt>
      <trkpt lat="48.74561" lon="1.81363">
        <ele>167.41</ele>
        <time>2009-12-05T23:47:40.000Z</time>
      </trkpt>
      <trkpt lat="48.74553" lon="1.81363">
        <ele>166.45</ele>
        <time>2009-12-05T23:47:44.000Z</time>
      </trkpt>
      <trkpt lat="48.74538" lon="1.81367">
        <ele>166.93</ele>
        <time>2009-12-05T23:47:51.000Z</time>
      </trkpt>
      <trkpt lat="48.74536" lon="1.81368">
        <ele>166.45</ele>
        <time>2009-12-05T23:47:52.000Z</time>
      </trkpt>
      <trkpt lat="48.74519" lon="1.81372">
        <ele>172.21</ele>
        <time>2009-12-05T23:47:59.000Z</time>
      </trkpt>
      <trkpt lat="48.74513" lon="1.81374">
        <ele>172.69</ele>
        <time>2009-12-05T23:48:02.000Z</time>
      </trkpt>
      <trkpt lat="48.7451" lon="1.81374">
        <ele>173.66</ele>
        <time>2009-12-05T23:48:04.000Z</time>
      </trkpt>
      <trkpt lat="48.74507" lon="1.81374">
        <ele>175.58</ele>
        <time>2009-12-05T23:48:06.000Z</time>
      </trkpt>
      <trkpt lat="48.74491" lon="1.81383">
        <ele>174.62</ele>
        <time>2009-12-05T23:48:13.000Z</time>
      </trkpt>
      <trkpt lat="48.74483" lon="1.81386">
        <ele>179.9</ele>
        <time>2009-12-05T23:48:17.000Z</time>
      </trkpt>
      <trkpt lat="48.74474" lon="1.81388">
        <ele>178.94</ele>
        <time>2009-12-05T23:48:21.000Z</time>
      </trkpt>
      <trkpt lat="48.74458" lon="1.81393">
        <ele>177.02</ele>
        <time>2009-12-05T23:48:26.000Z</time>
      </trkpt>
      <trkpt lat="48.74456" lon="1.81394">
        <ele>176.54</ele>
        <time>2009-12-05T23:48:27.000Z</time>
      </trkpt>
      <trkpt lat="48.74441" lon="1.81403">
        <ele>172.21</ele>
        <time>2009-12-05T23:48:34.000Z</time>
      </trkpt>
      <trkpt lat="48.74439" lon="1.81405">
        <ele>172.69</ele>
        <time>2009-12-05T23:48:35.000Z</time>
      </trkpt>
      <trkpt lat="48.74429" lon="1.814">
        <ele>175.1</ele>
        <time>2009-12-05T23:48:40.000Z</time>
      </trkpt>
      <trkpt lat="48.74419" lon="1.81398">
        <ele>174.14</ele>
        <time>2009-12-05T23:48:45.000Z</time>
      </trkpt>
      <trkpt lat="48.74409" lon="1.81401">
        <ele>171.73</ele>
        <time>2009-12-05T23:48:50.000Z</time>
      </trkpt>
      <trkpt lat="48.74403" lon="1.81402">
        <ele>171.25</ele>
        <time>2009-12-05T23:48:53.000Z</time>
      </trkpt>
      <trkpt lat="48.74389" lon="1.81409">
        <ele>169.33</ele>
        <time>2009-12-05T23:48:59.000Z</time>
      </trkpt>
      <trkpt lat="48.7438" lon="1.81412">
        <ele>170.29</ele>
        <time>2009-12-05T23:49:03.000Z</time>
      </trkpt>
      <trkpt lat="48.74365" lon="1.81418">
        <ele>172.69</ele>
        <time>2009-12-05T23:49:10.000Z</time>
      </trkpt>
      <trkpt lat="48.74355" lon="1.81428">
        <ele>177.98</ele>
        <time>2009-12-05T23:49:16.000Z</time>
      </trkpt>
      <trkpt lat="48.74346" lon="1.81436">
        <ele>177.5</ele>
        <time>2009-12-05T23:49:21.000Z</time>
      </trkpt>
      <trkpt lat="48.74338" lon="1.81443">
        <ele>180.87</ele>
        <time>2009-12-05T23:49:26.000Z</time>
      </trkpt>
      <trkpt lat="48.74335" lon="1.81448">
        <ele>182.31</ele>
        <time>2009-12-05T23:49:28.000Z</time>
      </trkpt>
      <trkpt lat="48.74329" lon="1.81458">
        <ele>183.27</ele>
        <time>2009-12-05T23:49:32.000Z</time>
      </trkpt>
      <trkpt lat="48.74321" lon="1.81469">
        <ele>185.19</ele>
        <time>2009-12-05T23:49:38.000Z</time>
      </trkpt>
      <trkpt lat="48.74318" lon="1.81472">
        <ele>186.15</ele>
        <time>2009-12-05T23:49:40.000Z</time>
      </trkpt>
      <trkpt lat="48.74311" lon="1.81482">
        <ele>187.59</ele>
        <time>2009-12-05T23:49:47.000Z</time>
      </trkpt>
      <trkpt lat="48.74309" lon="1.81487">
        <ele>187.59</ele>
        <time>2009-12-05T23:49:49.000Z</time>
      </trkpt>
      <trkpt lat="48.74303" lon="1.81495">
        <ele>186.15</ele>
        <time>2009-12-05T23:49:54.000Z</time>
      </trkpt>
      <trkpt lat="48.74296" lon="1.8151">
        <ele>188.56</ele>
        <time>2009-12-05T23:49:59.000Z</time>
      </trkpt>
      <trkpt lat="48.74288" lon="1.8152">
        <ele>190</ele>
        <time>2009-12-05T23:50:03.000Z</time>
      </trkpt>
      <trkpt lat="48.74282" lon="1.8153">
        <ele>192.4</ele>
        <time>2009-12-05T23:50:07.000Z</time>
      </trkpt>
      <trkpt lat="48.74281" lon="1.81531">
        <ele>192.4</ele>
        <time>2009-12-05T23:50:08.000Z</time>
      </trkpt>
      <trkpt lat="48.74275" lon="1.81536">
        <ele>185.67</ele>
        <time>2009-12-05T23:50:13.000Z</time>
      </trkpt>
      <trkpt lat="48.74268" lon="1.81549">
        <ele>185.19</ele>
        <time>2009-12-05T23:50:18.000Z</time>
      </trkpt>
      <trkpt lat="48.7426" lon="1.81556">
        <ele>180.38</ele>
        <time>2009-12-05T23:50:23.000Z</time>
      </trkpt>
      <trkpt lat="48.74253" lon="1.81559">
        <ele>178.94</ele>
        <time>2009-12-05T23:50:28.000Z</time>
      </trkpt>
      <trkpt lat="48.7425" lon="1.81564">
        <ele>178.94</ele>
        <time>2009-12-05T23:50:31.000Z</time>
      </trkpt>
      <trkpt lat="48.7424" lon="1.81576">
        <ele>181.83</ele>
        <time>2009-12-05T23:50:38.000Z</time>
      </trkpt>
      <trkpt lat="48.74234" lon="1.81587">
        <ele>181.35</ele>
        <time>2009-12-05T23:50:42.000Z</time>
      </trkpt>
      <trkpt lat="48.74227" lon="1.816">
        <ele>178.94</ele>
        <time>2009-12-05T23:50:47.000Z</time>
      </trkpt>
      <trkpt lat="48.74222" lon="1.81611">
        <ele>177.02</ele>
        <time>2009-12-05T23:50:51.000Z</time>
      </trkpt>
      <trkpt lat="48.74215" lon="1.81621">
        <ele>176.54</ele>
        <time>2009-12-05T23:50:54.000Z</time>
      </trkpt>
      <trkpt lat="48.74205" lon="1.81642">
        <ele>178.94</ele>
        <time>2009-12-05T23:50:58.000Z</time>
      </trkpt>
      <trkpt lat="48.74202" lon="1.81648">
        <ele>180.87</ele>
        <time>2009-12-05T23:51:00.000Z</time>
      </trkpt>
      <trkpt lat="48.74191" lon="1.81666">
        <ele>180.38</ele>
        <time>2009-12-05T23:51:06.000Z</time>
      </trkpt>
      <trkpt lat="48.74186" lon="1.81679">
        <ele>184.71</ele>
        <time>2009-12-05T23:51:11.000Z</time>
      </trkpt>
      <trkpt lat="48.74183" lon="1.81685">
        <ele>185.67</ele>
        <time>2009-12-05T23:51:16.000Z</time>
      </trkpt>
      <trkpt lat="48.74176" lon="1.81697">
        <ele>187.59</ele>
        <time>2009-12-05T23:51:21.000Z</time>
      </trkpt>
      <trkpt lat="48.74166" lon="1.81707">
        <ele>186.63</ele>
        <time>2009-12-05T23:51:27.000Z</time>
      </trkpt>
      <trkpt lat="48.74158" lon="1.81709">
        <ele>180.38</ele>
        <time>2009-12-05T23:51:31.000Z</time>
      </trkpt>
      <trkpt lat="48.74147" lon="1.81709">
        <ele>179.9</ele>
        <time>2009-12-05T23:51:36.000Z</time>
      </trkpt>
      <trkpt lat="48.74137" lon="1.81728">
        <ele>181.83</ele>
        <time>2009-12-05T23:51:44.000Z</time>
      </trkpt>
      <trkpt lat="48.74129" lon="1.81743">
        <ele>183.75</ele>
        <time>2009-12-05T23:51:48.000Z</time>
      </trkpt>
      <trkpt lat="48.74124" lon="1.81754">
        <ele>184.23</ele>
        <time>2009-12-05T23:51:52.000Z</time>
      </trkpt>
      <trkpt lat="48.74117" lon="1.81763">
        <ele>181.83</ele>
        <time>2009-12-05T23:51:57.000Z</time>
      </trkpt>
      <trkpt lat="48.74109" lon="1.81778">
        <ele>189.04</ele>
        <time>2009-12-05T23:52:01.000Z</time>
      </trkpt>
      <trkpt lat="48.74105" lon="1.81783">
        <ele>188.56</ele>
        <time>2009-12-05T23:52:03.000Z</time>
      </trkpt>
      <trkpt lat="48.74098" lon="1.81802">
        <ele>190</ele>
        <time>2009-12-05T23:52:08.000Z</time>
      </trkpt>
      <trkpt lat="48.74094" lon="1.8181">
        <ele>187.11</ele>
        <time>2009-12-05T23:52:13.000Z</time>
      </trkpt>
      <trkpt lat="48.74087" lon="1.81824">
        <ele>184.23</ele>
        <time>2009-12-05T23:52:18.000Z</time>
      </trkpt>
      <trkpt lat="48.74081" lon="1.81834">
        <ele>183.75</ele>
        <time>2009-12-05T23:52:22.000Z</time>
      </trkpt>
      <trkpt lat="48.74075" lon="1.81852">
        <ele>186.63</ele>
        <time>2009-12-05T23:52:27.000Z</time>
      </trkpt>
      <trkpt lat="48.74072" lon="1.81867">
        <ele>184.23</ele>
        <time>2009-12-05T23:52:32.000Z</time>
      </trkpt>
      <trkpt lat="48.74071" lon="1.81873">
        <ele>184.71</ele>
        <time>2009-12-05T23:52:34.000Z</time>
      </trkpt>
      <trkpt lat="48.74072" lon="1.81877">
        <ele>186.15</ele>
        <time>2009-12-05T23:52:36.000Z</time>
      </trkpt>
      <trkpt lat="48.74064" lon="1.81897">
        <ele>185.67</ele>
        <time>2009-12-05T23:52:41.000Z</time>
      </trkpt>
      <trkpt lat="48.74057" lon="1.81907">
        <ele>185.67</ele>
        <time>2009-12-05T23:52:45.000Z</time>
      </trkpt>
      <trkpt lat="48.74053" lon="1.81914">
        <ele>186.15</ele>
        <time>2009-12-05T23:52:49.000Z</time>
      </trkpt>
      <trkpt lat="48.74045" lon="1.81927">
        <ele>182.79</ele>
        <time>2009-12-05T23:52:54.000Z</time>
      </trkpt>
      <trkpt lat="48.7404" lon="1.8194">
        <ele>185.67</ele>
        <time>2009-12-05T23:52:58.000Z</time>
      </trkpt>
      <trkpt lat="48.74035" lon="1.81961">
        <ele>186.63</ele>
        <time>2009-12-05T23:53:03.000Z</time>
      </trkpt>
      <trkpt lat="48.7403" lon="1.81983">
        <ele>186.15</ele>
        <time>2009-12-05T23:53:08.000Z</time>
      </trkpt>
      <trkpt lat="48.74026" lon="1.81997">
        <ele>181.83</ele>
        <time>2009-12-05T23:53:14.000Z</time>
      </trkpt>
      <trkpt lat="48.74024" lon="1.82012">
        <ele>185.67</ele>
        <time>2009-12-05T23:53:18.000Z</time>
      </trkpt>
      <trkpt lat="48.74019" lon="1.82038">
        <ele>191.92</ele>
        <time>2009-12-05T23:53:25.000Z</time>
      </trkpt>
      <trkpt lat="48.74017" lon="1.82061">
        <ele>192.88</ele>
        <time>2009-12-05T23:53:31.000Z</time>
      </trkpt>
      <trkpt lat="48.74017" lon="1.82077">
        <ele>193.36</ele>
        <time>2009-12-05T23:53:35.000Z</time>
      </trkpt>
      <trkpt lat="48.74017" lon="1.82098">
        <ele>198.17</ele>
        <time>2009-12-05T23:53:40.000Z</time>
      </trkpt>
      <trkpt lat="48.74016" lon="1.82105">
        <ele>200.09</ele>
        <time>2009-12-05T23:53:42.000Z</time>
      </trkpt>
      <trkpt lat="48.74017" lon="1.82121">
        <ele>201.05</ele>
        <time>2009-12-05T23:53:48.000Z</time>
      </trkpt>
      <trkpt lat="48.7401" lon="1.82138">
        <ele>200.09</ele>
        <time>2009-12-05T23:53:53.000Z</time>
      </trkpt>
      <trkpt lat="48.74005" lon="1.82144">
        <ele>199.13</ele>
        <time>2009-12-05T23:53:55.000Z</time>
      </trkpt>
      <trkpt lat="48.74003" lon="1.82148">
        <ele>200.09</ele>
        <time>2009-12-05T23:53:57.000Z</time>
      </trkpt>
      <trkpt lat="48.74001" lon="1.82171">
        <ele>198.65</ele>
        <time>2009-12-05T23:54:04.000Z</time>
      </trkpt>
      <trkpt lat="48.74001" lon="1.8218">
        <ele>196.25</ele>
        <time>2009-12-05T23:54:07.000Z</time>
      </trkpt>
      <trkpt lat="48.73998" lon="1.822">
        <ele>194.32</ele>
        <time>2009-12-05T23:54:13.000Z</time>
      </trkpt>
      <trkpt lat="48.73994" lon="1.82214">
        <ele>192.4</ele>
        <time>2009-12-05T23:54:17.000Z</time>
      </trkpt>
      <trkpt lat="48.73987" lon="1.82226">
        <ele>192.4</ele>
        <time>2009-12-05T23:54:22.000Z</time>
      </trkpt>
      <trkpt lat="48.7398" lon="1.82244">
        <ele>193.36</ele>
        <time>2009-12-05T23:54:27.000Z</time>
      </trkpt>
      <trkpt lat="48.73975" lon="1.82252">
        <ele>193.36</ele>
        <time>2009-12-05T23:54:31.000Z</time>
      </trkpt>
      <trkpt lat="48.73969" lon="1.82258">
        <ele>186.63</ele>
        <time>2009-12-05T23:54:36.000Z</time>
      </trkpt>
      <trkpt lat="48.73964" lon="1.82266">
        <ele>184.23</ele>
        <time>2009-12-05T23:54:41.000Z</time>
      </trkpt>
      <trkpt lat="48.73962" lon="1.82266">
        <ele>183.27</ele>
        <time>2009-12-05T23:54:42.000Z</time>
      </trkpt>
      <trkpt lat="48.73951" lon="1.82257">
        <ele>176.54</ele>
        <time>2009-12-05T23:54:48.000Z</time>
      </trkpt>
      <trkpt lat="48.73941" lon="1.82252">
        <ele>174.62</ele>
        <time>2009-12-05T23:54:53.000Z</time>
      </trkpt>
      <trkpt lat="48.7394" lon="1.82251">
        <ele>174.62</ele>
        <time>2009-12-05T23:54:54.000Z</time>
      </trkpt>
      <trkpt lat="48.7393" lon="1.82246">
        <ele>173.17</ele>
        <time>2009-12-05T23:55:00.000Z</time>
      </trkpt>
      <trkpt lat="48.73915" lon="1.82241">
        <ele>166.45</ele>
        <time>2009-12-05T23:55:06.000Z</time>
      </trkpt>
      <trkpt lat="48.73903" lon="1.82242">
        <ele>166.45</ele>
        <time>2009-12-05T23:55:11.000Z</time>
      </trkpt>
      <trkpt lat="48.73895" lon="1.82249">
        <ele>172.21</ele>
        <time>2009-12-05T23:55:15.000Z</time>
      </trkpt>
      <trkpt lat="48.73894" lon="1.8225">
        <ele>172.21</ele>
        <time>2009-12-05T23:55:16.000Z</time>
      </trkpt>
      <trkpt lat="48.73883" lon="1.82259">
        <ele>171.73</ele>
        <time>2009-12-05T23:55:21.000Z</time>
      </trkpt>
      <trkpt lat="48.73872" lon="1.82269">
        <ele>172.69</ele>
        <time>2009-12-05T23:55:26.000Z</time>
      </trkpt>
      <trkpt lat="48.7387" lon="1.82271">
        <ele>172.69</ele>
        <time>2009-12-05T23:55:27.000Z</time>
      </trkpt>
      <trkpt lat="48.73858" lon="1.82283">
        <ele>173.66</ele>
        <time>2009-12-05T23:55:34.000Z</time>
      </trkpt>
      <trkpt lat="48.73847" lon="1.82294">
        <ele>172.69</ele>
        <time>2009-12-05T23:55:39.000Z</time>
      </trkpt>
      <trkpt lat="48.73845" lon="1.82295">
        <ele>171.73</ele>
        <time>2009-12-05T23:55:40.000Z</time>
      </trkpt>
      <trkpt lat="48.73837" lon="1.82306">
        <ele>173.66</ele>
        <time>2009-12-05T23:55:45.000Z</time>
      </trkpt>
      <trkpt lat="48.7383" lon="1.82311">
        <ele>175.1</ele>
        <time>2009-12-05T23:55:49.000Z</time>
      </trkpt>
      <trkpt lat="48.73819" lon="1.82322">
        <ele>174.14</ele>
        <time>2009-12-05T23:55:55.000Z</time>
      </trkpt>
      <trkpt lat="48.73809" lon="1.82329">
        <ele>172.21</ele>
        <time>2009-12-05T23:55:59.000Z</time>
      </trkpt>
      <trkpt lat="48.73798" lon="1.82338">
        <ele>171.25</ele>
        <time>2009-12-05T23:56:05.000Z</time>
      </trkpt>
      <trkpt lat="48.73793" lon="1.8234">
        <ele>171.73</ele>
        <time>2009-12-05T23:56:07.000Z</time>
      </trkpt>
      <trkpt lat="48.73786" lon="1.82341">
        <ele>170.77</ele>
        <time>2009-12-05T23:56:11.000Z</time>
      </trkpt>
      <trkpt lat="48.73778" lon="1.82344">
        <ele>169.81</ele>
        <time>2009-12-05T23:56:16.000Z</time>
      </trkpt>
      <trkpt lat="48.73777" lon="1.82341">
        <ele>170.77</ele>
        <time>2009-12-05T23:56:19.000Z</time>
      </trkpt>
      <trkpt lat="48.73766" lon="1.82329">
        <ele>168.37</ele>
        <time>2009-12-05T23:56:25.000Z</time>
      </trkpt>
      <trkpt lat="48.73756" lon="1.82318">
        <ele>167.89</ele>
        <time>2009-12-05T23:56:31.000Z</time>
      </trkpt>
      <trkpt lat="48.73755" lon="1.82317">
        <ele>168.37</ele>
        <time>2009-12-05T23:56:32.000Z</time>
      </trkpt>
      <trkpt lat="48.7375" lon="1.82313">
        <ele>166.93</ele>
        <time>2009-12-05T23:56:35.000Z</time>
      </trkpt>
      <trkpt lat="48.73744" lon="1.82308">
        <ele>167.89</ele>
        <time>2009-12-05T23:56:39.000Z</time>
      </trkpt>
      <trkpt lat="48.73738" lon="1.82299">
        <ele>167.41</ele>
        <time>2009-12-05T23:56:43.000Z</time>
      </trkpt>
      <trkpt lat="48.73734" lon="1.82294">
        <ele>168.37</ele>
        <time>2009-12-05T23:56:46.000Z</time>
      </trkpt>
      <trkpt lat="48.73724" lon="1.82283">
        <ele>167.41</ele>
        <time>2009-12-05T23:56:51.000Z</time>
      </trkpt>
      <trkpt lat="48.73717" lon="1.8227">
        <ele>166.93</ele>
        <time>2009-12-05T23:56:55.000Z</time>
      </trkpt>
      <trkpt lat="48.73707" lon="1.82253">
        <ele>176.54</ele>
        <time>2009-12-05T23:57:02.000Z</time>
      </trkpt>
      <trkpt lat="48.73705" lon="1.82252">
        <ele>176.06</ele>
        <time>2009-12-05T23:57:03.000Z</time>
      </trkpt>
      <trkpt lat="48.73692" lon="1.82236">
        <ele>181.83</ele>
        <time>2009-12-05T23:57:10.000Z</time>
      </trkpt>
      <trkpt lat="48.73686" lon="1.82228">
        <ele>184.23</ele>
        <time>2009-12-05T23:57:13.000Z</time>
      </trkpt>
      <trkpt lat="48.73676" lon="1.82213">
        <ele>187.11</ele>
        <time>2009-12-05T23:57:18.000Z</time>
      </trkpt>
      <trkpt lat="48.73674" lon="1.8221">
        <ele>186.63</ele>
        <time>2009-12-05T23:57:19.000Z</time>
      </trkpt>
      <trkpt lat="48.73671" lon="1.8219">
        <ele>187.59</ele>
        <time>2009-12-05T23:57:26.000Z</time>
      </trkpt>
      <trkpt lat="48.73671" lon="1.82171">
        <ele>190.96</ele>
        <time>2009-12-05T23:57:32.000Z</time>
      </trkpt>
      <trkpt lat="48.73671" lon="1.82162">
        <ele>190</ele>
        <time>2009-12-05T23:57:35.000Z</time>
      </trkpt>
      <trkpt lat="48.7367" lon="1.8214">
        <ele>192.4</ele>
        <time>2009-12-05T23:57:41.000Z</time>
      </trkpt>
      <trkpt lat="48.73669" lon="1.82122">
        <ele>191.92</ele>
        <time>2009-12-05T23:57:47.000Z</time>
      </trkpt>
      <trkpt lat="48.73666" lon="1.82112">
        <ele>193.36</ele>
        <time>2009-12-05T23:57:50.000Z</time>
      </trkpt>
      <trkpt lat="48.73665" lon="1.82104">
        <ele>191.92</ele>
        <time>2009-12-05T23:57:52.000Z</time>
      </trkpt>
      <trkpt lat="48.73665" lon="1.82083">
        <ele>190.48</ele>
        <time>2009-12-05T23:57:58.000Z</time>
      </trkpt>
      <trkpt lat="48.73664" lon="1.82073">
        <ele>190.96</ele>
        <time>2009-12-05T23:58:02.000Z</time>
      </trkpt>
      <trkpt lat="48.73665" lon="1.82064">
        <ele>190.96</ele>
        <time>2009-12-05T23:58:06.000Z</time>
      </trkpt>
      <trkpt lat="48.73663" lon="1.82048">
        <ele>189.04</ele>
        <time>2009-12-05T23:58:10.000Z</time>
      </trkpt>
      <trkpt lat="48.73662" lon="1.8203">
        <ele>190</ele>
        <time>2009-12-05T23:58:15.000Z</time>
      </trkpt>
      <trkpt lat="48.73661" lon="1.82024">
        <ele>188.08</ele>
        <time>2009-12-05T23:58:17.000Z</time>
      </trkpt>
      <trkpt lat="48.7366" lon="1.82009">
        <ele>191.92</ele>
        <time>2009-12-05T23:58:22.000Z</time>
      </trkpt>
      <trkpt lat="48.7366" lon="1.82001">
        <ele>185.67</ele>
        <time>2009-12-05T23:58:25.000Z</time>
      </trkpt>
      <trkpt lat="48.73654" lon="1.8198">
        <ele>175.1</ele>
        <time>2009-12-05T23:58:31.000Z</time>
      </trkpt>
      <trkpt lat="48.73653" lon="1.81974">
        <ele>173.17</ele>
        <time>2009-12-05T23:58:33.000Z</time>
      </trkpt>
      <trkpt lat="48.73648" lon="1.81952">
        <ele>168.85</ele>
        <time>2009-12-05T23:58:39.000Z</time>
      </trkpt>
      <trkpt lat="48.73646" lon="1.81933">
        <ele>169.33</ele>
        <time>2009-12-05T23:58:45.000Z</time>
      </trkpt>
      <trkpt lat="48.73648" lon="1.81919">
        <ele>173.17</ele>
        <time>2009-12-05T23:58:49.000Z</time>
      </trkpt>
      <trkpt lat="48.7365" lon="1.81897">
        <ele>187.11</ele>
        <time>2009-12-05T23:58:54.000Z</time>
      </trkpt>
      <trkpt lat="48.73652" lon="1.81882">
        <ele>195.28</ele>
        <time>2009-12-05T23:58:58.000Z</time>
      </trkpt>
      <trkpt lat="48.73652" lon="1.81872">
        <ele>199.61</ele>
        <time>2009-12-05T23:59:01.000Z</time>
      </trkpt>
      <trkpt lat="48.73654" lon="1.81858">
        <ele>202.98</ele>
        <time>2009-12-05T23:59:06.000Z</time>
      </trkpt>
      <trkpt lat="48.73652" lon="1.81844">
        <ele>206.34</ele>
        <time>2009-12-05T23:59:10.000Z</time>
      </trkpt>
      <trkpt lat="48.73641" lon="1.81843">
        <ele>204.42</ele>
        <time>2009-12-05T23:59:14.000Z</time>
      </trkpt>
      <trkpt lat="48.73627" lon="1.81839">
        <ele>202.49</ele>
        <time>2009-12-05T23:59:20.000Z</time>
      </trkpt>
      <trkpt lat="48.73618" lon="1.81836">
        <ele>191.92</ele>
        <time>2009-12-05T23:59:24.000Z</time>
      </trkpt>
      <trkpt lat="48.73616" lon="1.81833">
        <ele>191.92</ele>
        <time>2009-12-05T23:59:26.000Z</time>
      </trkpt>
      <trkpt lat="48.73609" lon="1.81827">
        <ele>189.52</ele>
        <time>2009-12-05T23:59:29.000Z</time>
      </trkpt>
      <trkpt lat="48.73595" lon="1.81815">
        <ele>177.5</ele>
        <time>2009-12-05T23:59:34.000Z</time>
      </trkpt>
      <trkpt lat="48.73592" lon="1.81812">
        <ele>174.62</ele>
        <time>2009-12-05T23:59:36.000Z</time>
      </trkpt>
      <trkpt lat="48.73583" lon="1.81808">
        <ele>171.73</ele>
        <time>2009-12-05T23:59:40.000Z</time>
      </trkpt>
      <trkpt lat="48.73579" lon="1.81808">
        <ele>173.17</ele>
        <time>2009-12-05T23:59:42.000Z</time>
      </trkpt>
      <trkpt lat="48.73567" lon="1.818">
        <ele>170.77</ele>
        <time>2009-12-05T23:59:47.000Z</time>
      </trkpt>
      <trkpt lat="48.73562" lon="1.81797">
        <ele>168.85</ele>
        <time>2009-12-05T23:59:49.000Z</time>
      </trkpt>
      <trkpt lat="48.7355" lon="1.81789">
        <ele>170.77</ele>
        <time>2009-12-05T23:59:55.000Z</time>
      </trkpt>
      <trkpt lat="48.73542" lon="1.81786">
        <ele>168.85</ele>
        <time>2009-12-06T00:00:00.000Z</time>
      </trkpt>
      <trkpt lat="48.73537" lon="1.81784">
        <ele>167.89</ele>
        <time>2009-12-06T00:00:04.000Z</time>
      </trkpt>
      <trkpt lat="48.73527" lon="1.81778">
        <ele>167.89</ele>
        <time>2009-12-06T00:00:09.000Z</time>
      </trkpt>
      <trkpt lat="48.73523" lon="1.81776">
        <ele>168.85</ele>
        <time>2009-12-06T00:00:11.000Z</time>
      </trkpt>
      <trkpt lat="48.7351" lon="1.81769">
        <ele>167.89</ele>
        <time>2009-12-06T00:00:17.000Z</time>
      </trkpt>
      <trkpt lat="48.73509" lon="1.81768">
        <ele>168.37</ele>
        <time>2009-12-06T00:00:18.000Z</time>
      </trkpt>
      <trkpt lat="48.73502" lon="1.81763">
        <ele>175.58</ele>
        <time>2009-12-06T00:00:21.000Z</time>
      </trkpt>
      <trkpt lat="48.735" lon="1.81749">
        <ele>181.83</ele>
        <time>2009-12-06T00:00:26.000Z</time>
      </trkpt>
      <trkpt lat="48.735" lon="1.81743">
        <ele>183.27</ele>
        <time>2009-12-06T00:00:28.000Z</time>
      </trkpt>
      <trkpt lat="48.73506" lon="1.81728">
        <ele>186.15</ele>
        <time>2009-12-06T00:00:34.000Z</time>
      </trkpt>
      <trkpt lat="48.73505" lon="1.81712">
        <ele>186.15</ele>
        <time>2009-12-06T00:00:39.000Z</time>
      </trkpt>
      <trkpt lat="48.73498" lon="1.81695">
        <ele>183.75</ele>
        <time>2009-12-06T00:00:45.000Z</time>
      </trkpt>
      <trkpt lat="48.73496" lon="1.81681">
        <ele>184.23</ele>
        <time>2009-12-06T00:00:49.000Z</time>
      </trkpt>
      <trkpt lat="48.73495" lon="1.81672">
        <ele>182.31</ele>
        <time>2009-12-06T00:00:52.000Z</time>
      </trkpt>
      <trkpt lat="48.73495" lon="1.81651">
        <ele>182.79</ele>
        <time>2009-12-06T00:00:58.000Z</time>
      </trkpt>
      <trkpt lat="48.73495" lon="1.81638">
        <ele>182.79</ele>
        <time>2009-12-06T00:01:03.000Z</time>
      </trkpt>
      <trkpt lat="48.73493" lon="1.81634">
        <ele>181.35</ele>
        <time>2009-12-06T00:01:06.000Z</time>
      </trkpt>
      <trkpt lat="48.73486" lon="1.81629">
        <ele>173.66</ele>
        <time>2009-12-06T00:01:10.000Z</time>
      </trkpt>
      <trkpt lat="48.73479" lon="1.81616">
        <ele>174.14</ele>
        <time>2009-12-06T00:01:15.000Z</time>
      </trkpt>
      <trkpt lat="48.7347" lon="1.8161">
        <ele>169.33</ele>
        <time>2009-12-06T00:01:18.000Z</time>
      </trkpt>
      <trkpt lat="48.73457" lon="1.81604">
        <ele>174.14</ele>
        <time>2009-12-06T00:01:24.000Z</time>
      </trkpt>
      <trkpt lat="48.73452" lon="1.81602">
        <ele>170.77</ele>
        <time>2009-12-06T00:01:26.000Z</time>
      </trkpt>
      <trkpt lat="48.73438" lon="1.81594">
        <ele>164.52</ele>
        <time>2009-12-06T00:01:32.000Z</time>
      </trkpt>
      <trkpt lat="48.73435" lon="1.81591">
        <ele>165</ele>
        <time>2009-12-06T00:01:33.000Z</time>
      </trkpt>
      <trkpt lat="48.73425" lon="1.81585">
        <ele>162.12</ele>
        <time>2009-12-06T00:01:38.000Z</time>
      </trkpt>
      <trkpt lat="48.73414" lon="1.8158">
        <ele>163.08</ele>
        <time>2009-12-06T00:01:45.000Z</time>
      </trkpt>
      <trkpt lat="48.73407" lon="1.81578">
        <ele>162.12</ele>
        <time>2009-12-06T00:01:49.000Z</time>
      </trkpt>
      <trkpt lat="48.73404" lon="1.81576">
        <ele>160.68</ele>
        <time>2009-12-06T00:01:51.000Z</time>
      </trkpt>
      <trkpt lat="48.73398" lon="1.81572">
        <ele>163.08</ele>
        <time>2009-12-06T00:01:56.000Z</time>
      </trkpt>
      <trkpt lat="48.73391" lon="1.81566">
        <ele>161.16</ele>
        <time>2009-12-06T00:01:59.000Z</time>
      </trkpt>
      <trkpt lat="48.73382" lon="1.81558">
        <ele>159.24</ele>
        <time>2009-12-06T00:02:03.000Z</time>
      </trkpt>
      <trkpt lat="48.73372" lon="1.81553">
        <ele>161.64</ele>
        <time>2009-12-06T00:02:08.000Z</time>
      </trkpt>
      <trkpt lat="48.7337" lon="1.81552">
        <ele>162.12</ele>
        <time>2009-12-06T00:02:09.000Z</time>
      </trkpt>
      <trkpt lat="48.73354" lon="1.81541">
        <ele>165.96</ele>
        <time>2009-12-06T00:02:15.000Z</time>
      </trkpt>
      <trkpt lat="48.73343" lon="1.81533">
        <ele>162.12</ele>
        <time>2009-12-06T00:02:21.000Z</time>
      </trkpt>
      <trkpt lat="48.73333" lon="1.81526">
        <ele>160.2</ele>
        <time>2009-12-06T00:02:25.000Z</time>
      </trkpt>
      <trkpt lat="48.73319" lon="1.81516">
        <ele>160.68</ele>
        <time>2009-12-06T00:02:30.000Z</time>
      </trkpt>
      <trkpt lat="48.73307" lon="1.81508">
        <ele>162.12</ele>
        <time>2009-12-06T00:02:34.000Z</time>
      </trkpt>
      <trkpt lat="48.73297" lon="1.81499">
        <ele>165.96</ele>
        <time>2009-12-06T00:02:39.000Z</time>
      </trkpt>
      <trkpt lat="48.73295" lon="1.81498">
        <ele>166.45</ele>
        <time>2009-12-06T00:02:40.000Z</time>
      </trkpt>
      <trkpt lat="48.73282" lon="1.81499">
        <ele>165.48</ele>
        <time>2009-12-06T00:02:47.000Z</time>
      </trkpt>
      <trkpt lat="48.73275" lon="1.81501">
        <ele>162.6</ele>
        <time>2009-12-06T00:02:50.000Z</time>
      </trkpt>
      <trkpt lat="48.73272" lon="1.815">
        <ele>164.52</ele>
        <time>2009-12-06T00:02:53.000Z</time>
      </trkpt>
      <trkpt lat="48.7326" lon="1.81496">
        <ele>166.93</ele>
        <time>2009-12-06T00:02:59.000Z</time>
      </trkpt>
      <trkpt lat="48.7325" lon="1.81503">
        <ele>163.56</ele>
        <time>2009-12-06T00:03:04.000Z</time>
      </trkpt>
      <trkpt lat="48.73241" lon="1.81505">
        <ele>158.75</ele>
        <time>2009-12-06T00:03:08.000Z</time>
      </trkpt>
      <trkpt lat="48.7323" lon="1.81509">
        <ele>154.91</ele>
        <time>2009-12-06T00:03:13.000Z</time>
      </trkpt>
      <trkpt lat="48.73222" lon="1.81514">
        <ele>154.91</ele>
        <time>2009-12-06T00:03:17.000Z</time>
      </trkpt>
      <trkpt lat="48.73212" lon="1.8152">
        <ele>153.95</ele>
        <time>2009-12-06T00:03:22.000Z</time>
      </trkpt>
      <trkpt lat="48.73201" lon="1.81525">
        <ele>152.03</ele>
        <time>2009-12-06T00:03:27.000Z</time>
      </trkpt>
      <trkpt lat="48.73193" lon="1.8153">
        <ele>151.06</ele>
        <time>2009-12-06T00:03:30.000Z</time>
      </trkpt>
      <trkpt lat="48.73183" lon="1.81533">
        <ele>149.62</ele>
        <time>2009-12-06T00:03:35.000Z</time>
      </trkpt>
      <trkpt lat="48.73172" lon="1.8153">
        <ele>148.66</ele>
        <time>2009-12-06T00:03:41.000Z</time>
      </trkpt>
      <trkpt lat="48.73163" lon="1.81525">
        <ele>150.1</ele>
        <time>2009-12-06T00:03:46.000Z</time>
      </trkpt>
      <trkpt lat="48.73149" lon="1.81525">
        <ele>149.14</ele>
        <time>2009-12-06T00:03:52.000Z</time>
      </trkpt>
      <trkpt lat="48.73141" lon="1.81524">
        <ele>150.58</ele>
        <time>2009-12-06T00:03:56.000Z</time>
      </trkpt>
      <trkpt lat="48.73128" lon="1.81523">
        <ele>152.51</ele>
        <time>2009-12-06T00:04:02.000Z</time>
      </trkpt>
      <trkpt lat="48.7312" lon="1.81521">
        <ele>154.91</ele>
        <time>2009-12-06T00:04:06.000Z</time>
      </trkpt>
      <trkpt lat="48.73118" lon="1.81521">
        <ele>154.91</ele>
        <time>2009-12-06T00:04:07.000Z</time>
      </trkpt>
      <trkpt lat="48.73107" lon="1.81519">
        <ele>154.43</ele>
        <time>2009-12-06T00:04:12.000Z</time>
      </trkpt>
      <trkpt lat="48.73106" lon="1.81518">
        <ele>154.91</ele>
        <time>2009-12-06T00:04:13.000Z</time>
      </trkpt>
      <trkpt lat="48.73098" lon="1.81517">
        <ele>159.72</ele>
        <time>2009-12-06T00:04:17.000Z</time>
      </trkpt>
      <trkpt lat="48.73089" lon="1.81515">
        <ele>165</ele>
        <time>2009-12-06T00:04:22.000Z</time>
      </trkpt>
      <trkpt lat="48.73077" lon="1.81515">
        <ele>170.29</ele>
        <time>2009-12-06T00:04:30.000Z</time>
      </trkpt>
      <trkpt lat="48.73066" lon="1.81516">
        <ele>178.94</ele>
        <time>2009-12-06T00:04:35.000Z</time>
      </trkpt>
      <trkpt lat="48.73062" lon="1.81518">
        <ele>178.94</ele>
        <time>2009-12-06T00:04:37.000Z</time>
      </trkpt>
      <trkpt lat="48.73053" lon="1.81514">
        <ele>179.9</ele>
        <time>2009-12-06T00:04:41.000Z</time>
      </trkpt>
      <trkpt lat="48.7305" lon="1.81513">
        <ele>178.46</ele>
        <time>2009-12-06T00:04:43.000Z</time>
      </trkpt>
      <trkpt lat="48.73037" lon="1.81516">
        <ele>172.21</ele>
        <time>2009-12-06T00:04:48.000Z</time>
      </trkpt>
      <trkpt lat="48.73034" lon="1.81516">
        <ele>172.21</ele>
        <time>2009-12-06T00:04:49.000Z</time>
      </trkpt>
      <trkpt lat="48.73023" lon="1.81518">
        <ele>173.66</ele>
        <time>2009-12-06T00:04:54.000Z</time>
      </trkpt>
      <trkpt lat="48.73007" lon="1.81507">
        <ele>174.62</ele>
        <time>2009-12-06T00:05:01.000Z</time>
      </trkpt>
      <trkpt lat="48.72995" lon="1.81497">
        <ele>172.21</ele>
        <time>2009-12-06T00:05:04.000Z</time>
      </trkpt>
      <trkpt lat="48.72981" lon="1.81494">
        <ele>173.17</ele>
        <time>2009-12-06T00:05:10.000Z</time>
      </trkpt>
      <trkpt lat="48.72972" lon="1.81498">
        <ele>174.62</ele>
        <time>2009-12-06T00:05:15.000Z</time>
      </trkpt>
      <trkpt lat="48.72971" lon="1.81499">
        <ele>175.58</ele>
        <time>2009-12-06T00:05:16.000Z</time>
      </trkpt>
      <trkpt lat="48.7296" lon="1.81506">
        <ele>170.29</ele>
        <time>2009-12-06T00:05:21.000Z</time>
      </trkpt>
      <trkpt lat="48.72956" lon="1.81509">
        <ele>170.29</ele>
        <time>2009-12-06T00:05:23.000Z</time>
      </trkpt>
      <trkpt lat="48.72949" lon="1.81503">
        <ele>171.73</ele>
        <time>2009-12-06T00:05:29.000Z</time>
      </trkpt>
      <trkpt lat="48.72941" lon="1.81497">
        <ele>167.89</ele>
        <time>2009-12-06T00:05:35.000Z</time>
      </trkpt>
      <trkpt lat="48.72937" lon="1.81494">
        <ele>174.14</ele>
        <time>2009-12-06T00:05:39.000Z</time>
      </trkpt>
      <trkpt lat="48.7293" lon="1.81498">
        <ele>175.1</ele>
        <time>2009-12-06T00:05:44.000Z</time>
      </trkpt>
      <trkpt lat="48.72926" lon="1.81503">
        <ele>177.02</ele>
        <time>2009-12-06T00:05:46.000Z</time>
      </trkpt>
      <trkpt lat="48.72919" lon="1.81514">
        <ele>178.46</ele>
        <time>2009-12-06T00:05:51.000Z</time>
      </trkpt>
      <trkpt lat="48.72916" lon="1.81519">
        <ele>177.02</ele>
        <time>2009-12-06T00:05:53.000Z</time>
      </trkpt>
      <trkpt lat="48.72907" lon="1.81531">
        <ele>171.73</ele>
        <time>2009-12-06T00:05:58.000Z</time>
      </trkpt>
      <trkpt lat="48.72899" lon="1.81534">
        <ele>171.25</ele>
        <time>2009-12-06T00:06:02.000Z</time>
      </trkpt>
      <trkpt lat="48.72896" lon="1.81535">
        <ele>172.21</ele>
        <time>2009-12-06T00:06:04.000Z</time>
      </trkpt>
      <trkpt lat="48.72887" lon="1.81543">
        <ele>170.77</ele>
        <time>2009-12-06T00:06:09.000Z</time>
      </trkpt>
      <trkpt lat="48.72886" lon="1.81545">
        <ele>169.81</ele>
        <time>2009-12-06T00:06:10.000Z</time>
      </trkpt>
      <trkpt lat="48.72878" lon="1.81563">
        <ele>176.06</ele>
        <time>2009-12-06T00:06:16.000Z</time>
      </trkpt>
      <trkpt lat="48.72874" lon="1.81571">
        <ele>180.87</ele>
        <time>2009-12-06T00:06:20.000Z</time>
      </trkpt>
      <trkpt lat="48.72873" lon="1.81575">
        <ele>182.79</ele>
        <time>2009-12-06T00:06:22.000Z</time>
      </trkpt>
      <trkpt lat="48.72869" lon="1.81573">
        <ele>181.83</ele>
        <time>2009-12-06T00:06:27.000Z</time>
      </trkpt>
      <trkpt lat="48.72868" lon="1.81573">
        <ele>180.87</ele>
        <time>2009-12-06T00:06:29.000Z</time>
      </trkpt>
      <trkpt lat="48.72865" lon="1.81573">
        <ele>180.87</ele>
        <time>2009-12-06T00:06:32.000Z</time>
      </trkpt>
      <trkpt lat="48.7286" lon="1.81569">
        <ele>181.83</ele>
        <time>2009-12-06T00:06:38.000Z</time>
      </trkpt>
      <trkpt lat="48.72857" lon="1.8157">
        <ele>179.42</ele>
        <time>2009-12-06T00:06:40.000Z</time>
      </trkpt>
      <trkpt lat="48.7284" lon="1.81563">
        <ele>171.73</ele>
        <time>2009-12-06T00:06:46.000Z</time>
      </trkpt>
      <trkpt lat="48.72833" lon="1.81562">
        <ele>166.93</ele>
        <time>2009-12-06T00:06:51.000Z</time>
      </trkpt>
      <trkpt lat="48.72825" lon="1.81562">
        <ele>169.81</ele>
        <time>2009-12-06T00:06:56.000Z</time>
      </trkpt>
      <trkpt lat="48.72817" lon="1.81557">
        <ele>172.69</ele>
        <time>2009-12-06T00:07:00.000Z</time>
      </trkpt>
      <trkpt lat="48.72815" lon="1.81556">
        <ele>174.14</ele>
        <time>2009-12-06T00:07:01.000Z</time>
      </trkpt>
      <trkpt lat="48.72805" lon="1.81552">
        <ele>172.21</ele>
        <time>2009-12-06T00:07:06.000Z</time>
      </trkpt>
      <trkpt lat="48.72793" lon="1.81548">
        <ele>166.93</ele>
        <time>2009-12-06T00:07:11.000Z</time>
      </trkpt>
      <trkpt lat="48.72791" lon="1.81547">
        <ele>167.89</ele>
        <time>2009-12-06T00:07:12.000Z</time>
      </trkpt>
      <trkpt lat="48.72779" lon="1.81539">
        <ele>168.37</ele>
        <time>2009-12-06T00:07:18.000Z</time>
      </trkpt>
      <trkpt lat="48.72777" lon="1.81537">
        <ele>166.93</ele>
        <time>2009-12-06T00:07:19.000Z</time>
      </trkpt>
      <trkpt lat="48.72772" lon="1.81535">
        <ele>165</ele>
        <time>2009-12-06T00:07:21.000Z</time>
      </trkpt>
      <trkpt lat="48.72768" lon="1.81526">
        <ele>173.17</ele>
        <time>2009-12-06T00:07:26.000Z</time>
      </trkpt>
      <trkpt lat="48.72768" lon="1.81525">
        <ele>174.62</ele>
        <time>2009-12-06T00:07:27.000Z</time>
      </trkpt>
      <trkpt lat="48.72773" lon="1.8151">
        <ele>179.42</ele>
        <time>2009-12-06T00:07:32.000Z</time>
      </trkpt>
      <trkpt lat="48.72776" lon="1.81496">
        <ele>183.75</ele>
        <time>2009-12-06T00:07:37.000Z</time>
      </trkpt>
      <trkpt lat="48.72778" lon="1.81487">
        <ele>185.67</ele>
        <time>2009-12-06T00:07:40.000Z</time>
      </trkpt>
      <trkpt lat="48.72782" lon="1.81473">
        <ele>185.67</ele>
        <time>2009-12-06T00:07:45.000Z</time>
      </trkpt>
      <trkpt lat="48.72779" lon="1.81453">
        <ele>186.15</ele>
        <time>2009-12-06T00:07:50.000Z</time>
      </trkpt>
      <trkpt lat="48.72778" lon="1.81433">
        <ele>185.19</ele>
        <time>2009-12-06T00:07:55.000Z</time>
      </trkpt>
      <trkpt lat="48.72772" lon="1.81417">
        <ele>181.83</ele>
        <time>2009-12-06T00:08:01.000Z</time>
      </trkpt>
      <trkpt lat="48.72762" lon="1.81401">
        <ele>175.1</ele>
        <time>2009-12-06T00:08:06.000Z</time>
      </trkpt>
      <trkpt lat="48.72749" lon="1.81402">
        <ele>176.06</ele>
        <time>2009-12-06T00:08:11.000Z</time>
      </trkpt>
      <trkpt lat="48.72747" lon="1.81404">
        <ele>175.58</ele>
        <time>2009-12-06T00:08:12.000Z</time>
      </trkpt>
      <trkpt lat="48.72736" lon="1.81422">
        <ele>170.29</ele>
        <time>2009-12-06T00:08:18.000Z</time>
      </trkpt>
      <trkpt lat="48.72734" lon="1.81424">
        <ele>168.85</ele>
        <time>2009-12-06T00:08:19.000Z</time>
      </trkpt>
      <trkpt lat="48.72722" lon="1.81434">
        <ele>162.6</ele>
        <time>2009-12-06T00:08:24.000Z</time>
      </trkpt>
      <trkpt lat="48.72712" lon="1.81436">
        <ele>157.79</ele>
        <time>2009-12-06T00:08:28.000Z</time>
      </trkpt>
      <trkpt lat="48.72701" lon="1.81431">
        <ele>156.35</ele>
        <time>2009-12-06T00:08:32.000Z</time>
      </trkpt>
      <trkpt lat="48.72692" lon="1.81429">
        <ele>162.12</ele>
        <time>2009-12-06T00:08:37.000Z</time>
      </trkpt>
      <trkpt lat="48.7268" lon="1.81426">
        <ele>164.04</ele>
        <time>2009-12-06T00:08:43.000Z</time>
      </trkpt>
      <trkpt lat="48.72674" lon="1.81424">
        <ele>164.04</ele>
        <time>2009-12-06T00:08:45.000Z</time>
      </trkpt>
      <trkpt lat="48.72662" lon="1.81421">
        <ele>166.45</ele>
        <time>2009-12-06T00:08:50.000Z</time>
      </trkpt>
      <trkpt lat="48.72652" lon="1.81422">
        <ele>175.58</ele>
        <time>2009-12-06T00:08:55.000Z</time>
      </trkpt>
      <trkpt lat="48.72644" lon="1.81421">
        <ele>170.77</ele>
        <time>2009-12-06T00:08:58.000Z</time>
      </trkpt>
      <trkpt lat="48.72633" lon="1.81418">
        <ele>163.56</ele>
        <time>2009-12-06T00:09:03.000Z</time>
      </trkpt>
      <trkpt lat="48.72626" lon="1.81422">
        <ele>160.2</ele>
        <time>2009-12-06T00:09:07.000Z</time>
      </trkpt>
      <trkpt lat="48.72619" lon="1.81431">
        <ele>155.39</ele>
        <time>2009-12-06T00:09:11.000Z</time>
      </trkpt>
      <trkpt lat="48.72611" lon="1.81438">
        <ele>150.58</ele>
        <time>2009-12-06T00:09:15.000Z</time>
      </trkpt>
      <trkpt lat="48.72603" lon="1.81441">
        <ele>147.22</ele>
        <time>2009-12-06T00:09:18.000Z</time>
      </trkpt>
      <trkpt lat="48.72588" lon="1.81443">
        <ele>141.93</ele>
        <time>2009-12-06T00:09:24.000Z</time>
      </trkpt>
      <trkpt lat="48.72583" lon="1.81447">
        <ele>144.82</ele>
        <time>2009-12-06T00:09:26.000Z</time>
      </trkpt>
      <trkpt lat="48.72575" lon="1.81464">
        <ele>150.1</ele>
        <time>2009-12-06T00:09:32.000Z</time>
      </trkpt>
      <trkpt lat="48.72561" lon="1.81482">
        <ele>155.87</ele>
        <time>2009-12-06T00:09:41.000Z</time>
      </trkpt>
      <trkpt lat="48.72561" lon="1.81498">
        <ele>166.45</ele>
        <time>2009-12-06T00:09:46.000Z</time>
      </trkpt>
      <trkpt lat="48.72556" lon="1.81515">
        <ele>175.1</ele>
        <time>2009-12-06T00:09:51.000Z</time>
      </trkpt>
      <trkpt lat="48.72551" lon="1.8152">
        <ele>175.58</ele>
        <time>2009-12-06T00:09:54.000Z</time>
      </trkpt>
      <trkpt lat="48.72545" lon="1.81531">
        <ele>179.42</ele>
        <time>2009-12-06T00:09:58.000Z</time>
      </trkpt>
      <trkpt lat="48.72538" lon="1.81534">
        <ele>175.1</ele>
        <time>2009-12-06T00:10:02.000Z</time>
      </trkpt>
      <trkpt lat="48.72532" lon="1.81547">
        <ele>179.9</ele>
        <time>2009-12-06T00:10:07.000Z</time>
      </trkpt>
      <trkpt lat="48.72524" lon="1.81565">
        <ele>184.71</ele>
        <time>2009-12-06T00:10:12.000Z</time>
      </trkpt>
      <trkpt lat="48.7252" lon="1.81577">
        <ele>187.11</ele>
        <time>2009-12-06T00:10:17.000Z</time>
      </trkpt>
      <trkpt lat="48.72513" lon="1.81588">
        <ele>184.71</ele>
        <time>2009-12-06T00:10:21.000Z</time>
      </trkpt>
      <trkpt lat="48.72506" lon="1.816">
        <ele>182.79</ele>
        <time>2009-12-06T00:10:26.000Z</time>
      </trkpt>
      <trkpt lat="48.72491" lon="1.81603">
        <ele>170.29</ele>
        <time>2009-12-06T00:10:32.000Z</time>
      </trkpt>
      <trkpt lat="48.72485" lon="1.81611">
        <ele>171.25</ele>
        <time>2009-12-06T00:10:37.000Z</time>
      </trkpt>
      <trkpt lat="48.72479" lon="1.8162">
        <ele>169.33</ele>
        <time>2009-12-06T00:10:40.000Z</time>
      </trkpt>
      <trkpt lat="48.72475" lon="1.81634">
        <ele>170.77</ele>
        <time>2009-12-06T00:10:44.000Z</time>
      </trkpt>
      <trkpt lat="48.72471" lon="1.81649">
        <ele>173.66</ele>
        <time>2009-12-06T00:10:49.000Z</time>
      </trkpt>
      <trkpt lat="48.72467" lon="1.81662">
        <ele>175.58</ele>
        <time>2009-12-06T00:10:53.000Z</time>
      </trkpt>
      <trkpt lat="48.72462" lon="1.81677">
        <ele>176.54</ele>
        <time>2009-12-06T00:10:58.000Z</time>
      </trkpt>
      <trkpt lat="48.72458" lon="1.81695">
        <ele>178.94</ele>
        <time>2009-12-06T00:11:03.000Z</time>
      </trkpt>
      <trkpt lat="48.72454" lon="1.81706">
        <ele>181.35</ele>
        <time>2009-12-06T00:11:07.000Z</time>
      </trkpt>
      <trkpt lat="48.72449" lon="1.81718">
        <ele>181.35</ele>
        <time>2009-12-06T00:11:11.000Z</time>
      </trkpt>
      <trkpt lat="48.72446" lon="1.81732">
        <ele>182.31</ele>
        <time>2009-12-06T00:11:15.000Z</time>
      </trkpt>
      <trkpt lat="48.72442" lon="1.81739">
        <ele>181.83</ele>
        <time>2009-12-06T00:11:18.000Z</time>
      </trkpt>
      <trkpt lat="48.72439" lon="1.81754">
        <ele>181.83</ele>
        <time>2009-12-06T00:11:23.000Z</time>
      </trkpt>
      <trkpt lat="48.72433" lon="1.81766">
        <ele>183.75</ele>
        <time>2009-12-06T00:11:27.000Z</time>
      </trkpt>
      <trkpt lat="48.72427" lon="1.81789">
        <ele>190.48</ele>
        <time>2009-12-06T00:11:34.000Z</time>
      </trkpt>
      <trkpt lat="48.72421" lon="1.81802">
        <ele>186.15</ele>
        <time>2009-12-06T00:11:38.000Z</time>
      </trkpt>
      <trkpt lat="48.72413" lon="1.81812">
        <ele>181.83</ele>
        <time>2009-12-06T00:11:43.000Z</time>
      </trkpt>
      <trkpt lat="48.72409" lon="1.8182">
        <ele>181.83</ele>
        <time>2009-12-06T00:11:46.000Z</time>
      </trkpt>
      <trkpt lat="48.72408" lon="1.81829">
        <ele>183.75</ele>
        <time>2009-12-06T00:11:51.000Z</time>
      </trkpt>
      <trkpt lat="48.72405" lon="1.81837">
        <ele>179.42</ele>
        <time>2009-12-06T00:11:55.000Z</time>
      </trkpt>
      <trkpt lat="48.724" lon="1.81853">
        <ele>182.31</ele>
        <time>2009-12-06T00:11:59.000Z</time>
      </trkpt>
      <trkpt lat="48.72395" lon="1.81863">
        <ele>177.02</ele>
        <time>2009-12-06T00:12:03.000Z</time>
      </trkpt>
      <trkpt lat="48.7239" lon="1.81879">
        <ele>177.02</ele>
        <time>2009-12-06T00:12:07.000Z</time>
      </trkpt>
      <trkpt lat="48.7239" lon="1.81902">
        <ele>190.48</ele>
        <time>2009-12-06T00:12:13.000Z</time>
      </trkpt>
      <trkpt lat="48.72389" lon="1.81908">
        <ele>189.52</ele>
        <time>2009-12-06T00:12:16.000Z</time>
      </trkpt>
      <trkpt lat="48.72384" lon="1.81922">
        <ele>186.15</ele>
        <time>2009-12-06T00:12:22.000Z</time>
      </trkpt>
      <trkpt lat="48.7238" lon="1.81933">
        <ele>191.44</ele>
        <time>2009-12-06T00:12:26.000Z</time>
      </trkpt>
      <trkpt lat="48.72375" lon="1.81947">
        <ele>195.77</ele>
        <time>2009-12-06T00:12:30.000Z</time>
      </trkpt>
      <trkpt lat="48.72371" lon="1.81964">
        <ele>202.01</ele>
        <time>2009-12-06T00:12:35.000Z</time>
      </trkpt>
      <trkpt lat="48.7237" lon="1.81967">
        <ele>204.42</ele>
        <time>2009-12-06T00:12:36.000Z</time>
      </trkpt>
      <trkpt lat="48.72367" lon="1.81974">
        <ele>203.46</ele>
        <time>2009-12-06T00:12:40.000Z</time>
      </trkpt>
      <trkpt lat="48.72363" lon="1.8198">
        <ele>196.25</ele>
        <time>2009-12-06T00:12:44.000Z</time>
      </trkpt>
      <trkpt lat="48.7236" lon="1.81979">
        <ele>190</ele>
        <time>2009-12-06T00:12:46.000Z</time>
      </trkpt>
      <trkpt lat="48.72353" lon="1.81989">
        <ele>186.15</ele>
        <time>2009-12-06T00:12:51.000Z</time>
      </trkpt>
      <trkpt lat="48.72351" lon="1.81996">
        <ele>184.71</ele>
        <time>2009-12-06T00:12:53.000Z</time>
      </trkpt>
      <trkpt lat="48.72344" lon="1.82014">
        <ele>180.87</ele>
        <time>2009-12-06T00:12:59.000Z</time>
      </trkpt>
      <trkpt lat="48.72338" lon="1.82027">
        <ele>177.98</ele>
        <time>2009-12-06T00:13:04.000Z</time>
      </trkpt>
      <trkpt lat="48.72334" lon="1.82039">
        <ele>175.58</ele>
        <time>2009-12-06T00:13:08.000Z</time>
      </trkpt>
      <trkpt lat="48.72331" lon="1.82053">
        <ele>178.46</ele>
        <time>2009-12-06T00:13:12.000Z</time>
      </trkpt>
      <trkpt lat="48.72329" lon="1.82062">
        <ele>173.66</ele>
        <time>2009-12-06T00:13:16.000Z</time>
      </trkpt>
      <trkpt lat="48.72325" lon="1.82073">
        <ele>170.77</ele>
        <time>2009-12-06T00:13:20.000Z</time>
      </trkpt>
      <trkpt lat="48.72321" lon="1.82092">
        <ele>168.37</ele>
        <time>2009-12-06T00:13:26.000Z</time>
      </trkpt>
      <trkpt lat="48.72317" lon="1.82106">
        <ele>170.77</ele>
        <time>2009-12-06T00:13:31.000Z</time>
      </trkpt>
      <trkpt lat="48.72311" lon="1.82129">
        <ele>173.66</ele>
        <time>2009-12-06T00:13:38.000Z</time>
      </trkpt>
      <trkpt lat="48.72306" lon="1.8214">
        <ele>173.17</ele>
        <time>2009-12-06T00:13:42.000Z</time>
      </trkpt>
      <trkpt lat="48.723" lon="1.82152">
        <ele>170.29</ele>
        <time>2009-12-06T00:13:46.000Z</time>
      </trkpt>
      <trkpt lat="48.72297" lon="1.82162">
        <ele>167.89</ele>
        <time>2009-12-06T00:13:50.000Z</time>
      </trkpt>
      <trkpt lat="48.72291" lon="1.82178">
        <ele>168.85</ele>
        <time>2009-12-06T00:13:56.000Z</time>
      </trkpt>
      <trkpt lat="48.72283" lon="1.82194">
        <ele>167.41</ele>
        <time>2009-12-06T00:14:02.000Z</time>
      </trkpt>
      <trkpt lat="48.72279" lon="1.82205">
        <ele>167.41</ele>
        <time>2009-12-06T00:14:06.000Z</time>
      </trkpt>
      <trkpt lat="48.72272" lon="1.82219">
        <ele>171.73</ele>
        <time>2009-12-06T00:14:11.000Z</time>
      </trkpt>
      <trkpt lat="48.72269" lon="1.82222">
        <ele>171.73</ele>
        <time>2009-12-06T00:14:12.000Z</time>
      </trkpt>
      <trkpt lat="48.72263" lon="1.82242">
        <ele>176.54</ele>
        <time>2009-12-06T00:14:18.000Z</time>
      </trkpt>
      <trkpt lat="48.72261" lon="1.82245">
        <ele>177.02</ele>
        <time>2009-12-06T00:14:19.000Z</time>
      </trkpt>
      <trkpt lat="48.72255" lon="1.82263">
        <ele>172.21</ele>
        <time>2009-12-06T00:14:25.000Z</time>
      </trkpt>
      <trkpt lat="48.72255" lon="1.82265">
        <ele>172.21</ele>
        <time>2009-12-06T00:14:26.000Z</time>
      </trkpt>
      <trkpt lat="48.72251" lon="1.82277">
        <ele>173.17</ele>
        <time>2009-12-06T00:14:30.000Z</time>
      </trkpt>
      <trkpt lat="48.72247" lon="1.82293">
        <ele>174.14</ele>
        <time>2009-12-06T00:14:36.000Z</time>
      </trkpt>
      <trkpt lat="48.7224" lon="1.82312">
        <ele>175.58</ele>
        <time>2009-12-06T00:14:42.000Z</time>
      </trkpt>
      <trkpt lat="48.72239" lon="1.82314">
        <ele>174.62</ele>
        <time>2009-12-06T00:14:43.000Z</time>
      </trkpt>
      <trkpt lat="48.72237" lon="1.82325">
        <ele>173.66</ele>
        <time>2009-12-06T00:14:47.000Z</time>
      </trkpt>
      <trkpt lat="48.72232" lon="1.82335">
        <ele>173.17</ele>
        <time>2009-12-06T00:14:51.000Z</time>
      </trkpt>
      <trkpt lat="48.72223" lon="1.82355">
        <ele>174.14</ele>
        <time>2009-12-06T00:14:58.000Z</time>
      </trkpt>
      <trkpt lat="48.72222" lon="1.8236">
        <ele>174.62</ele>
        <time>2009-12-06T00:15:00.000Z</time>
      </trkpt>
      <trkpt lat="48.72219" lon="1.8237">
        <ele>177.02</ele>
        <time>2009-12-06T00:15:03.000Z</time>
      </trkpt>
      <trkpt lat="48.72212" lon="1.82387">
        <ele>177.98</ele>
        <time>2009-12-06T00:15:08.000Z</time>
      </trkpt>
      <trkpt lat="48.72206" lon="1.824">
        <ele>172.69</ele>
        <time>2009-12-06T00:15:13.000Z</time>
      </trkpt>
      <trkpt lat="48.72201" lon="1.82411">
        <ele>172.21</ele>
        <time>2009-12-06T00:15:17.000Z</time>
      </trkpt>
      <trkpt lat="48.72195" lon="1.82428">
        <ele>176.54</ele>
        <time>2009-12-06T00:15:22.000Z</time>
      </trkpt>
      <trkpt lat="48.72188" lon="1.82442">
        <ele>180.87</ele>
        <time>2009-12-06T00:15:27.000Z</time>
      </trkpt>
      <trkpt lat="48.72188" lon="1.82445">
        <ele>182.31</ele>
        <time>2009-12-06T00:15:28.000Z</time>
      </trkpt>
      <trkpt lat="48.72182" lon="1.82458">
        <ele>186.63</ele>
        <time>2009-12-06T00:15:34.000Z</time>
      </trkpt>
      <trkpt lat="48.72178" lon="1.82467">
        <ele>187.59</ele>
        <time>2009-12-06T00:15:37.000Z</time>
      </trkpt>
      <trkpt lat="48.72173" lon="1.82478">
        <ele>188.08</ele>
        <time>2009-12-06T00:15:40.000Z</time>
      </trkpt>
      <trkpt lat="48.72172" lon="1.82481">
        <ele>187.59</ele>
        <time>2009-12-06T00:15:42.000Z</time>
      </trkpt>
      <trkpt lat="48.72165" lon="1.82485">
        <ele>177.98</ele>
        <time>2009-12-06T00:15:47.000Z</time>
      </trkpt>
      <trkpt lat="48.72159" lon="1.82494">
        <ele>175.58</ele>
        <time>2009-12-06T00:15:51.000Z</time>
      </trkpt>
      <trkpt lat="48.72156" lon="1.82508">
        <ele>176.54</ele>
        <time>2009-12-06T00:15:55.000Z</time>
      </trkpt>
      <trkpt lat="48.72156" lon="1.82512">
        <ele>176.54</ele>
        <time>2009-12-06T00:15:56.000Z</time>
      </trkpt>
      <trkpt lat="48.72151" lon="1.8253">
        <ele>167.89</ele>
        <time>2009-12-06T00:16:01.000Z</time>
      </trkpt>
      <trkpt lat="48.72144" lon="1.82536">
        <ele>162.6</ele>
        <time>2009-12-06T00:16:06.000Z</time>
      </trkpt>
      <trkpt lat="48.72136" lon="1.82548">
        <ele>159.24</ele>
        <time>2009-12-06T00:16:12.000Z</time>
      </trkpt>
      <trkpt lat="48.72133" lon="1.82549">
        <ele>155.87</ele>
        <time>2009-12-06T00:16:14.000Z</time>
      </trkpt>
      <trkpt lat="48.72126" lon="1.82556">
        <ele>152.51</ele>
        <time>2009-12-06T00:16:18.000Z</time>
      </trkpt>
      <trkpt lat="48.72117" lon="1.82565">
        <ele>150.58</ele>
        <time>2009-12-06T00:16:24.000Z</time>
      </trkpt>
      <trkpt lat="48.72115" lon="1.82568">
        <ele>151.06</ele>
        <time>2009-12-06T00:16:25.000Z</time>
      </trkpt>
      <trkpt lat="48.72104" lon="1.82581">
        <ele>147.7</ele>
        <time>2009-12-06T00:16:31.000Z</time>
      </trkpt>
      <trkpt lat="48.72103" lon="1.82583">
        <ele>146.74</ele>
        <time>2009-12-06T00:16:32.000Z</time>
      </trkpt>
      <trkpt lat="48.72101" lon="1.82607">
        <ele>161.16</ele>
        <time>2009-12-06T00:16:38.000Z</time>
      </trkpt>
      <trkpt lat="48.721" lon="1.82614">
        <ele>163.56</ele>
        <time>2009-12-06T00:16:40.000Z</time>
      </trkpt>
      <trkpt lat="48.72099" lon="1.8262">
        <ele>164.52</ele>
        <time>2009-12-06T00:16:42.000Z</time>
      </trkpt>
      <trkpt lat="48.72091" lon="1.82637">
        <ele>167.89</ele>
        <time>2009-12-06T00:16:48.000Z</time>
      </trkpt>
      <trkpt lat="48.72086" lon="1.82651">
        <ele>169.33</ele>
        <time>2009-12-06T00:16:55.000Z</time>
      </trkpt>
      <trkpt lat="48.72081" lon="1.82657">
        <ele>167.41</ele>
        <time>2009-12-06T00:16:57.000Z</time>
      </trkpt>
      <trkpt lat="48.72071" lon="1.82661">
        <ele>166.93</ele>
        <time>2009-12-06T00:17:02.000Z</time>
      </trkpt>
      <trkpt lat="48.72071" lon="1.82676">
        <ele>167.41</ele>
        <time>2009-12-06T00:17:07.000Z</time>
      </trkpt>
      <trkpt lat="48.72068" lon="1.82689">
        <ele>165.96</ele>
        <time>2009-12-06T00:17:11.000Z</time>
      </trkpt>
      <trkpt lat="48.72063" lon="1.82707">
        <ele>168.85</ele>
        <time>2009-12-06T00:17:17.000Z</time>
      </trkpt>
      <trkpt lat="48.72063" lon="1.82726">
        <ele>175.1</ele>
        <time>2009-12-06T00:17:22.000Z</time>
      </trkpt>
      <trkpt lat="48.72065" lon="1.82741">
        <ele>177.98</ele>
        <time>2009-12-06T00:17:26.000Z</time>
      </trkpt>
      <trkpt lat="48.72063" lon="1.82754">
        <ele>175.1</ele>
        <time>2009-12-06T00:17:32.000Z</time>
      </trkpt>
      <trkpt lat="48.72061" lon="1.82767">
        <ele>172.69</ele>
        <time>2009-12-06T00:17:36.000Z</time>
      </trkpt>
      <trkpt lat="48.72061" lon="1.82783">
        <ele>168.85</ele>
        <time>2009-12-06T00:17:41.000Z</time>
      </trkpt>
      <trkpt lat="48.72057" lon="1.82797">
        <ele>166.45</ele>
        <time>2009-12-06T00:17:46.000Z</time>
      </trkpt>
      <trkpt lat="48.7205" lon="1.82801">
        <ele>163.56</ele>
        <time>2009-12-06T00:17:51.000Z</time>
      </trkpt>
      <trkpt lat="48.72047" lon="1.82805">
        <ele>162.6</ele>
        <time>2009-12-06T00:17:53.000Z</time>
      </trkpt>
      <trkpt lat="48.72046" lon="1.82814">
        <ele>164.04</ele>
        <time>2009-12-06T00:17:58.000Z</time>
      </trkpt>
      <trkpt lat="48.72039" lon="1.82829">
        <ele>165.96</ele>
        <time>2009-12-06T00:18:03.000Z</time>
      </trkpt>
      <trkpt lat="48.72038" lon="1.82832">
        <ele>166.45</ele>
        <time>2009-12-06T00:18:04.000Z</time>
      </trkpt>
      <trkpt lat="48.72035" lon="1.82839">
        <ele>166.93</ele>
        <time>2009-12-06T00:18:06.000Z</time>
      </trkpt>
      <trkpt lat="48.7203" lon="1.82845">
        <ele>165</ele>
        <time>2009-12-06T00:18:11.000Z</time>
      </trkpt>
      <trkpt lat="48.72029" lon="1.82845">
        <ele>164.52</ele>
        <time>2009-12-06T00:18:12.000Z</time>
      </trkpt>
      <trkpt lat="48.72023" lon="1.82856">
        <ele>158.75</ele>
        <time>2009-12-06T00:18:17.000Z</time>
      </trkpt>
      <trkpt lat="48.72017" lon="1.82873">
        <ele>162.6</ele>
        <time>2009-12-06T00:18:22.000Z</time>
      </trkpt>
      <trkpt lat="48.72015" lon="1.82877">
        <ele>163.08</ele>
        <time>2009-12-06T00:18:23.000Z</time>
      </trkpt>
      <trkpt lat="48.72008" lon="1.82899">
        <ele>162.6</ele>
        <time>2009-12-06T00:18:30.000Z</time>
      </trkpt>
      <trkpt lat="48.72003" lon="1.82913">
        <ele>163.56</ele>
        <time>2009-12-06T00:18:35.000Z</time>
      </trkpt>
      <trkpt lat="48.72" lon="1.82921">
        <ele>163.56</ele>
        <time>2009-12-06T00:18:38.000Z</time>
      </trkpt>
      <trkpt lat="48.71994" lon="1.8293">
        <ele>165.48</ele>
        <time>2009-12-06T00:18:42.000Z</time>
      </trkpt>
      <trkpt lat="48.71987" lon="1.82946">
        <ele>165</ele>
        <time>2009-12-06T00:18:47.000Z</time>
      </trkpt>
      <trkpt lat="48.71979" lon="1.82964">
        <ele>168.85</ele>
        <time>2009-12-06T00:18:53.000Z</time>
      </trkpt>
      <trkpt lat="48.71979" lon="1.82967">
        <ele>169.81</ele>
        <time>2009-12-06T00:18:54.000Z</time>
      </trkpt>
      <trkpt lat="48.71968" lon="1.82987">
        <ele>176.06</ele>
        <time>2009-12-06T00:19:00.000Z</time>
      </trkpt>
      <trkpt lat="48.71959" lon="1.83009">
        <ele>182.79</ele>
        <time>2009-12-06T00:19:06.000Z</time>
      </trkpt>
      <trkpt lat="48.71954" lon="1.83019">
        <ele>180.87</ele>
        <time>2009-12-06T00:19:10.000Z</time>
      </trkpt>
      <trkpt lat="48.71951" lon="1.83022">
        <ele>179.42</ele>
        <time>2009-12-06T00:19:12.000Z</time>
      </trkpt>
      <trkpt lat="48.7195" lon="1.83035">
        <ele>183.27</ele>
        <time>2009-12-06T00:19:17.000Z</time>
      </trkpt>
      <trkpt lat="48.71945" lon="1.8305">
        <ele>184.71</ele>
        <time>2009-12-06T00:19:22.000Z</time>
      </trkpt>
    </trkseg>
  </trk>
</gpx>